<?xml version="1.0" encoding="UTF-8" standalone="no" ?>
<gpx xmlns="http://www.topografix.com/GPX/1/1" xmlns:xsi="http://www.w3.org/2001/XMLSchema-instance" xsi:schemaLocation="http://www.topografix.com/GPX/1/1 http://www.topografix.com/GPX/1/1/gpx.xsd" version="1.1" creator="VisuGPX - https://www.visugpx.com">
  <metadata>
    <name>Aups-Régusse-Artignosc</name>
    <desc><![CDATA[Balade dans le haut var aux portes du verdon
Pique nique à Régusse, fontaine au village
Hébergements à Artignosc, accueil cavaliers
Tracé équi'découverte]]></desc>
  </metadata>
  <trk>
    <name><![CDATA[PLE REGU ARTIPM]]></name>
    <trkseg>
      <trkpt lat="43.59981" lon="6.24997">
        <ele>389.47</ele>
        <time>2016-05-26T08:03:13Z</time>
      </trkpt>
      <trkpt lat="43.59981" lon="6.24996">
        <ele>389.47</ele>
        <time>2016-05-26T08:03:24Z</time>
      </trkpt>
      <trkpt lat="43.5999" lon="6.24999">
        <ele>399.08</ele>
        <time>2016-05-27T08:10:00Z</time>
      </trkpt>
      <trkpt lat="43.5999" lon="6.25">
        <ele>399.08</ele>
        <time>2016-05-27T08:10:01Z</time>
      </trkpt>
      <trkpt lat="43.59991" lon="6.24991">
        <ele>399.57</ele>
        <time>2016-05-27T08:10:23Z</time>
      </trkpt>
      <trkpt lat="43.59994" lon="6.24984">
        <ele>399.57</ele>
        <time>2016-05-27T08:10:41Z</time>
      </trkpt>
      <trkpt lat="43.60004" lon="6.24976">
        <ele>399.08</ele>
        <time>2016-05-27T08:11:06Z</time>
      </trkpt>
      <trkpt lat="43.60006" lon="6.24977">
        <ele>402.45</ele>
        <time>2016-05-27T08:11:18Z</time>
      </trkpt>
      <trkpt lat="43.60006" lon="6.24977">
        <ele>401.01</ele>
        <time>2016-05-27T08:11:19Z</time>
      </trkpt>
      <trkpt lat="43.60005" lon="6.24977">
        <ele>397.16</ele>
        <time>2016-05-27T08:11:20Z</time>
      </trkpt>
      <trkpt lat="43.60005" lon="6.24977">
        <ele>399.08</ele>
        <time>2016-05-27T08:11:21Z</time>
      </trkpt>
      <trkpt lat="43.60005" lon="6.24977">
        <ele>403.89</ele>
        <time>2016-05-27T08:11:22Z</time>
      </trkpt>
      <trkpt lat="43.60005" lon="6.24978">
        <ele>401.01</ele>
        <time>2016-05-27T08:11:23Z</time>
      </trkpt>
      <trkpt lat="43.60005" lon="6.24978">
        <ele>399.57</ele>
        <time>2016-05-27T08:11:25Z</time>
      </trkpt>
      <trkpt lat="43.60004" lon="6.24981">
        <ele>396.2</ele>
        <time>2016-05-27T08:11:47Z</time>
      </trkpt>
      <trkpt lat="43.60004" lon="6.24982">
        <ele>403.41</ele>
        <time>2016-05-27T08:11:48Z</time>
      </trkpt>
      <trkpt lat="43.60004" lon="6.24982">
        <ele>395.24</ele>
        <time>2016-05-27T08:11:49Z</time>
      </trkpt>
      <trkpt lat="43.60004" lon="6.24982">
        <ele>403.89</ele>
        <time>2016-05-27T08:11:50Z</time>
      </trkpt>
      <trkpt lat="43.60004" lon="6.24982">
        <ele>400.05</ele>
        <time>2016-05-27T08:11:51Z</time>
      </trkpt>
      <trkpt lat="43.60004" lon="6.24982">
        <ele>403.89</ele>
        <time>2016-05-27T08:12:01Z</time>
      </trkpt>
      <trkpt lat="43.5999" lon="6.24979">
        <ele>407.26</ele>
        <time>2016-05-27T08:12:04Z</time>
      </trkpt>
      <trkpt lat="43.5999" lon="6.24979">
        <ele>410.62</ele>
        <time>2016-05-27T08:12:06Z</time>
      </trkpt>
      <trkpt lat="43.59989" lon="6.24979">
        <ele>414.95</ele>
        <time>2016-05-27T08:12:09Z</time>
      </trkpt>
      <trkpt lat="43.59988" lon="6.24979">
        <ele>418.31</ele>
        <time>2016-05-27T08:12:12Z</time>
      </trkpt>
      <trkpt lat="43.59988" lon="6.24979">
        <ele>422.64</ele>
        <time>2016-05-27T08:12:14Z</time>
      </trkpt>
      <trkpt lat="43.59988" lon="6.24979">
        <ele>422.16</ele>
        <time>2016-05-27T08:12:15Z</time>
      </trkpt>
      <trkpt lat="43.59987" lon="6.24979">
        <ele>426</ele>
        <time>2016-05-27T08:12:19Z</time>
      </trkpt>
      <trkpt lat="43.59987" lon="6.24979">
        <ele>429.85</ele>
        <time>2016-05-27T08:12:23Z</time>
      </trkpt>
      <trkpt lat="43.59987" lon="6.24979">
        <ele>433.21</ele>
        <time>2016-05-27T08:12:27Z</time>
      </trkpt>
      <trkpt lat="43.59985" lon="6.24979">
        <ele>436.1</ele>
        <time>2016-05-27T08:12:31Z</time>
      </trkpt>
      <trkpt lat="43.59985" lon="6.24979">
        <ele>439.46</ele>
        <time>2016-05-27T08:12:36Z</time>
      </trkpt>
      <trkpt lat="43.59984" lon="6.24979">
        <ele>442.82</ele>
        <time>2016-05-27T08:12:42Z</time>
      </trkpt>
      <trkpt lat="43.59984" lon="6.24979">
        <ele>445.71</ele>
        <time>2016-05-27T08:12:48Z</time>
      </trkpt>
      <trkpt lat="43.59984" lon="6.2498">
        <ele>449.07</ele>
        <time>2016-05-27T08:12:55Z</time>
      </trkpt>
      <trkpt lat="43.59984" lon="6.24979">
        <ele>452.44</ele>
        <time>2016-05-27T08:13:05Z</time>
      </trkpt>
      <trkpt lat="43.59984" lon="6.24979">
        <ele>455.32</ele>
        <time>2016-05-27T08:13:21Z</time>
      </trkpt>
      <trkpt lat="43.59984" lon="6.24979">
        <ele>459.17</ele>
        <time>2016-05-27T08:13:24Z</time>
      </trkpt>
      <trkpt lat="43.59985" lon="6.24978">
        <ele>453.88</ele>
        <time>2016-05-27T08:13:40Z</time>
      </trkpt>
      <trkpt lat="43.59985" lon="6.24978">
        <ele>453.88</ele>
        <time>2016-05-27T08:13:41Z</time>
      </trkpt>
      <trkpt lat="43.59985" lon="6.24978">
        <ele>460.13</ele>
        <time>2016-05-27T08:13:42Z</time>
      </trkpt>
      <trkpt lat="43.59985" lon="6.24978">
        <ele>456.28</ele>
        <time>2016-05-27T08:13:43Z</time>
      </trkpt>
      <trkpt lat="43.59985" lon="6.24977">
        <ele>452.92</ele>
        <time>2016-05-27T08:13:44Z</time>
      </trkpt>
      <trkpt lat="43.59985" lon="6.24977">
        <ele>456.76</ele>
        <time>2016-05-27T08:13:45Z</time>
      </trkpt>
      <trkpt lat="43.59985" lon="6.24977">
        <ele>458.21</ele>
        <time>2016-05-27T08:13:47Z</time>
      </trkpt>
      <trkpt lat="43.59985" lon="6.24977">
        <ele>456.76</ele>
        <time>2016-05-27T08:13:49Z</time>
      </trkpt>
      <trkpt lat="43.59985" lon="6.24978">
        <ele>456.28</ele>
        <time>2016-05-27T08:14:09Z</time>
      </trkpt>
      <trkpt lat="43.59989" lon="6.24972">
        <ele>456.28</ele>
        <time>2016-05-27T08:14:27Z</time>
      </trkpt>
      <trkpt lat="43.59988" lon="6.24974">
        <ele>455.8</ele>
        <time>2016-05-27T08:14:48Z</time>
      </trkpt>
      <trkpt lat="43.60031" lon="6.24888">
        <ele>371.21</ele>
        <time>2016-06-18T08:52:33Z</time>
      </trkpt>
      <trkpt lat="43.60009" lon="6.24888">
        <ele>371.21</ele>
        <time>2016-06-18T08:52:54Z</time>
      </trkpt>
      <trkpt lat="43.60007" lon="6.24879">
        <ele>371.21</ele>
        <time>2016-06-18T08:53:08Z</time>
      </trkpt>
      <trkpt lat="43.60005" lon="6.2487">
        <ele>370.24</ele>
        <time>2016-06-18T08:53:19Z</time>
      </trkpt>
      <trkpt lat="43.6" lon="6.24865">
        <ele>369.28</ele>
        <time>2016-06-18T08:53:36Z</time>
      </trkpt>
      <trkpt lat="43.59999" lon="6.24865">
        <ele>369.76</ele>
        <time>2016-06-18T08:53:53Z</time>
      </trkpt>
      <trkpt lat="43.59996" lon="6.24868">
        <ele>372.65</ele>
        <time>2016-06-18T08:54:05Z</time>
      </trkpt>
      <trkpt lat="43.59995" lon="6.24869">
        <ele>378.42</ele>
        <time>2016-06-18T08:54:07Z</time>
      </trkpt>
      <trkpt lat="43.59995" lon="6.2487">
        <ele>383.22</ele>
        <time>2016-06-18T08:54:09Z</time>
      </trkpt>
      <trkpt lat="43.59995" lon="6.24869">
        <ele>388.03</ele>
        <time>2016-06-18T08:54:11Z</time>
      </trkpt>
      <trkpt lat="43.59995" lon="6.24869">
        <ele>392.36</ele>
        <time>2016-06-18T08:54:13Z</time>
      </trkpt>
      <trkpt lat="43.59995" lon="6.24869">
        <ele>396.68</ele>
        <time>2016-06-18T08:54:15Z</time>
      </trkpt>
      <trkpt lat="43.59995" lon="6.24869">
        <ele>401.01</ele>
        <time>2016-06-18T08:54:17Z</time>
      </trkpt>
      <trkpt lat="43.59995" lon="6.24869">
        <ele>404.85</ele>
        <time>2016-06-18T08:54:19Z</time>
      </trkpt>
      <trkpt lat="43.59995" lon="6.24869">
        <ele>408.22</ele>
        <time>2016-06-18T08:54:21Z</time>
      </trkpt>
      <trkpt lat="43.59995" lon="6.24869">
        <ele>411.1</ele>
        <time>2016-06-18T08:54:23Z</time>
      </trkpt>
      <trkpt lat="43.59995" lon="6.24869">
        <ele>414.47</ele>
        <time>2016-06-18T08:54:25Z</time>
      </trkpt>
      <trkpt lat="43.59995" lon="6.24869">
        <ele>418.79</ele>
        <time>2016-06-18T08:54:28Z</time>
      </trkpt>
      <trkpt lat="43.59995" lon="6.24868">
        <ele>422.64</ele>
        <time>2016-06-18T08:54:31Z</time>
      </trkpt>
      <trkpt lat="43.59995" lon="6.24867">
        <ele>426.48</ele>
        <time>2016-06-18T08:54:34Z</time>
      </trkpt>
      <trkpt lat="43.59995" lon="6.24867">
        <ele>427.44</ele>
        <time>2016-06-18T08:54:35Z</time>
      </trkpt>
      <trkpt lat="43.59995" lon="6.24863">
        <ele>428.89</ele>
        <time>2016-06-18T08:54:37Z</time>
      </trkpt>
      <trkpt lat="43.59992" lon="6.24856">
        <ele>430.81</ele>
        <time>2016-06-18T08:54:40Z</time>
      </trkpt>
      <trkpt lat="43.59987" lon="6.24848">
        <ele>434.17</ele>
        <time>2016-06-18T08:54:45Z</time>
      </trkpt>
      <trkpt lat="43.5998" lon="6.24836">
        <ele>437.54</ele>
        <time>2016-06-18T08:54:52Z</time>
      </trkpt>
      <trkpt lat="43.59969" lon="6.2482">
        <ele>440.42</ele>
        <time>2016-06-18T08:55:04Z</time>
      </trkpt>
      <trkpt lat="43.59963" lon="6.24808">
        <ele>441.86</ele>
        <time>2016-06-18T08:55:11Z</time>
      </trkpt>
      <trkpt lat="43.59965" lon="6.24799">
        <ele>442.34</ele>
        <time>2016-06-18T08:55:16Z</time>
      </trkpt>
      <trkpt lat="43.59976" lon="6.2477">
        <ele>444.27</ele>
        <time>2016-06-18T08:55:30Z</time>
      </trkpt>
      <trkpt lat="43.59987" lon="6.24744">
        <ele>445.23</ele>
        <time>2016-06-18T08:55:43Z</time>
      </trkpt>
      <trkpt lat="43.59998" lon="6.24718">
        <ele>444.27</ele>
        <time>2016-06-18T08:55:56Z</time>
      </trkpt>
      <trkpt lat="43.60009" lon="6.2469">
        <ele>443.79</ele>
        <time>2016-06-18T08:56:09Z</time>
      </trkpt>
      <trkpt lat="43.60023" lon="6.2466">
        <ele>444.27</ele>
        <time>2016-06-18T08:56:23Z</time>
      </trkpt>
      <trkpt lat="43.60032" lon="6.24637">
        <ele>442.82</ele>
        <time>2016-06-18T08:56:35Z</time>
      </trkpt>
      <trkpt lat="43.60042" lon="6.24612">
        <ele>443.79</ele>
        <time>2016-06-18T08:56:48Z</time>
      </trkpt>
      <trkpt lat="43.6004" lon="6.24588">
        <ele>443.31</ele>
        <time>2016-06-18T08:57:00Z</time>
      </trkpt>
      <trkpt lat="43.60034" lon="6.2456">
        <ele>442.34</ele>
        <time>2016-06-18T08:57:13Z</time>
      </trkpt>
      <trkpt lat="43.60027" lon="6.2453">
        <ele>440.9</ele>
        <time>2016-06-18T08:57:28Z</time>
      </trkpt>
      <trkpt lat="43.60036" lon="6.24497">
        <ele>438.5</ele>
        <time>2016-06-18T08:57:43Z</time>
      </trkpt>
      <trkpt lat="43.60048" lon="6.24464">
        <ele>437.06</ele>
        <time>2016-06-18T08:57:59Z</time>
      </trkpt>
      <trkpt lat="43.60063" lon="6.24433">
        <ele>434.65</ele>
        <time>2016-06-18T08:58:15Z</time>
      </trkpt>
      <trkpt lat="43.60077" lon="6.24405">
        <ele>433.69</ele>
        <time>2016-06-18T08:58:30Z</time>
      </trkpt>
      <trkpt lat="43.6009" lon="6.24376">
        <ele>434.17</ele>
        <time>2016-06-18T08:58:45Z</time>
      </trkpt>
      <trkpt lat="43.60105" lon="6.24341">
        <ele>433.69</ele>
        <time>2016-06-18T08:59:03Z</time>
      </trkpt>
      <trkpt lat="43.60118" lon="6.24307">
        <ele>434.65</ele>
        <time>2016-06-18T08:59:21Z</time>
      </trkpt>
      <trkpt lat="43.60128" lon="6.24278">
        <ele>435.13</ele>
        <time>2016-06-18T08:59:35Z</time>
      </trkpt>
      <trkpt lat="43.60137" lon="6.24241">
        <ele>435.13</ele>
        <time>2016-06-18T08:59:52Z</time>
      </trkpt>
      <trkpt lat="43.60148" lon="6.24213">
        <ele>436.1</ele>
        <time>2016-06-18T09:00:07Z</time>
      </trkpt>
      <trkpt lat="43.60155" lon="6.24188">
        <ele>436.58</ele>
        <time>2016-06-18T09:00:20Z</time>
      </trkpt>
      <trkpt lat="43.60174" lon="6.2416">
        <ele>435.61</ele>
        <time>2016-06-18T09:00:36Z</time>
      </trkpt>
      <trkpt lat="43.60187" lon="6.24141">
        <ele>435.13</ele>
        <time>2016-06-18T09:00:49Z</time>
      </trkpt>
      <trkpt lat="43.60202" lon="6.24119">
        <ele>435.13</ele>
        <time>2016-06-18T09:01:04Z</time>
      </trkpt>
      <trkpt lat="43.60217" lon="6.24094">
        <ele>434.65</ele>
        <time>2016-06-18T09:01:20Z</time>
      </trkpt>
      <trkpt lat="43.60237" lon="6.24065">
        <ele>435.13</ele>
        <time>2016-06-18T09:01:36Z</time>
      </trkpt>
      <trkpt lat="43.6024" lon="6.2406">
        <ele>435.13</ele>
        <time>2016-06-18T09:01:39Z</time>
      </trkpt>
      <trkpt lat="43.60257" lon="6.24029">
        <ele>436.58</ele>
        <time>2016-06-18T09:01:56Z</time>
      </trkpt>
      <trkpt lat="43.60278" lon="6.23991">
        <ele>438.5</ele>
        <time>2016-06-18T09:02:17Z</time>
      </trkpt>
      <trkpt lat="43.60291" lon="6.23961">
        <ele>439.46</ele>
        <time>2016-06-18T09:02:32Z</time>
      </trkpt>
      <trkpt lat="43.60309" lon="6.23941">
        <ele>438.02</ele>
        <time>2016-06-18T09:02:47Z</time>
      </trkpt>
      <trkpt lat="43.60323" lon="6.23917">
        <ele>436.1</ele>
        <time>2016-06-18T09:03:02Z</time>
      </trkpt>
      <trkpt lat="43.60339" lon="6.23878">
        <ele>435.61</ele>
        <time>2016-06-18T09:03:21Z</time>
      </trkpt>
      <trkpt lat="43.60347" lon="6.23857">
        <ele>438.02</ele>
        <time>2016-06-18T09:03:34Z</time>
      </trkpt>
      <trkpt lat="43.60362" lon="6.23828">
        <ele>440.42</ele>
        <time>2016-06-18T09:03:49Z</time>
      </trkpt>
      <trkpt lat="43.60372" lon="6.23805">
        <ele>442.34</ele>
        <time>2016-06-18T09:03:59Z</time>
      </trkpt>
      <trkpt lat="43.60382" lon="6.23783">
        <ele>443.79</ele>
        <time>2016-06-18T09:04:13Z</time>
      </trkpt>
      <trkpt lat="43.60399" lon="6.23758">
        <ele>444.27</ele>
        <time>2016-06-18T09:04:27Z</time>
      </trkpt>
      <trkpt lat="43.60423" lon="6.23728">
        <ele>443.79</ele>
        <time>2016-06-18T09:04:45Z</time>
      </trkpt>
      <trkpt lat="43.60442" lon="6.23698">
        <ele>443.31</ele>
        <time>2016-06-18T09:05:02Z</time>
      </trkpt>
      <trkpt lat="43.60462" lon="6.23667">
        <ele>442.34</ele>
        <time>2016-06-18T09:05:19Z</time>
      </trkpt>
      <trkpt lat="43.60475" lon="6.23651">
        <ele>441.38</ele>
        <time>2016-06-18T09:05:28Z</time>
      </trkpt>
      <trkpt lat="43.60486" lon="6.23627">
        <ele>440.9</ele>
        <time>2016-06-18T09:05:42Z</time>
      </trkpt>
      <trkpt lat="43.60487" lon="6.23626">
        <ele>440.42</ele>
        <time>2016-06-18T09:05:43Z</time>
      </trkpt>
      <trkpt lat="43.60497" lon="6.23608">
        <ele>439.94</ele>
        <time>2016-06-18T09:05:55Z</time>
      </trkpt>
      <trkpt lat="43.60502" lon="6.23599">
        <ele>438.98</ele>
        <time>2016-06-18T09:06:00Z</time>
      </trkpt>
      <trkpt lat="43.60509" lon="6.23592">
        <ele>438.02</ele>
        <time>2016-06-18T09:06:05Z</time>
      </trkpt>
      <trkpt lat="43.60517" lon="6.23587">
        <ele>437.06</ele>
        <time>2016-06-18T09:06:10Z</time>
      </trkpt>
      <trkpt lat="43.60522" lon="6.23588">
        <ele>436.58</ele>
        <time>2016-06-18T09:06:14Z</time>
      </trkpt>
      <trkpt lat="43.60536" lon="6.23582">
        <ele>434.17</ele>
        <time>2016-06-18T09:06:25Z</time>
      </trkpt>
      <trkpt lat="43.60543" lon="6.23563">
        <ele>432.25</ele>
        <time>2016-06-18T09:06:36Z</time>
      </trkpt>
      <trkpt lat="43.60561" lon="6.23547">
        <ele>430.33</ele>
        <time>2016-06-18T09:06:49Z</time>
      </trkpt>
      <trkpt lat="43.60573" lon="6.23524">
        <ele>430.33</ele>
        <time>2016-06-18T09:07:02Z</time>
      </trkpt>
      <trkpt lat="43.6058" lon="6.23492">
        <ele>429.37</ele>
        <time>2016-06-18T09:07:16Z</time>
      </trkpt>
      <trkpt lat="43.6058" lon="6.23491">
        <ele>429.85</ele>
        <time>2016-06-18T09:07:17Z</time>
      </trkpt>
      <trkpt lat="43.60585" lon="6.23478">
        <ele>430.33</ele>
        <time>2016-06-18T09:07:29Z</time>
      </trkpt>
      <trkpt lat="43.60585" lon="6.23478">
        <ele>430.81</ele>
        <time>2016-06-18T09:07:45Z</time>
      </trkpt>
      <trkpt lat="43.60585" lon="6.23478">
        <ele>430.81</ele>
        <time>2016-06-18T09:08:03Z</time>
      </trkpt>
      <trkpt lat="43.60585" lon="6.23477">
        <ele>430.81</ele>
        <time>2016-06-18T09:08:24Z</time>
      </trkpt>
      <trkpt lat="43.60585" lon="6.23477">
        <ele>430.81</ele>
        <time>2016-06-18T09:08:33Z</time>
      </trkpt>
      <trkpt lat="43.60585" lon="6.23474">
        <ele>431.77</ele>
        <time>2016-06-18T09:08:35Z</time>
      </trkpt>
      <trkpt lat="43.60588" lon="6.23438">
        <ele>432.73</ele>
        <time>2016-06-18T09:08:54Z</time>
      </trkpt>
      <trkpt lat="43.6059" lon="6.23431">
        <ele>434.17</ele>
        <time>2016-06-18T09:08:58Z</time>
      </trkpt>
      <trkpt lat="43.60593" lon="6.23415">
        <ele>434.17</ele>
        <time>2016-06-18T09:09:04Z</time>
      </trkpt>
      <trkpt lat="43.60585" lon="6.23387">
        <ele>433.69</ele>
        <time>2016-06-18T09:09:18Z</time>
      </trkpt>
      <trkpt lat="43.60585" lon="6.23381">
        <ele>434.17</ele>
        <time>2016-06-18T09:09:21Z</time>
      </trkpt>
      <trkpt lat="43.60599" lon="6.23357">
        <ele>436.58</ele>
        <time>2016-06-18T09:09:36Z</time>
      </trkpt>
      <trkpt lat="43.60618" lon="6.23336">
        <ele>436.58</ele>
        <time>2016-06-18T09:09:52Z</time>
      </trkpt>
      <trkpt lat="43.60642" lon="6.23306">
        <ele>438.02</ele>
        <time>2016-06-18T09:10:14Z</time>
      </trkpt>
      <trkpt lat="43.60662" lon="6.23283">
        <ele>439.46</ele>
        <time>2016-06-18T09:10:31Z</time>
      </trkpt>
      <trkpt lat="43.60684" lon="6.23258">
        <ele>440.42</ele>
        <time>2016-06-18T09:10:47Z</time>
      </trkpt>
      <trkpt lat="43.60688" lon="6.23254">
        <ele>440.9</ele>
        <time>2016-06-18T09:10:50Z</time>
      </trkpt>
      <trkpt lat="43.6069" lon="6.23239">
        <ele>441.86</ele>
        <time>2016-06-18T09:10:59Z</time>
      </trkpt>
      <trkpt lat="43.60688" lon="6.23229">
        <ele>443.79</ele>
        <time>2016-06-18T09:11:03Z</time>
      </trkpt>
      <trkpt lat="43.60685" lon="6.23221">
        <ele>443.79</ele>
        <time>2016-06-18T09:11:09Z</time>
      </trkpt>
      <trkpt lat="43.60679" lon="6.2321">
        <ele>445.23</ele>
        <time>2016-06-18T09:11:15Z</time>
      </trkpt>
      <trkpt lat="43.60664" lon="6.2318">
        <ele>448.11</ele>
        <time>2016-06-18T09:11:29Z</time>
      </trkpt>
      <trkpt lat="43.60648" lon="6.23152">
        <ele>450.52</ele>
        <time>2016-06-18T09:11:45Z</time>
      </trkpt>
      <trkpt lat="43.6064" lon="6.23134">
        <ele>451</ele>
        <time>2016-06-18T09:11:55Z</time>
      </trkpt>
      <trkpt lat="43.60636" lon="6.23125">
        <ele>452.44</ele>
        <time>2016-06-18T09:12:00Z</time>
      </trkpt>
      <trkpt lat="43.60625" lon="6.23102">
        <ele>452.92</ele>
        <time>2016-06-18T09:12:16Z</time>
      </trkpt>
      <trkpt lat="43.60617" lon="6.23075">
        <ele>451.96</ele>
        <time>2016-06-18T09:12:30Z</time>
      </trkpt>
      <trkpt lat="43.60606" lon="6.2304">
        <ele>450.03</ele>
        <time>2016-06-18T09:12:46Z</time>
      </trkpt>
      <trkpt lat="43.60586" lon="6.23027">
        <ele>448.11</ele>
        <time>2016-06-18T09:12:58Z</time>
      </trkpt>
      <trkpt lat="43.60581" lon="6.23025">
        <ele>448.11</ele>
        <time>2016-06-18T09:13:01Z</time>
      </trkpt>
      <trkpt lat="43.60558" lon="6.23033">
        <ele>449.07</ele>
        <time>2016-06-18T09:13:16Z</time>
      </trkpt>
      <trkpt lat="43.60532" lon="6.23043">
        <ele>450.52</ele>
        <time>2016-06-18T09:13:31Z</time>
      </trkpt>
      <trkpt lat="43.60511" lon="6.23046">
        <ele>451.48</ele>
        <time>2016-06-18T09:13:43Z</time>
      </trkpt>
      <trkpt lat="43.6049" lon="6.23044">
        <ele>453.88</ele>
        <time>2016-06-18T09:13:56Z</time>
      </trkpt>
      <trkpt lat="43.60486" lon="6.23043">
        <ele>454.36</ele>
        <time>2016-06-18T09:13:59Z</time>
      </trkpt>
      <trkpt lat="43.60476" lon="6.2304">
        <ele>454.84</ele>
        <time>2016-06-18T09:14:06Z</time>
      </trkpt>
      <trkpt lat="43.6047" lon="6.2303">
        <ele>456.28</ele>
        <time>2016-06-18T09:14:11Z</time>
      </trkpt>
      <trkpt lat="43.60479" lon="6.23011">
        <ele>458.69</ele>
        <time>2016-06-18T09:14:24Z</time>
      </trkpt>
      <trkpt lat="43.60484" lon="6.23002">
        <ele>458.69</ele>
        <time>2016-06-18T09:14:30Z</time>
      </trkpt>
      <trkpt lat="43.60479" lon="6.2299">
        <ele>460.13</ele>
        <time>2016-06-18T09:14:37Z</time>
      </trkpt>
      <trkpt lat="43.60475" lon="6.22984">
        <ele>460.61</ele>
        <time>2016-06-18T09:14:42Z</time>
      </trkpt>
      <trkpt lat="43.6046" lon="6.2296">
        <ele>463.01</ele>
        <time>2016-06-18T09:14:56Z</time>
      </trkpt>
      <trkpt lat="43.60444" lon="6.22942">
        <ele>464.45</ele>
        <time>2016-06-18T09:15:09Z</time>
      </trkpt>
      <trkpt lat="43.60436" lon="6.22929">
        <ele>465.42</ele>
        <time>2016-06-18T09:15:17Z</time>
      </trkpt>
      <trkpt lat="43.60419" lon="6.22905">
        <ele>467.82</ele>
        <time>2016-06-18T09:15:31Z</time>
      </trkpt>
      <trkpt lat="43.60407" lon="6.22879">
        <ele>469.74</ele>
        <time>2016-06-18T09:15:43Z</time>
      </trkpt>
      <trkpt lat="43.60406" lon="6.22878">
        <ele>469.74</ele>
        <time>2016-06-18T09:15:44Z</time>
      </trkpt>
      <trkpt lat="43.60387" lon="6.22855">
        <ele>471.66</ele>
        <time>2016-06-18T09:16:01Z</time>
      </trkpt>
      <trkpt lat="43.60362" lon="6.22852">
        <ele>472.63</ele>
        <time>2016-06-18T09:16:17Z</time>
      </trkpt>
      <trkpt lat="43.60338" lon="6.22868">
        <ele>472.14</ele>
        <time>2016-06-18T09:16:34Z</time>
      </trkpt>
      <trkpt lat="43.60313" lon="6.2287">
        <ele>473.11</ele>
        <time>2016-06-18T09:16:49Z</time>
      </trkpt>
      <trkpt lat="43.603" lon="6.22873">
        <ele>473.59</ele>
        <time>2016-06-18T09:16:59Z</time>
      </trkpt>
      <trkpt lat="43.6029" lon="6.22855">
        <ele>474.07</ele>
        <time>2016-06-18T09:17:08Z</time>
      </trkpt>
      <trkpt lat="43.60276" lon="6.22823">
        <ele>475.03</ele>
        <time>2016-06-18T09:17:24Z</time>
      </trkpt>
      <trkpt lat="43.60265" lon="6.22799">
        <ele>475.51</ele>
        <time>2016-06-18T09:17:37Z</time>
      </trkpt>
      <trkpt lat="43.60259" lon="6.2277">
        <ele>475.51</ele>
        <time>2016-06-18T09:17:51Z</time>
      </trkpt>
      <trkpt lat="43.60247" lon="6.22742">
        <ele>475.03</ele>
        <time>2016-06-18T09:18:05Z</time>
      </trkpt>
      <trkpt lat="43.60238" lon="6.22717">
        <ele>474.55</ele>
        <time>2016-06-18T09:18:18Z</time>
      </trkpt>
      <trkpt lat="43.60227" lon="6.22688">
        <ele>473.59</ele>
        <time>2016-06-18T09:18:33Z</time>
      </trkpt>
      <trkpt lat="43.60221" lon="6.22676">
        <ele>473.11</ele>
        <time>2016-06-18T09:18:41Z</time>
      </trkpt>
      <trkpt lat="43.60219" lon="6.22671">
        <ele>472.63</ele>
        <time>2016-06-18T09:18:44Z</time>
      </trkpt>
      <trkpt lat="43.60212" lon="6.22653">
        <ele>472.14</ele>
        <time>2016-06-18T09:18:52Z</time>
      </trkpt>
      <trkpt lat="43.60207" lon="6.22636">
        <ele>470.7</ele>
        <time>2016-06-18T09:19:01Z</time>
      </trkpt>
      <trkpt lat="43.60201" lon="6.22604">
        <ele>470.22</ele>
        <time>2016-06-18T09:19:15Z</time>
      </trkpt>
      <trkpt lat="43.6019" lon="6.22583">
        <ele>469.26</ele>
        <time>2016-06-18T09:19:27Z</time>
      </trkpt>
      <trkpt lat="43.60174" lon="6.22567">
        <ele>467.82</ele>
        <time>2016-06-18T09:19:39Z</time>
      </trkpt>
      <trkpt lat="43.60169" lon="6.22561">
        <ele>467.34</ele>
        <time>2016-06-18T09:19:44Z</time>
      </trkpt>
      <trkpt lat="43.60167" lon="6.22557">
        <ele>467.34</ele>
        <time>2016-06-18T09:19:59Z</time>
      </trkpt>
      <trkpt lat="43.60165" lon="6.22558">
        <ele>467.34</ele>
        <time>2016-06-18T09:20:12Z</time>
      </trkpt>
      <trkpt lat="43.60167" lon="6.22556">
        <ele>467.34</ele>
        <time>2016-06-18T09:20:25Z</time>
      </trkpt>
      <trkpt lat="43.60167" lon="6.22556">
        <ele>467.82</ele>
        <time>2016-06-18T09:20:40Z</time>
      </trkpt>
      <trkpt lat="43.60169" lon="6.22553">
        <ele>467.82</ele>
        <time>2016-06-18T09:21:00Z</time>
      </trkpt>
      <trkpt lat="43.6017" lon="6.22546">
        <ele>467.82</ele>
        <time>2016-06-18T09:21:04Z</time>
      </trkpt>
      <trkpt lat="43.6016" lon="6.22508">
        <ele>467.34</ele>
        <time>2016-06-18T09:21:21Z</time>
      </trkpt>
      <trkpt lat="43.60144" lon="6.22483">
        <ele>466.86</ele>
        <time>2016-06-18T09:21:35Z</time>
      </trkpt>
      <trkpt lat="43.60137" lon="6.22465">
        <ele>466.38</ele>
        <time>2016-06-18T09:21:48Z</time>
      </trkpt>
      <trkpt lat="43.60122" lon="6.22432">
        <ele>467.34</ele>
        <time>2016-06-18T09:22:05Z</time>
      </trkpt>
      <trkpt lat="43.60113" lon="6.22414">
        <ele>468.3</ele>
        <time>2016-06-18T09:22:15Z</time>
      </trkpt>
      <trkpt lat="43.60109" lon="6.22405">
        <ele>468.78</ele>
        <time>2016-06-18T09:22:20Z</time>
      </trkpt>
      <trkpt lat="43.60096" lon="6.22373">
        <ele>469.26</ele>
        <time>2016-06-18T09:22:36Z</time>
      </trkpt>
      <trkpt lat="43.60087" lon="6.22349">
        <ele>469.74</ele>
        <time>2016-06-18T09:22:50Z</time>
      </trkpt>
      <trkpt lat="43.6008" lon="6.22329">
        <ele>469.74</ele>
        <time>2016-06-18T09:23:00Z</time>
      </trkpt>
      <trkpt lat="43.60077" lon="6.22316">
        <ele>469.26</ele>
        <time>2016-06-18T09:23:06Z</time>
      </trkpt>
      <trkpt lat="43.60068" lon="6.22302">
        <ele>469.26</ele>
        <time>2016-06-18T09:23:14Z</time>
      </trkpt>
      <trkpt lat="43.60058" lon="6.22283">
        <ele>468.78</ele>
        <time>2016-06-18T09:23:26Z</time>
      </trkpt>
      <trkpt lat="43.60059" lon="6.22262">
        <ele>467.34</ele>
        <time>2016-06-18T09:23:35Z</time>
      </trkpt>
      <trkpt lat="43.6006" lon="6.22258">
        <ele>467.82</ele>
        <time>2016-06-18T09:23:37Z</time>
      </trkpt>
      <trkpt lat="43.60058" lon="6.22242">
        <ele>467.82</ele>
        <time>2016-06-18T09:23:45Z</time>
      </trkpt>
      <trkpt lat="43.60067" lon="6.22231">
        <ele>467.34</ele>
        <time>2016-06-18T09:23:55Z</time>
      </trkpt>
      <trkpt lat="43.60083" lon="6.22212">
        <ele>468.3</ele>
        <time>2016-06-18T09:24:08Z</time>
      </trkpt>
      <trkpt lat="43.60102" lon="6.22199">
        <ele>468.3</ele>
        <time>2016-06-18T09:24:23Z</time>
      </trkpt>
      <trkpt lat="43.60108" lon="6.22197">
        <ele>469.26</ele>
        <time>2016-06-18T09:24:32Z</time>
      </trkpt>
      <trkpt lat="43.6011" lon="6.22196">
        <ele>468.78</ele>
        <time>2016-06-18T09:24:34Z</time>
      </trkpt>
      <trkpt lat="43.60135" lon="6.2218">
        <ele>469.74</ele>
        <time>2016-06-18T09:24:51Z</time>
      </trkpt>
      <trkpt lat="43.60144" lon="6.2215">
        <ele>470.22</ele>
        <time>2016-06-18T09:25:07Z</time>
      </trkpt>
      <trkpt lat="43.60143" lon="6.22143">
        <ele>469.74</ele>
        <time>2016-06-18T09:25:10Z</time>
      </trkpt>
      <trkpt lat="43.60143" lon="6.22133">
        <ele>469.26</ele>
        <time>2016-06-18T09:25:15Z</time>
      </trkpt>
      <trkpt lat="43.60149" lon="6.22101">
        <ele>466.86</ele>
        <time>2016-06-18T09:25:33Z</time>
      </trkpt>
      <trkpt lat="43.60156" lon="6.22073">
        <ele>465.9</ele>
        <time>2016-06-18T09:25:48Z</time>
      </trkpt>
      <trkpt lat="43.60155" lon="6.2207">
        <ele>465.42</ele>
        <time>2016-06-18T09:25:49Z</time>
      </trkpt>
      <trkpt lat="43.60145" lon="6.22046">
        <ele>463.97</ele>
        <time>2016-06-18T09:26:03Z</time>
      </trkpt>
      <trkpt lat="43.60132" lon="6.22028">
        <ele>465.42</ele>
        <time>2016-06-18T09:26:17Z</time>
      </trkpt>
      <trkpt lat="43.60127" lon="6.22011">
        <ele>466.86</ele>
        <time>2016-06-18T09:26:34Z</time>
      </trkpt>
      <trkpt lat="43.60126" lon="6.22009">
        <ele>466.86</ele>
        <time>2016-06-18T09:26:54Z</time>
      </trkpt>
      <trkpt lat="43.60127" lon="6.2201">
        <ele>466.86</ele>
        <time>2016-06-18T09:27:06Z</time>
      </trkpt>
      <trkpt lat="43.60128" lon="6.22011">
        <ele>466.86</ele>
        <time>2016-06-18T09:27:33Z</time>
      </trkpt>
      <trkpt lat="43.60128" lon="6.22011">
        <ele>466.86</ele>
        <time>2016-06-18T09:28:05Z</time>
      </trkpt>
      <trkpt lat="43.60128" lon="6.2201">
        <ele>466.86</ele>
        <time>2016-06-18T09:28:37Z</time>
      </trkpt>
      <trkpt lat="43.60128" lon="6.2201">
        <ele>466.86</ele>
        <time>2016-06-18T09:29:04Z</time>
      </trkpt>
      <trkpt lat="43.60128" lon="6.22009">
        <ele>466.86</ele>
        <time>2016-06-18T09:29:22Z</time>
      </trkpt>
      <trkpt lat="43.60128" lon="6.22005">
        <ele>466.86</ele>
        <time>2016-06-18T09:29:24Z</time>
      </trkpt>
      <trkpt lat="43.6013" lon="6.21989">
        <ele>466.86</ele>
        <time>2016-06-18T09:29:33Z</time>
      </trkpt>
      <trkpt lat="43.60125" lon="6.21986">
        <ele>468.3</ele>
        <time>2016-06-18T09:29:38Z</time>
      </trkpt>
      <trkpt lat="43.60117" lon="6.21989">
        <ele>470.22</ele>
        <time>2016-06-18T09:29:54Z</time>
      </trkpt>
      <trkpt lat="43.60115" lon="6.21989">
        <ele>469.74</ele>
        <time>2016-06-18T09:30:24Z</time>
      </trkpt>
      <trkpt lat="43.60113" lon="6.21987">
        <ele>469.74</ele>
        <time>2016-06-18T09:30:42Z</time>
      </trkpt>
      <trkpt lat="43.601" lon="6.21968">
        <ele>470.7</ele>
        <time>2016-06-18T09:30:58Z</time>
      </trkpt>
      <trkpt lat="43.60088" lon="6.21944">
        <ele>472.63</ele>
        <time>2016-06-18T09:31:11Z</time>
      </trkpt>
      <trkpt lat="43.6008" lon="6.21922">
        <ele>474.07</ele>
        <time>2016-06-18T09:31:23Z</time>
      </trkpt>
      <trkpt lat="43.60068" lon="6.21894">
        <ele>475.51</ele>
        <time>2016-06-18T09:31:38Z</time>
      </trkpt>
      <trkpt lat="43.60061" lon="6.21871">
        <ele>475.99</ele>
        <time>2016-06-18T09:31:48Z</time>
      </trkpt>
      <trkpt lat="43.60058" lon="6.21863">
        <ele>475.99</ele>
        <time>2016-06-18T09:31:51Z</time>
      </trkpt>
      <trkpt lat="43.60048" lon="6.21825">
        <ele>475.51</ele>
        <time>2016-06-18T09:32:02Z</time>
      </trkpt>
      <trkpt lat="43.60034" lon="6.2178">
        <ele>475.51</ele>
        <time>2016-06-18T09:32:14Z</time>
      </trkpt>
      <trkpt lat="43.60014" lon="6.21729">
        <ele>475.51</ele>
        <time>2016-06-18T09:32:26Z</time>
      </trkpt>
      <trkpt lat="43.60009" lon="6.2172">
        <ele>474.55</ele>
        <time>2016-06-18T09:32:28Z</time>
      </trkpt>
      <trkpt lat="43.60009" lon="6.21715">
        <ele>474.55</ele>
        <time>2016-06-18T09:32:29Z</time>
      </trkpt>
      <trkpt lat="43.60009" lon="6.21711">
        <ele>474.07</ele>
        <time>2016-06-18T09:32:30Z</time>
      </trkpt>
      <trkpt lat="43.60009" lon="6.21706">
        <ele>474.55</ele>
        <time>2016-06-18T09:32:31Z</time>
      </trkpt>
      <trkpt lat="43.60007" lon="6.21701">
        <ele>474.55</ele>
        <time>2016-06-18T09:32:32Z</time>
      </trkpt>
      <trkpt lat="43.59991" lon="6.21649">
        <ele>475.51</ele>
        <time>2016-06-18T09:32:42Z</time>
      </trkpt>
      <trkpt lat="43.59983" lon="6.21622">
        <ele>475.99</ele>
        <time>2016-06-18T09:32:47Z</time>
      </trkpt>
      <trkpt lat="43.5998" lon="6.21617">
        <ele>475.99</ele>
        <time>2016-06-18T09:32:48Z</time>
      </trkpt>
      <trkpt lat="43.59978" lon="6.21612">
        <ele>476.47</ele>
        <time>2016-06-18T09:32:49Z</time>
      </trkpt>
      <trkpt lat="43.59976" lon="6.21607">
        <ele>475.99</ele>
        <time>2016-06-18T09:32:50Z</time>
      </trkpt>
      <trkpt lat="43.59974" lon="6.21602">
        <ele>475.99</ele>
        <time>2016-06-18T09:32:51Z</time>
      </trkpt>
      <trkpt lat="43.59972" lon="6.21596">
        <ele>475.51</ele>
        <time>2016-06-18T09:32:52Z</time>
      </trkpt>
      <trkpt lat="43.59967" lon="6.21585">
        <ele>475.03</ele>
        <time>2016-06-18T09:32:54Z</time>
      </trkpt>
      <trkpt lat="43.59938" lon="6.21532">
        <ele>475.99</ele>
        <time>2016-06-18T09:33:05Z</time>
      </trkpt>
      <trkpt lat="43.59924" lon="6.21501">
        <ele>475.03</ele>
        <time>2016-06-18T09:33:14Z</time>
      </trkpt>
      <trkpt lat="43.59923" lon="6.21498">
        <ele>475.03</ele>
        <time>2016-06-18T09:33:15Z</time>
      </trkpt>
      <trkpt lat="43.59921" lon="6.21494">
        <ele>475.03</ele>
        <time>2016-06-18T09:33:16Z</time>
      </trkpt>
      <trkpt lat="43.59919" lon="6.2149">
        <ele>475.03</ele>
        <time>2016-06-18T09:33:17Z</time>
      </trkpt>
      <trkpt lat="43.59917" lon="6.21486">
        <ele>475.03</ele>
        <time>2016-06-18T09:33:19Z</time>
      </trkpt>
      <trkpt lat="43.59916" lon="6.21484">
        <ele>475.03</ele>
        <time>2016-06-18T09:33:20Z</time>
      </trkpt>
      <trkpt lat="43.59916" lon="6.21481">
        <ele>475.03</ele>
        <time>2016-06-18T09:33:21Z</time>
      </trkpt>
      <trkpt lat="43.59915" lon="6.21478">
        <ele>475.03</ele>
        <time>2016-06-18T09:33:22Z</time>
      </trkpt>
      <trkpt lat="43.59915" lon="6.21475">
        <ele>475.03</ele>
        <time>2016-06-18T09:33:23Z</time>
      </trkpt>
      <trkpt lat="43.59914" lon="6.21473">
        <ele>475.03</ele>
        <time>2016-06-18T09:33:24Z</time>
      </trkpt>
      <trkpt lat="43.59913" lon="6.21471">
        <ele>475.51</ele>
        <time>2016-06-18T09:33:25Z</time>
      </trkpt>
      <trkpt lat="43.59902" lon="6.21448">
        <ele>475.99</ele>
        <time>2016-06-18T09:33:36Z</time>
      </trkpt>
      <trkpt lat="43.59902" lon="6.21447">
        <ele>475.99</ele>
        <time>2016-06-18T09:33:37Z</time>
      </trkpt>
      <trkpt lat="43.59901" lon="6.21445">
        <ele>475.99</ele>
        <time>2016-06-18T09:33:38Z</time>
      </trkpt>
      <trkpt lat="43.599" lon="6.21443">
        <ele>475.99</ele>
        <time>2016-06-18T09:33:39Z</time>
      </trkpt>
      <trkpt lat="43.59899" lon="6.21442">
        <ele>476.47</ele>
        <time>2016-06-18T09:33:40Z</time>
      </trkpt>
      <trkpt lat="43.59898" lon="6.21441">
        <ele>476.47</ele>
        <time>2016-06-18T09:33:41Z</time>
      </trkpt>
      <trkpt lat="43.59898" lon="6.21439">
        <ele>475.99</ele>
        <time>2016-06-18T09:33:42Z</time>
      </trkpt>
      <trkpt lat="43.5989" lon="6.21426">
        <ele>476.47</ele>
        <time>2016-06-18T09:33:50Z</time>
      </trkpt>
      <trkpt lat="43.59889" lon="6.21423">
        <ele>476.47</ele>
        <time>2016-06-18T09:33:52Z</time>
      </trkpt>
      <trkpt lat="43.59887" lon="6.21422">
        <ele>476.95</ele>
        <time>2016-06-18T09:33:53Z</time>
      </trkpt>
      <trkpt lat="43.59886" lon="6.2142">
        <ele>476.95</ele>
        <time>2016-06-18T09:33:54Z</time>
      </trkpt>
      <trkpt lat="43.5987" lon="6.21395">
        <ele>476.95</ele>
        <time>2016-06-18T09:34:07Z</time>
      </trkpt>
      <trkpt lat="43.59853" lon="6.21391">
        <ele>476.95</ele>
        <time>2016-06-18T09:34:14Z</time>
      </trkpt>
      <trkpt lat="43.59852" lon="6.21391">
        <ele>476.95</ele>
        <time>2016-06-18T09:34:15Z</time>
      </trkpt>
      <trkpt lat="43.5985" lon="6.21392">
        <ele>476.95</ele>
        <time>2016-06-18T09:34:16Z</time>
      </trkpt>
      <trkpt lat="43.59833" lon="6.21402">
        <ele>476.47</ele>
        <time>2016-06-18T09:34:25Z</time>
      </trkpt>
      <trkpt lat="43.59811" lon="6.21392">
        <ele>475.51</ele>
        <time>2016-06-18T09:34:35Z</time>
      </trkpt>
      <trkpt lat="43.59808" lon="6.21393">
        <ele>475.51</ele>
        <time>2016-06-18T09:34:36Z</time>
      </trkpt>
      <trkpt lat="43.59805" lon="6.21394">
        <ele>475.03</ele>
        <time>2016-06-18T09:34:37Z</time>
      </trkpt>
      <trkpt lat="43.59801" lon="6.21395">
        <ele>475.03</ele>
        <time>2016-06-18T09:34:38Z</time>
      </trkpt>
      <trkpt lat="43.59798" lon="6.21396">
        <ele>475.03</ele>
        <time>2016-06-18T09:34:39Z</time>
      </trkpt>
      <trkpt lat="43.59795" lon="6.21396">
        <ele>475.03</ele>
        <time>2016-06-18T09:34:40Z</time>
      </trkpt>
      <trkpt lat="43.59791" lon="6.21395">
        <ele>475.03</ele>
        <time>2016-06-18T09:34:41Z</time>
      </trkpt>
      <trkpt lat="43.59788" lon="6.21394">
        <ele>475.03</ele>
        <time>2016-06-18T09:34:42Z</time>
      </trkpt>
      <trkpt lat="43.59784" lon="6.21393">
        <ele>475.03</ele>
        <time>2016-06-18T09:34:43Z</time>
      </trkpt>
      <trkpt lat="43.59751" lon="6.21404">
        <ele>474.07</ele>
        <time>2016-06-18T09:34:53Z</time>
      </trkpt>
      <trkpt lat="43.59711" lon="6.21415">
        <ele>472.63</ele>
        <time>2016-06-18T09:35:04Z</time>
      </trkpt>
      <trkpt lat="43.59676" lon="6.21388">
        <ele>472.14</ele>
        <time>2016-06-18T09:35:14Z</time>
      </trkpt>
      <trkpt lat="43.59643" lon="6.21346">
        <ele>473.59</ele>
        <time>2016-06-18T09:35:26Z</time>
      </trkpt>
      <trkpt lat="43.5964" lon="6.21345">
        <ele>473.59</ele>
        <time>2016-06-18T09:35:27Z</time>
      </trkpt>
      <trkpt lat="43.59637" lon="6.21344">
        <ele>473.59</ele>
        <time>2016-06-18T09:35:28Z</time>
      </trkpt>
      <trkpt lat="43.59634" lon="6.21344">
        <ele>473.11</ele>
        <time>2016-06-18T09:35:29Z</time>
      </trkpt>
      <trkpt lat="43.59631" lon="6.21344">
        <ele>473.11</ele>
        <time>2016-06-18T09:35:30Z</time>
      </trkpt>
      <trkpt lat="43.59628" lon="6.21343">
        <ele>473.59</ele>
        <time>2016-06-18T09:35:31Z</time>
      </trkpt>
      <trkpt lat="43.59626" lon="6.21343">
        <ele>473.59</ele>
        <time>2016-06-18T09:35:32Z</time>
      </trkpt>
      <trkpt lat="43.59623" lon="6.21342">
        <ele>473.59</ele>
        <time>2016-06-18T09:35:33Z</time>
      </trkpt>
      <trkpt lat="43.5962" lon="6.2134">
        <ele>473.59</ele>
        <time>2016-06-18T09:35:34Z</time>
      </trkpt>
      <trkpt lat="43.59616" lon="6.21339">
        <ele>473.11</ele>
        <time>2016-06-18T09:35:35Z</time>
      </trkpt>
      <trkpt lat="43.59597" lon="6.21337">
        <ele>473.11</ele>
        <time>2016-06-18T09:35:40Z</time>
      </trkpt>
      <trkpt lat="43.59592" lon="6.21336">
        <ele>472.14</ele>
        <time>2016-06-18T09:35:41Z</time>
      </trkpt>
      <trkpt lat="43.59587" lon="6.21336">
        <ele>472.63</ele>
        <time>2016-06-18T09:35:42Z</time>
      </trkpt>
      <trkpt lat="43.5956" lon="6.21338">
        <ele>471.66</ele>
        <time>2016-06-18T09:35:51Z</time>
      </trkpt>
      <trkpt lat="43.59542" lon="6.21344">
        <ele>471.66</ele>
        <time>2016-06-18T09:35:56Z</time>
      </trkpt>
      <trkpt lat="43.5954" lon="6.21347">
        <ele>471.18</ele>
        <time>2016-06-18T09:35:57Z</time>
      </trkpt>
      <trkpt lat="43.59539" lon="6.2135">
        <ele>471.18</ele>
        <time>2016-06-18T09:35:58Z</time>
      </trkpt>
      <trkpt lat="43.59538" lon="6.21353">
        <ele>471.18</ele>
        <time>2016-06-18T09:35:59Z</time>
      </trkpt>
      <trkpt lat="43.59537" lon="6.21355">
        <ele>471.18</ele>
        <time>2016-06-18T09:36:00Z</time>
      </trkpt>
      <trkpt lat="43.59536" lon="6.21358">
        <ele>471.18</ele>
        <time>2016-06-18T09:36:01Z</time>
      </trkpt>
      <trkpt lat="43.59534" lon="6.21361">
        <ele>471.18</ele>
        <time>2016-06-18T09:36:02Z</time>
      </trkpt>
      <trkpt lat="43.59533" lon="6.21363">
        <ele>471.18</ele>
        <time>2016-06-18T09:36:03Z</time>
      </trkpt>
      <trkpt lat="43.59521" lon="6.21377">
        <ele>470.7</ele>
        <time>2016-06-18T09:36:13Z</time>
      </trkpt>
      <trkpt lat="43.5952" lon="6.21373">
        <ele>470.7</ele>
        <time>2016-06-18T09:36:19Z</time>
      </trkpt>
      <trkpt lat="43.59517" lon="6.21369">
        <ele>470.7</ele>
        <time>2016-06-18T09:36:23Z</time>
      </trkpt>
      <trkpt lat="43.59516" lon="6.21367">
        <ele>470.22</ele>
        <time>2016-06-18T09:36:24Z</time>
      </trkpt>
      <trkpt lat="43.59514" lon="6.21366">
        <ele>470.22</ele>
        <time>2016-06-18T09:36:25Z</time>
      </trkpt>
      <trkpt lat="43.59493" lon="6.21353">
        <ele>470.22</ele>
        <time>2016-06-18T09:36:37Z</time>
      </trkpt>
      <trkpt lat="43.5948" lon="6.21337">
        <ele>470.7</ele>
        <time>2016-06-18T09:36:47Z</time>
      </trkpt>
      <trkpt lat="43.5948" lon="6.21333">
        <ele>471.18</ele>
        <time>2016-06-18T09:36:49Z</time>
      </trkpt>
      <trkpt lat="43.59485" lon="6.21316">
        <ele>471.18</ele>
        <time>2016-06-18T09:36:58Z</time>
      </trkpt>
      <trkpt lat="43.59504" lon="6.21294">
        <ele>471.18</ele>
        <time>2016-06-18T09:37:13Z</time>
      </trkpt>
      <trkpt lat="43.59506" lon="6.21293">
        <ele>471.18</ele>
        <time>2016-06-18T09:37:14Z</time>
      </trkpt>
      <trkpt lat="43.59514" lon="6.21282">
        <ele>471.66</ele>
        <time>2016-06-18T09:37:22Z</time>
      </trkpt>
      <trkpt lat="43.59532" lon="6.21259">
        <ele>472.14</ele>
        <time>2016-06-18T09:37:38Z</time>
      </trkpt>
      <trkpt lat="43.59533" lon="6.21257">
        <ele>472.14</ele>
        <time>2016-06-18T09:37:40Z</time>
      </trkpt>
      <trkpt lat="43.59532" lon="6.21253">
        <ele>471.66</ele>
        <time>2016-06-18T09:37:41Z</time>
      </trkpt>
      <trkpt lat="43.59532" lon="6.21251">
        <ele>471.66</ele>
        <time>2016-06-18T09:37:42Z</time>
      </trkpt>
      <trkpt lat="43.59533" lon="6.21247">
        <ele>471.66</ele>
        <time>2016-06-18T09:37:43Z</time>
      </trkpt>
      <trkpt lat="43.59533" lon="6.21245">
        <ele>471.66</ele>
        <time>2016-06-18T09:37:44Z</time>
      </trkpt>
      <trkpt lat="43.59532" lon="6.21243">
        <ele>471.66</ele>
        <time>2016-06-18T09:37:45Z</time>
      </trkpt>
      <trkpt lat="43.59526" lon="6.21221">
        <ele>471.66</ele>
        <time>2016-06-18T09:37:59Z</time>
      </trkpt>
      <trkpt lat="43.59511" lon="6.21193">
        <ele>472.14</ele>
        <time>2016-06-18T09:38:14Z</time>
      </trkpt>
      <trkpt lat="43.5949" lon="6.21159">
        <ele>471.66</ele>
        <time>2016-06-18T09:38:34Z</time>
      </trkpt>
      <trkpt lat="43.59484" lon="6.21151">
        <ele>471.18</ele>
        <time>2016-06-18T09:38:39Z</time>
      </trkpt>
      <trkpt lat="43.59461" lon="6.21137">
        <ele>472.14</ele>
        <time>2016-06-18T09:38:54Z</time>
      </trkpt>
      <trkpt lat="43.59443" lon="6.21139">
        <ele>472.14</ele>
        <time>2016-06-18T09:39:07Z</time>
      </trkpt>
      <trkpt lat="43.59441" lon="6.2114">
        <ele>472.63</ele>
        <time>2016-06-18T09:39:08Z</time>
      </trkpt>
      <trkpt lat="43.5944" lon="6.2114">
        <ele>472.63</ele>
        <time>2016-06-18T09:39:09Z</time>
      </trkpt>
      <trkpt lat="43.59438" lon="6.21142">
        <ele>472.63</ele>
        <time>2016-06-18T09:39:10Z</time>
      </trkpt>
      <trkpt lat="43.59437" lon="6.21142">
        <ele>472.63</ele>
        <time>2016-06-18T09:39:11Z</time>
      </trkpt>
      <trkpt lat="43.59436" lon="6.21143">
        <ele>472.63</ele>
        <time>2016-06-18T09:39:12Z</time>
      </trkpt>
      <trkpt lat="43.59434" lon="6.21144">
        <ele>472.63</ele>
        <time>2016-06-18T09:39:13Z</time>
      </trkpt>
      <trkpt lat="43.59433" lon="6.21143">
        <ele>473.11</ele>
        <time>2016-06-18T09:39:14Z</time>
      </trkpt>
      <trkpt lat="43.59431" lon="6.21144">
        <ele>472.63</ele>
        <time>2016-06-18T09:39:15Z</time>
      </trkpt>
      <trkpt lat="43.59429" lon="6.21142">
        <ele>473.11</ele>
        <time>2016-06-18T09:39:17Z</time>
      </trkpt>
      <trkpt lat="43.59412" lon="6.21121">
        <ele>473.11</ele>
        <time>2016-06-18T09:39:32Z</time>
      </trkpt>
      <trkpt lat="43.59403" lon="6.21085">
        <ele>473.11</ele>
        <time>2016-06-18T09:39:47Z</time>
      </trkpt>
      <trkpt lat="43.59398" lon="6.21062">
        <ele>472.63</ele>
        <time>2016-06-18T09:39:58Z</time>
      </trkpt>
      <trkpt lat="43.59399" lon="6.2106">
        <ele>472.63</ele>
        <time>2016-06-18T09:39:59Z</time>
      </trkpt>
      <trkpt lat="43.59399" lon="6.21058">
        <ele>472.63</ele>
        <time>2016-06-18T09:40:00Z</time>
      </trkpt>
      <trkpt lat="43.594" lon="6.21055">
        <ele>472.63</ele>
        <time>2016-06-18T09:40:01Z</time>
      </trkpt>
      <trkpt lat="43.59401" lon="6.21052">
        <ele>472.63</ele>
        <time>2016-06-18T09:40:02Z</time>
      </trkpt>
      <trkpt lat="43.59412" lon="6.21036">
        <ele>472.63</ele>
        <time>2016-06-18T09:40:15Z</time>
      </trkpt>
      <trkpt lat="43.59423" lon="6.21024">
        <ele>472.14</ele>
        <time>2016-06-18T09:40:25Z</time>
      </trkpt>
      <trkpt lat="43.59421" lon="6.21001">
        <ele>472.63</ele>
        <time>2016-06-18T09:40:37Z</time>
      </trkpt>
      <trkpt lat="43.59401" lon="6.20975">
        <ele>472.63</ele>
        <time>2016-06-18T09:40:54Z</time>
      </trkpt>
      <trkpt lat="43.59376" lon="6.20957">
        <ele>472.63</ele>
        <time>2016-06-18T09:41:12Z</time>
      </trkpt>
      <trkpt lat="43.59376" lon="6.20947">
        <ele>472.14</ele>
        <time>2016-06-18T09:41:18Z</time>
      </trkpt>
      <trkpt lat="43.59377" lon="6.20945">
        <ele>472.63</ele>
        <time>2016-06-18T09:41:19Z</time>
      </trkpt>
      <trkpt lat="43.59378" lon="6.20943">
        <ele>472.63</ele>
        <time>2016-06-18T09:41:20Z</time>
      </trkpt>
      <trkpt lat="43.59379" lon="6.20941">
        <ele>472.63</ele>
        <time>2016-06-18T09:41:21Z</time>
      </trkpt>
      <trkpt lat="43.59381" lon="6.20939">
        <ele>472.14</ele>
        <time>2016-06-18T09:41:22Z</time>
      </trkpt>
      <trkpt lat="43.59399" lon="6.2092">
        <ele>470.7</ele>
        <time>2016-06-18T09:41:34Z</time>
      </trkpt>
      <trkpt lat="43.5942" lon="6.20901">
        <ele>469.74</ele>
        <time>2016-06-18T09:41:49Z</time>
      </trkpt>
      <trkpt lat="43.5944" lon="6.20886">
        <ele>468.78</ele>
        <time>2016-06-18T09:42:02Z</time>
      </trkpt>
      <trkpt lat="43.59458" lon="6.20868">
        <ele>467.82</ele>
        <time>2016-06-18T09:42:16Z</time>
      </trkpt>
      <trkpt lat="43.59468" lon="6.20844">
        <ele>467.34</ele>
        <time>2016-06-18T09:42:28Z</time>
      </trkpt>
      <trkpt lat="43.59487" lon="6.20818">
        <ele>466.86</ele>
        <time>2016-06-18T09:42:42Z</time>
      </trkpt>
      <trkpt lat="43.59502" lon="6.20796">
        <ele>466.86</ele>
        <time>2016-06-18T09:42:54Z</time>
      </trkpt>
      <trkpt lat="43.59535" lon="6.2075">
        <ele>466.86</ele>
        <time>2016-06-18T09:43:06Z</time>
      </trkpt>
      <trkpt lat="43.59569" lon="6.20718">
        <ele>468.78</ele>
        <time>2016-06-18T09:43:17Z</time>
      </trkpt>
      <trkpt lat="43.59606" lon="6.20681">
        <ele>469.74</ele>
        <time>2016-06-18T09:43:28Z</time>
      </trkpt>
      <trkpt lat="43.59648" lon="6.20626">
        <ele>470.7</ele>
        <time>2016-06-18T09:43:41Z</time>
      </trkpt>
      <trkpt lat="43.59678" lon="6.20602">
        <ele>471.18</ele>
        <time>2016-06-18T09:43:49Z</time>
      </trkpt>
      <trkpt lat="43.59694" lon="6.20589">
        <ele>470.7</ele>
        <time>2016-06-18T09:43:53Z</time>
      </trkpt>
      <trkpt lat="43.59716" lon="6.20567">
        <ele>470.7</ele>
        <time>2016-06-18T09:43:58Z</time>
      </trkpt>
      <trkpt lat="43.5972" lon="6.20562">
        <ele>471.18</ele>
        <time>2016-06-18T09:43:59Z</time>
      </trkpt>
      <trkpt lat="43.59725" lon="6.20559">
        <ele>471.18</ele>
        <time>2016-06-18T09:44:00Z</time>
      </trkpt>
      <trkpt lat="43.5973" lon="6.20557">
        <ele>471.66</ele>
        <time>2016-06-18T09:44:01Z</time>
      </trkpt>
      <trkpt lat="43.59734" lon="6.20554">
        <ele>471.66</ele>
        <time>2016-06-18T09:44:02Z</time>
      </trkpt>
      <trkpt lat="43.59738" lon="6.20552">
        <ele>471.18</ele>
        <time>2016-06-18T09:44:03Z</time>
      </trkpt>
      <trkpt lat="43.59743" lon="6.20549">
        <ele>471.18</ele>
        <time>2016-06-18T09:44:04Z</time>
      </trkpt>
      <trkpt lat="43.59748" lon="6.20546">
        <ele>471.18</ele>
        <time>2016-06-18T09:44:05Z</time>
      </trkpt>
      <trkpt lat="43.59752" lon="6.20541">
        <ele>471.66</ele>
        <time>2016-06-18T09:44:06Z</time>
      </trkpt>
      <trkpt lat="43.59787" lon="6.2051">
        <ele>471.66</ele>
        <time>2016-06-18T09:44:16Z</time>
      </trkpt>
      <trkpt lat="43.59822" lon="6.20481">
        <ele>471.66</ele>
        <time>2016-06-18T09:44:27Z</time>
      </trkpt>
      <trkpt lat="43.59848" lon="6.20461">
        <ele>471.66</ele>
        <time>2016-06-18T09:44:39Z</time>
      </trkpt>
      <trkpt lat="43.59863" lon="6.20455">
        <ele>471.18</ele>
        <time>2016-06-18T09:44:48Z</time>
      </trkpt>
      <trkpt lat="43.5987" lon="6.20456">
        <ele>471.18</ele>
        <time>2016-06-18T09:44:52Z</time>
      </trkpt>
      <trkpt lat="43.59872" lon="6.20456">
        <ele>470.7</ele>
        <time>2016-06-18T09:44:53Z</time>
      </trkpt>
      <trkpt lat="43.59894" lon="6.20458">
        <ele>469.74</ele>
        <time>2016-06-18T09:45:09Z</time>
      </trkpt>
      <trkpt lat="43.599" lon="6.20458">
        <ele>469.74</ele>
        <time>2016-06-18T09:45:13Z</time>
      </trkpt>
      <trkpt lat="43.59902" lon="6.20457">
        <ele>469.74</ele>
        <time>2016-06-18T09:45:14Z</time>
      </trkpt>
      <trkpt lat="43.59922" lon="6.2045">
        <ele>469.74</ele>
        <time>2016-06-18T09:45:27Z</time>
      </trkpt>
      <trkpt lat="43.59947" lon="6.20438">
        <ele>469.74</ele>
        <time>2016-06-18T09:45:43Z</time>
      </trkpt>
      <trkpt lat="43.59968" lon="6.2042">
        <ele>469.74</ele>
        <time>2016-06-18T09:45:58Z</time>
      </trkpt>
      <trkpt lat="43.5999" lon="6.20391">
        <ele>469.74</ele>
        <time>2016-06-18T09:46:15Z</time>
      </trkpt>
      <trkpt lat="43.60009" lon="6.20363">
        <ele>470.22</ele>
        <time>2016-06-18T09:46:30Z</time>
      </trkpt>
      <trkpt lat="43.60027" lon="6.20327">
        <ele>471.18</ele>
        <time>2016-06-18T09:46:49Z</time>
      </trkpt>
      <trkpt lat="43.60029" lon="6.20324">
        <ele>471.66</ele>
        <time>2016-06-18T09:46:51Z</time>
      </trkpt>
      <trkpt lat="43.60032" lon="6.20321">
        <ele>471.66</ele>
        <time>2016-06-18T09:46:53Z</time>
      </trkpt>
      <trkpt lat="43.60033" lon="6.20319">
        <ele>471.66</ele>
        <time>2016-06-18T09:46:54Z</time>
      </trkpt>
      <trkpt lat="43.60058" lon="6.20297">
        <ele>473.59</ele>
        <time>2016-06-18T09:47:10Z</time>
      </trkpt>
      <trkpt lat="43.60085" lon="6.20292">
        <ele>472.63</ele>
        <time>2016-06-18T09:47:26Z</time>
      </trkpt>
      <trkpt lat="43.60108" lon="6.2027">
        <ele>474.07</ele>
        <time>2016-06-18T09:47:40Z</time>
      </trkpt>
      <trkpt lat="43.60122" lon="6.20246">
        <ele>473.59</ele>
        <time>2016-06-18T09:47:53Z</time>
      </trkpt>
      <trkpt lat="43.60138" lon="6.20222">
        <ele>474.07</ele>
        <time>2016-06-18T09:48:07Z</time>
      </trkpt>
      <trkpt lat="43.60154" lon="6.20193">
        <ele>474.07</ele>
        <time>2016-06-18T09:48:23Z</time>
      </trkpt>
      <trkpt lat="43.60157" lon="6.20191">
        <ele>474.55</ele>
        <time>2016-06-18T09:48:25Z</time>
      </trkpt>
      <trkpt lat="43.60158" lon="6.20189">
        <ele>474.55</ele>
        <time>2016-06-18T09:48:26Z</time>
      </trkpt>
      <trkpt lat="43.60172" lon="6.20159">
        <ele>473.59</ele>
        <time>2016-06-18T09:48:40Z</time>
      </trkpt>
      <trkpt lat="43.60176" lon="6.20152">
        <ele>474.55</ele>
        <time>2016-06-18T09:48:44Z</time>
      </trkpt>
      <trkpt lat="43.60177" lon="6.20151">
        <ele>474.55</ele>
        <time>2016-06-18T09:48:45Z</time>
      </trkpt>
      <trkpt lat="43.60179" lon="6.20149">
        <ele>474.07</ele>
        <time>2016-06-18T09:48:46Z</time>
      </trkpt>
      <trkpt lat="43.60181" lon="6.20147">
        <ele>474.07</ele>
        <time>2016-06-18T09:48:47Z</time>
      </trkpt>
      <trkpt lat="43.60182" lon="6.20147">
        <ele>474.55</ele>
        <time>2016-06-18T09:48:48Z</time>
      </trkpt>
      <trkpt lat="43.60184" lon="6.20146">
        <ele>474.55</ele>
        <time>2016-06-18T09:48:49Z</time>
      </trkpt>
      <trkpt lat="43.60185" lon="6.20146">
        <ele>474.55</ele>
        <time>2016-06-18T09:48:50Z</time>
      </trkpt>
      <trkpt lat="43.60186" lon="6.20146">
        <ele>475.03</ele>
        <time>2016-06-18T09:48:51Z</time>
      </trkpt>
      <trkpt lat="43.60188" lon="6.20146">
        <ele>475.03</ele>
        <time>2016-06-18T09:48:52Z</time>
      </trkpt>
      <trkpt lat="43.60189" lon="6.20145">
        <ele>475.51</ele>
        <time>2016-06-18T09:48:53Z</time>
      </trkpt>
      <trkpt lat="43.60211" lon="6.20142">
        <ele>475.51</ele>
        <time>2016-06-18T09:49:08Z</time>
      </trkpt>
      <trkpt lat="43.60235" lon="6.20138">
        <ele>474.55</ele>
        <time>2016-06-18T09:49:23Z</time>
      </trkpt>
      <trkpt lat="43.60261" lon="6.20136">
        <ele>474.55</ele>
        <time>2016-06-18T09:49:38Z</time>
      </trkpt>
      <trkpt lat="43.60266" lon="6.20135">
        <ele>474.55</ele>
        <time>2016-06-18T09:49:50Z</time>
      </trkpt>
      <trkpt lat="43.60268" lon="6.20135">
        <ele>474.55</ele>
        <time>2016-06-18T09:49:52Z</time>
      </trkpt>
      <trkpt lat="43.6027" lon="6.20134">
        <ele>474.55</ele>
        <time>2016-06-18T09:49:53Z</time>
      </trkpt>
      <trkpt lat="43.60271" lon="6.20133">
        <ele>474.55</ele>
        <time>2016-06-18T09:49:54Z</time>
      </trkpt>
      <trkpt lat="43.60273" lon="6.20132">
        <ele>474.55</ele>
        <time>2016-06-18T09:49:55Z</time>
      </trkpt>
      <trkpt lat="43.60274" lon="6.20132">
        <ele>474.07</ele>
        <time>2016-06-18T09:49:56Z</time>
      </trkpt>
      <trkpt lat="43.60276" lon="6.20131">
        <ele>474.07</ele>
        <time>2016-06-18T09:49:57Z</time>
      </trkpt>
      <trkpt lat="43.60277" lon="6.2013">
        <ele>474.55</ele>
        <time>2016-06-18T09:49:58Z</time>
      </trkpt>
      <trkpt lat="43.60302" lon="6.20118">
        <ele>473.11</ele>
        <time>2016-06-18T09:50:13Z</time>
      </trkpt>
      <trkpt lat="43.60317" lon="6.20104">
        <ele>472.63</ele>
        <time>2016-06-18T09:50:24Z</time>
      </trkpt>
      <trkpt lat="43.60329" lon="6.20074">
        <ele>470.7</ele>
        <time>2016-06-18T09:50:40Z</time>
      </trkpt>
      <trkpt lat="43.60346" lon="6.20054">
        <ele>469.74</ele>
        <time>2016-06-18T09:50:54Z</time>
      </trkpt>
      <trkpt lat="43.60357" lon="6.20031">
        <ele>468.78</ele>
        <time>2016-06-18T09:51:07Z</time>
      </trkpt>
      <trkpt lat="43.60376" lon="6.20011">
        <ele>467.34</ele>
        <time>2016-06-18T09:51:21Z</time>
      </trkpt>
      <trkpt lat="43.60394" lon="6.19993">
        <ele>465.9</ele>
        <time>2016-06-18T09:51:34Z</time>
      </trkpt>
      <trkpt lat="43.6041" lon="6.19972">
        <ele>465.42</ele>
        <time>2016-06-18T09:51:48Z</time>
      </trkpt>
      <trkpt lat="43.60424" lon="6.19956">
        <ele>466.86</ele>
        <time>2016-06-18T09:52:00Z</time>
      </trkpt>
      <trkpt lat="43.60445" lon="6.19935">
        <ele>467.82</ele>
        <time>2016-06-18T09:52:17Z</time>
      </trkpt>
      <trkpt lat="43.60466" lon="6.19913">
        <ele>467.82</ele>
        <time>2016-06-18T09:52:32Z</time>
      </trkpt>
      <trkpt lat="43.60486" lon="6.19888">
        <ele>467.82</ele>
        <time>2016-06-18T09:52:49Z</time>
      </trkpt>
      <trkpt lat="43.60504" lon="6.19881">
        <ele>468.78</ele>
        <time>2016-06-18T09:53:03Z</time>
      </trkpt>
      <trkpt lat="43.60523" lon="6.19879">
        <ele>469.26</ele>
        <time>2016-06-18T09:53:19Z</time>
      </trkpt>
      <trkpt lat="43.60543" lon="6.1987">
        <ele>468.78</ele>
        <time>2016-06-18T09:53:32Z</time>
      </trkpt>
      <trkpt lat="43.6058" lon="6.19849">
        <ele>467.34</ele>
        <time>2016-06-18T09:53:43Z</time>
      </trkpt>
      <trkpt lat="43.60609" lon="6.19834">
        <ele>466.86</ele>
        <time>2016-06-18T09:53:50Z</time>
      </trkpt>
      <trkpt lat="43.60623" lon="6.19825">
        <ele>466.38</ele>
        <time>2016-06-18T09:53:53Z</time>
      </trkpt>
      <trkpt lat="43.60628" lon="6.19822">
        <ele>466.38</ele>
        <time>2016-06-18T09:53:54Z</time>
      </trkpt>
      <trkpt lat="43.60632" lon="6.19817">
        <ele>465.9</ele>
        <time>2016-06-18T09:53:55Z</time>
      </trkpt>
      <trkpt lat="43.6064" lon="6.19807">
        <ele>464.93</ele>
        <time>2016-06-18T09:53:57Z</time>
      </trkpt>
      <trkpt lat="43.60648" lon="6.19794">
        <ele>465.42</ele>
        <time>2016-06-18T09:53:59Z</time>
      </trkpt>
      <trkpt lat="43.6068" lon="6.19757">
        <ele>464.45</ele>
        <time>2016-06-18T09:54:06Z</time>
      </trkpt>
      <trkpt lat="43.60684" lon="6.19752">
        <ele>464.45</ele>
        <time>2016-06-18T09:54:07Z</time>
      </trkpt>
      <trkpt lat="43.60697" lon="6.19736">
        <ele>465.42</ele>
        <time>2016-06-18T09:54:10Z</time>
      </trkpt>
      <trkpt lat="43.60701" lon="6.19731">
        <ele>464.93</ele>
        <time>2016-06-18T09:54:11Z</time>
      </trkpt>
      <trkpt lat="43.60705" lon="6.19725">
        <ele>464.93</ele>
        <time>2016-06-18T09:54:12Z</time>
      </trkpt>
      <trkpt lat="43.60736" lon="6.19694">
        <ele>464.93</ele>
        <time>2016-06-18T09:54:21Z</time>
      </trkpt>
      <trkpt lat="43.6076" lon="6.19682">
        <ele>463.97</ele>
        <time>2016-06-18T09:54:34Z</time>
      </trkpt>
      <trkpt lat="43.60779" lon="6.19669">
        <ele>462.05</ele>
        <time>2016-06-18T09:54:47Z</time>
      </trkpt>
      <trkpt lat="43.6078" lon="6.19668">
        <ele>462.05</ele>
        <time>2016-06-18T09:54:48Z</time>
      </trkpt>
      <trkpt lat="43.60783" lon="6.19667">
        <ele>462.05</ele>
        <time>2016-06-18T09:54:50Z</time>
      </trkpt>
      <trkpt lat="43.60784" lon="6.19666">
        <ele>462.05</ele>
        <time>2016-06-18T09:54:51Z</time>
      </trkpt>
      <trkpt lat="43.60786" lon="6.19665">
        <ele>462.05</ele>
        <time>2016-06-18T09:54:52Z</time>
      </trkpt>
      <trkpt lat="43.60788" lon="6.19665">
        <ele>462.05</ele>
        <time>2016-06-18T09:54:53Z</time>
      </trkpt>
      <trkpt lat="43.60789" lon="6.19664">
        <ele>462.05</ele>
        <time>2016-06-18T09:54:54Z</time>
      </trkpt>
      <trkpt lat="43.60791" lon="6.19663">
        <ele>461.57</ele>
        <time>2016-06-18T09:54:55Z</time>
      </trkpt>
      <trkpt lat="43.60792" lon="6.19663">
        <ele>461.57</ele>
        <time>2016-06-18T09:54:56Z</time>
      </trkpt>
      <trkpt lat="43.60794" lon="6.19662">
        <ele>461.57</ele>
        <time>2016-06-18T09:54:57Z</time>
      </trkpt>
      <trkpt lat="43.60795" lon="6.19661">
        <ele>461.57</ele>
        <time>2016-06-18T09:54:58Z</time>
      </trkpt>
      <trkpt lat="43.60797" lon="6.1966">
        <ele>461.57</ele>
        <time>2016-06-18T09:54:59Z</time>
      </trkpt>
      <trkpt lat="43.60798" lon="6.19658">
        <ele>461.57</ele>
        <time>2016-06-18T09:55:00Z</time>
      </trkpt>
      <trkpt lat="43.608" lon="6.19657">
        <ele>461.09</ele>
        <time>2016-06-18T09:55:01Z</time>
      </trkpt>
      <trkpt lat="43.60802" lon="6.19655">
        <ele>461.57</ele>
        <time>2016-06-18T09:55:02Z</time>
      </trkpt>
      <trkpt lat="43.60803" lon="6.19654">
        <ele>461.09</ele>
        <time>2016-06-18T09:55:03Z</time>
      </trkpt>
      <trkpt lat="43.60822" lon="6.19631">
        <ele>460.13</ele>
        <time>2016-06-18T09:55:18Z</time>
      </trkpt>
      <trkpt lat="43.60828" lon="6.1962">
        <ele>459.65</ele>
        <time>2016-06-18T09:55:24Z</time>
      </trkpt>
      <trkpt lat="43.60829" lon="6.19618">
        <ele>459.65</ele>
        <time>2016-06-18T09:55:25Z</time>
      </trkpt>
      <trkpt lat="43.6083" lon="6.19617">
        <ele>459.65</ele>
        <time>2016-06-18T09:55:26Z</time>
      </trkpt>
      <trkpt lat="43.60831" lon="6.19615">
        <ele>459.17</ele>
        <time>2016-06-18T09:55:27Z</time>
      </trkpt>
      <trkpt lat="43.60832" lon="6.19613">
        <ele>459.65</ele>
        <time>2016-06-18T09:55:28Z</time>
      </trkpt>
      <trkpt lat="43.60833" lon="6.19612">
        <ele>459.65</ele>
        <time>2016-06-18T09:55:29Z</time>
      </trkpt>
      <trkpt lat="43.60851" lon="6.19588">
        <ele>459.17</ele>
        <time>2016-06-18T09:55:42Z</time>
      </trkpt>
      <trkpt lat="43.60852" lon="6.19586">
        <ele>459.17</ele>
        <time>2016-06-18T09:55:43Z</time>
      </trkpt>
      <trkpt lat="43.60853" lon="6.19584">
        <ele>459.17</ele>
        <time>2016-06-18T09:55:44Z</time>
      </trkpt>
      <trkpt lat="43.60876" lon="6.19562">
        <ele>458.21</ele>
        <time>2016-06-18T09:56:00Z</time>
      </trkpt>
      <trkpt lat="43.60895" lon="6.19548">
        <ele>458.21</ele>
        <time>2016-06-18T09:56:13Z</time>
      </trkpt>
      <trkpt lat="43.60915" lon="6.19532">
        <ele>457.24</ele>
        <time>2016-06-18T09:56:29Z</time>
      </trkpt>
      <trkpt lat="43.60935" lon="6.19521">
        <ele>456.28</ele>
        <time>2016-06-18T09:56:44Z</time>
      </trkpt>
      <trkpt lat="43.60956" lon="6.19507">
        <ele>456.28</ele>
        <time>2016-06-18T09:56:58Z</time>
      </trkpt>
      <trkpt lat="43.60974" lon="6.19484">
        <ele>456.28</ele>
        <time>2016-06-18T09:57:12Z</time>
      </trkpt>
      <trkpt lat="43.6099" lon="6.19457">
        <ele>455.32</ele>
        <time>2016-06-18T09:57:26Z</time>
      </trkpt>
      <trkpt lat="43.60997" lon="6.19426">
        <ele>454.84</ele>
        <time>2016-06-18T09:57:37Z</time>
      </trkpt>
      <trkpt lat="43.61005" lon="6.19389">
        <ele>455.32</ele>
        <time>2016-06-18T09:57:48Z</time>
      </trkpt>
      <trkpt lat="43.61028" lon="6.19352">
        <ele>456.28</ele>
        <time>2016-06-18T09:57:59Z</time>
      </trkpt>
      <trkpt lat="43.61062" lon="6.19321">
        <ele>456.28</ele>
        <time>2016-06-18T09:58:11Z</time>
      </trkpt>
      <trkpt lat="43.61073" lon="6.19318">
        <ele>455.32</ele>
        <time>2016-06-18T09:58:16Z</time>
      </trkpt>
      <trkpt lat="43.61077" lon="6.19319">
        <ele>455.32</ele>
        <time>2016-06-18T09:58:17Z</time>
      </trkpt>
      <trkpt lat="43.61079" lon="6.19319">
        <ele>455.32</ele>
        <time>2016-06-18T09:58:18Z</time>
      </trkpt>
      <trkpt lat="43.6108" lon="6.1932">
        <ele>455.32</ele>
        <time>2016-06-18T09:58:19Z</time>
      </trkpt>
      <trkpt lat="43.61081" lon="6.19321">
        <ele>454.84</ele>
        <time>2016-06-18T09:58:20Z</time>
      </trkpt>
      <trkpt lat="43.61083" lon="6.19322">
        <ele>454.84</ele>
        <time>2016-06-18T09:58:21Z</time>
      </trkpt>
      <trkpt lat="43.61103" lon="6.1933">
        <ele>453.4</ele>
        <time>2016-06-18T09:58:34Z</time>
      </trkpt>
      <trkpt lat="43.61109" lon="6.19331">
        <ele>452.92</ele>
        <time>2016-06-18T09:58:39Z</time>
      </trkpt>
      <trkpt lat="43.6111" lon="6.1933">
        <ele>452.92</ele>
        <time>2016-06-18T09:58:40Z</time>
      </trkpt>
      <trkpt lat="43.61128" lon="6.19316">
        <ele>450.52</ele>
        <time>2016-06-18T09:58:53Z</time>
      </trkpt>
      <trkpt lat="43.61143" lon="6.1931">
        <ele>448.59</ele>
        <time>2016-06-18T09:59:04Z</time>
      </trkpt>
      <trkpt lat="43.61166" lon="6.19312">
        <ele>446.67</ele>
        <time>2016-06-18T09:59:17Z</time>
      </trkpt>
      <trkpt lat="43.61182" lon="6.19332">
        <ele>445.71</ele>
        <time>2016-06-18T09:59:29Z</time>
      </trkpt>
      <trkpt lat="43.61198" lon="6.19346">
        <ele>445.71</ele>
        <time>2016-06-18T09:59:39Z</time>
      </trkpt>
      <trkpt lat="43.61217" lon="6.19335">
        <ele>446.19</ele>
        <time>2016-06-18T09:59:53Z</time>
      </trkpt>
      <trkpt lat="43.61226" lon="6.19326">
        <ele>446.19</ele>
        <time>2016-06-18T10:00:00Z</time>
      </trkpt>
      <trkpt lat="43.61227" lon="6.19325">
        <ele>445.71</ele>
        <time>2016-06-18T10:00:01Z</time>
      </trkpt>
      <trkpt lat="43.6123" lon="6.1932">
        <ele>445.71</ele>
        <time>2016-06-18T10:00:04Z</time>
      </trkpt>
      <trkpt lat="43.61231" lon="6.19318">
        <ele>445.71</ele>
        <time>2016-06-18T10:00:05Z</time>
      </trkpt>
      <trkpt lat="43.61232" lon="6.19316">
        <ele>445.71</ele>
        <time>2016-06-18T10:00:06Z</time>
      </trkpt>
      <trkpt lat="43.61233" lon="6.19315">
        <ele>445.71</ele>
        <time>2016-06-18T10:00:07Z</time>
      </trkpt>
      <trkpt lat="43.61234" lon="6.19313">
        <ele>445.23</ele>
        <time>2016-06-18T10:00:08Z</time>
      </trkpt>
      <trkpt lat="43.61235" lon="6.19311">
        <ele>445.71</ele>
        <time>2016-06-18T10:00:09Z</time>
      </trkpt>
      <trkpt lat="43.61244" lon="6.19289">
        <ele>444.75</ele>
        <time>2016-06-18T10:00:21Z</time>
      </trkpt>
      <trkpt lat="43.6126" lon="6.19267">
        <ele>443.79</ele>
        <time>2016-06-18T10:00:35Z</time>
      </trkpt>
      <trkpt lat="43.61279" lon="6.1925">
        <ele>442.82</ele>
        <time>2016-06-18T10:00:49Z</time>
      </trkpt>
      <trkpt lat="43.61301" lon="6.19241">
        <ele>442.34</ele>
        <time>2016-06-18T10:01:04Z</time>
      </trkpt>
      <trkpt lat="43.61318" lon="6.19231">
        <ele>441.86</ele>
        <time>2016-06-18T10:01:16Z</time>
      </trkpt>
      <trkpt lat="43.61319" lon="6.1923">
        <ele>442.34</ele>
        <time>2016-06-18T10:01:17Z</time>
      </trkpt>
      <trkpt lat="43.61321" lon="6.19229">
        <ele>441.86</ele>
        <time>2016-06-18T10:01:18Z</time>
      </trkpt>
      <trkpt lat="43.61343" lon="6.19223">
        <ele>441.38</ele>
        <time>2016-06-18T10:01:30Z</time>
      </trkpt>
      <trkpt lat="43.61361" lon="6.19223">
        <ele>441.86</ele>
        <time>2016-06-18T10:01:40Z</time>
      </trkpt>
      <trkpt lat="43.61362" lon="6.19222">
        <ele>441.38</ele>
        <time>2016-06-18T10:01:41Z</time>
      </trkpt>
      <trkpt lat="43.61382" lon="6.19216">
        <ele>440.9</ele>
        <time>2016-06-18T10:01:54Z</time>
      </trkpt>
      <trkpt lat="43.61398" lon="6.19211">
        <ele>440.42</ele>
        <time>2016-06-18T10:02:04Z</time>
      </trkpt>
      <trkpt lat="43.61399" lon="6.19211">
        <ele>440.42</ele>
        <time>2016-06-18T10:02:05Z</time>
      </trkpt>
      <trkpt lat="43.61425" lon="6.19205">
        <ele>439.46</ele>
        <time>2016-06-18T10:02:20Z</time>
      </trkpt>
      <trkpt lat="43.6145" lon="6.19199">
        <ele>438.02</ele>
        <time>2016-06-18T10:02:35Z</time>
      </trkpt>
      <trkpt lat="43.61474" lon="6.19192">
        <ele>436.1</ele>
        <time>2016-06-18T10:02:49Z</time>
      </trkpt>
      <trkpt lat="43.615" lon="6.19189">
        <ele>435.13</ele>
        <time>2016-06-18T10:03:03Z</time>
      </trkpt>
      <trkpt lat="43.61514" lon="6.19183">
        <ele>435.61</ele>
        <time>2016-06-18T10:03:12Z</time>
      </trkpt>
      <trkpt lat="43.6152" lon="6.19175">
        <ele>434.17</ele>
        <time>2016-06-18T10:03:17Z</time>
      </trkpt>
      <trkpt lat="43.61537" lon="6.19161">
        <ele>430.81</ele>
        <time>2016-06-18T10:03:29Z</time>
      </trkpt>
      <trkpt lat="43.61538" lon="6.1916">
        <ele>430.81</ele>
        <time>2016-06-18T10:03:30Z</time>
      </trkpt>
      <trkpt lat="43.6154" lon="6.19159">
        <ele>430.81</ele>
        <time>2016-06-18T10:03:31Z</time>
      </trkpt>
      <trkpt lat="43.61541" lon="6.19157">
        <ele>430.81</ele>
        <time>2016-06-18T10:03:32Z</time>
      </trkpt>
      <trkpt lat="43.61542" lon="6.19156">
        <ele>430.81</ele>
        <time>2016-06-18T10:03:33Z</time>
      </trkpt>
      <trkpt lat="43.61543" lon="6.19155">
        <ele>430.81</ele>
        <time>2016-06-18T10:03:34Z</time>
      </trkpt>
      <trkpt lat="43.61544" lon="6.19153">
        <ele>430.81</ele>
        <time>2016-06-18T10:03:35Z</time>
      </trkpt>
      <trkpt lat="43.6156" lon="6.19138">
        <ele>429.85</ele>
        <time>2016-06-18T10:03:48Z</time>
      </trkpt>
      <trkpt lat="43.61561" lon="6.19138">
        <ele>429.85</ele>
        <time>2016-06-18T10:03:49Z</time>
      </trkpt>
      <trkpt lat="43.61562" lon="6.19138">
        <ele>429.85</ele>
        <time>2016-06-18T10:03:50Z</time>
      </trkpt>
      <trkpt lat="43.61584" lon="6.19123">
        <ele>432.25</ele>
        <time>2016-06-18T10:04:03Z</time>
      </trkpt>
      <trkpt lat="43.61595" lon="6.19104">
        <ele>433.21</ele>
        <time>2016-06-18T10:04:13Z</time>
      </trkpt>
      <trkpt lat="43.61596" lon="6.19101">
        <ele>433.21</ele>
        <time>2016-06-18T10:04:14Z</time>
      </trkpt>
      <trkpt lat="43.61609" lon="6.19085">
        <ele>432.73</ele>
        <time>2016-06-18T10:04:23Z</time>
      </trkpt>
      <trkpt lat="43.61628" lon="6.19068">
        <ele>433.69</ele>
        <time>2016-06-18T10:04:37Z</time>
      </trkpt>
      <trkpt lat="43.61649" lon="6.19047">
        <ele>433.69</ele>
        <time>2016-06-18T10:04:52Z</time>
      </trkpt>
      <trkpt lat="43.61672" lon="6.19029">
        <ele>434.17</ele>
        <time>2016-06-18T10:05:08Z</time>
      </trkpt>
      <trkpt lat="43.61692" lon="6.1901">
        <ele>435.61</ele>
        <time>2016-06-18T10:05:23Z</time>
      </trkpt>
      <trkpt lat="43.61711" lon="6.18991">
        <ele>437.06</ele>
        <time>2016-06-18T10:05:37Z</time>
      </trkpt>
      <trkpt lat="43.6173" lon="6.18975">
        <ele>437.54</ele>
        <time>2016-06-18T10:05:51Z</time>
      </trkpt>
      <trkpt lat="43.61754" lon="6.18956">
        <ele>438.02</ele>
        <time>2016-06-18T10:06:03Z</time>
      </trkpt>
      <trkpt lat="43.61783" lon="6.18942">
        <ele>438.02</ele>
        <time>2016-06-18T10:06:09Z</time>
      </trkpt>
      <trkpt lat="43.61833" lon="6.18903">
        <ele>438.98</ele>
        <time>2016-06-18T10:06:21Z</time>
      </trkpt>
      <trkpt lat="43.6185" lon="6.18891">
        <ele>439.46</ele>
        <time>2016-06-18T10:06:25Z</time>
      </trkpt>
      <trkpt lat="43.61888" lon="6.18872">
        <ele>438.5</ele>
        <time>2016-06-18T10:06:33Z</time>
      </trkpt>
      <trkpt lat="43.61904" lon="6.18863">
        <ele>437.06</ele>
        <time>2016-06-18T10:06:36Z</time>
      </trkpt>
      <trkpt lat="43.61923" lon="6.18847">
        <ele>437.54</ele>
        <time>2016-06-18T10:06:40Z</time>
      </trkpt>
      <trkpt lat="43.61931" lon="6.18838">
        <ele>438.02</ele>
        <time>2016-06-18T10:06:42Z</time>
      </trkpt>
      <trkpt lat="43.61935" lon="6.18834">
        <ele>438.02</ele>
        <time>2016-06-18T10:06:43Z</time>
      </trkpt>
      <trkpt lat="43.61939" lon="6.18831">
        <ele>438.02</ele>
        <time>2016-06-18T10:06:44Z</time>
      </trkpt>
      <trkpt lat="43.61957" lon="6.1882">
        <ele>439.94</ele>
        <time>2016-06-18T10:06:48Z</time>
      </trkpt>
      <trkpt lat="43.61994" lon="6.18805">
        <ele>440.9</ele>
        <time>2016-06-18T10:06:57Z</time>
      </trkpt>
      <trkpt lat="43.62014" lon="6.18796">
        <ele>441.86</ele>
        <time>2016-06-18T10:07:04Z</time>
      </trkpt>
      <trkpt lat="43.62015" lon="6.18795">
        <ele>441.86</ele>
        <time>2016-06-18T10:07:05Z</time>
      </trkpt>
      <trkpt lat="43.62016" lon="6.18795">
        <ele>441.86</ele>
        <time>2016-06-18T10:07:06Z</time>
      </trkpt>
      <trkpt lat="43.62018" lon="6.18794">
        <ele>441.86</ele>
        <time>2016-06-18T10:07:07Z</time>
      </trkpt>
      <trkpt lat="43.62019" lon="6.18794">
        <ele>441.86</ele>
        <time>2016-06-18T10:07:08Z</time>
      </trkpt>
      <trkpt lat="43.62021" lon="6.18793">
        <ele>441.38</ele>
        <time>2016-06-18T10:07:09Z</time>
      </trkpt>
      <trkpt lat="43.62023" lon="6.18792">
        <ele>441.86</ele>
        <time>2016-06-18T10:07:10Z</time>
      </trkpt>
      <trkpt lat="43.62024" lon="6.18791">
        <ele>441.86</ele>
        <time>2016-06-18T10:07:11Z</time>
      </trkpt>
      <trkpt lat="43.62025" lon="6.1879">
        <ele>441.86</ele>
        <time>2016-06-18T10:07:12Z</time>
      </trkpt>
      <trkpt lat="43.62027" lon="6.1879">
        <ele>441.86</ele>
        <time>2016-06-18T10:07:13Z</time>
      </trkpt>
      <trkpt lat="43.62028" lon="6.18789">
        <ele>441.86</ele>
        <time>2016-06-18T10:07:14Z</time>
      </trkpt>
      <trkpt lat="43.62034" lon="6.18792">
        <ele>442.34</ele>
        <time>2016-06-18T10:07:19Z</time>
      </trkpt>
      <trkpt lat="43.62038" lon="6.18795">
        <ele>442.34</ele>
        <time>2016-06-18T10:07:21Z</time>
      </trkpt>
      <trkpt lat="43.62039" lon="6.18797">
        <ele>441.86</ele>
        <time>2016-06-18T10:07:22Z</time>
      </trkpt>
      <trkpt lat="43.62039" lon="6.18799">
        <ele>441.86</ele>
        <time>2016-06-18T10:07:23Z</time>
      </trkpt>
      <trkpt lat="43.62038" lon="6.188">
        <ele>441.86</ele>
        <time>2016-06-18T10:07:24Z</time>
      </trkpt>
      <trkpt lat="43.62037" lon="6.18801">
        <ele>441.86</ele>
        <time>2016-06-18T10:07:25Z</time>
      </trkpt>
      <trkpt lat="43.62039" lon="6.188">
        <ele>441.86</ele>
        <time>2016-06-18T10:07:33Z</time>
      </trkpt>
      <trkpt lat="43.62041" lon="6.18802">
        <ele>441.86</ele>
        <time>2016-06-18T10:07:35Z</time>
      </trkpt>
      <trkpt lat="43.62041" lon="6.18804">
        <ele>441.86</ele>
        <time>2016-06-18T10:07:36Z</time>
      </trkpt>
      <trkpt lat="43.62042" lon="6.18807">
        <ele>441.86</ele>
        <time>2016-06-18T10:07:43Z</time>
      </trkpt>
      <trkpt lat="43.62043" lon="6.18808">
        <ele>441.86</ele>
        <time>2016-06-18T10:07:44Z</time>
      </trkpt>
      <trkpt lat="43.62044" lon="6.18808">
        <ele>441.86</ele>
        <time>2016-06-18T10:07:54Z</time>
      </trkpt>
      <trkpt lat="43.62042" lon="6.18805">
        <ele>442.34</ele>
        <time>2016-06-18T10:08:09Z</time>
      </trkpt>
      <trkpt lat="43.6204" lon="6.18805">
        <ele>441.38</ele>
        <time>2016-06-18T10:08:21Z</time>
      </trkpt>
      <trkpt lat="43.62042" lon="6.18806">
        <ele>441.38</ele>
        <time>2016-06-18T10:08:23Z</time>
      </trkpt>
      <trkpt lat="43.62044" lon="6.18804">
        <ele>442.34</ele>
        <time>2016-06-18T10:08:37Z</time>
      </trkpt>
      <trkpt lat="43.6204" lon="6.18805">
        <ele>442.34</ele>
        <time>2016-06-18T10:08:48Z</time>
      </trkpt>
      <trkpt lat="43.62039" lon="6.18806">
        <ele>442.34</ele>
        <time>2016-06-18T10:09:03Z</time>
      </trkpt>
      <trkpt lat="43.62039" lon="6.18798">
        <ele>442.34</ele>
        <time>2016-06-18T10:09:21Z</time>
      </trkpt>
      <trkpt lat="43.6204" lon="6.18796">
        <ele>442.34</ele>
        <time>2016-06-18T10:09:22Z</time>
      </trkpt>
      <trkpt lat="43.62041" lon="6.18795">
        <ele>442.34</ele>
        <time>2016-06-18T10:09:23Z</time>
      </trkpt>
      <trkpt lat="43.62041" lon="6.18792">
        <ele>442.34</ele>
        <time>2016-06-18T10:09:24Z</time>
      </trkpt>
      <trkpt lat="43.62041" lon="6.1879">
        <ele>442.34</ele>
        <time>2016-06-18T10:09:25Z</time>
      </trkpt>
      <trkpt lat="43.62042" lon="6.18787">
        <ele>442.34</ele>
        <time>2016-06-18T10:09:26Z</time>
      </trkpt>
      <trkpt lat="43.62042" lon="6.18785">
        <ele>442.34</ele>
        <time>2016-06-18T10:09:27Z</time>
      </trkpt>
      <trkpt lat="43.62043" lon="6.18782">
        <ele>442.34</ele>
        <time>2016-06-18T10:09:28Z</time>
      </trkpt>
      <trkpt lat="43.62043" lon="6.1878">
        <ele>442.82</ele>
        <time>2016-06-18T10:09:29Z</time>
      </trkpt>
      <trkpt lat="43.62056" lon="6.18761">
        <ele>442.82</ele>
        <time>2016-06-18T10:09:43Z</time>
      </trkpt>
      <trkpt lat="43.62078" lon="6.18746">
        <ele>443.31</ele>
        <time>2016-06-18T10:09:56Z</time>
      </trkpt>
      <trkpt lat="43.62105" lon="6.18728">
        <ele>443.79</ele>
        <time>2016-06-18T10:10:14Z</time>
      </trkpt>
      <trkpt lat="43.62109" lon="6.18727">
        <ele>444.27</ele>
        <time>2016-06-18T10:10:18Z</time>
      </trkpt>
      <trkpt lat="43.6211" lon="6.18726">
        <ele>443.79</ele>
        <time>2016-06-18T10:10:19Z</time>
      </trkpt>
      <trkpt lat="43.62112" lon="6.18726">
        <ele>443.79</ele>
        <time>2016-06-18T10:10:20Z</time>
      </trkpt>
      <trkpt lat="43.62113" lon="6.18725">
        <ele>443.79</ele>
        <time>2016-06-18T10:10:21Z</time>
      </trkpt>
      <trkpt lat="43.62114" lon="6.18724">
        <ele>444.27</ele>
        <time>2016-06-18T10:10:22Z</time>
      </trkpt>
      <trkpt lat="43.62115" lon="6.18724">
        <ele>444.27</ele>
        <time>2016-06-18T10:10:23Z</time>
      </trkpt>
      <trkpt lat="43.6213" lon="6.18713">
        <ele>443.79</ele>
        <time>2016-06-18T10:10:33Z</time>
      </trkpt>
      <trkpt lat="43.62131" lon="6.18712">
        <ele>443.79</ele>
        <time>2016-06-18T10:10:34Z</time>
      </trkpt>
      <trkpt lat="43.62152" lon="6.18697">
        <ele>444.27</ele>
        <time>2016-06-18T10:10:48Z</time>
      </trkpt>
      <trkpt lat="43.62166" lon="6.18687">
        <ele>444.75</ele>
        <time>2016-06-18T10:10:58Z</time>
      </trkpt>
      <trkpt lat="43.62183" lon="6.18678">
        <ele>444.75</ele>
        <time>2016-06-18T10:11:08Z</time>
      </trkpt>
      <trkpt lat="43.62203" lon="6.18666">
        <ele>445.23</ele>
        <time>2016-06-18T10:11:20Z</time>
      </trkpt>
      <trkpt lat="43.62214" lon="6.18658">
        <ele>445.23</ele>
        <time>2016-06-18T10:11:26Z</time>
      </trkpt>
      <trkpt lat="43.62216" lon="6.18657">
        <ele>445.23</ele>
        <time>2016-06-18T10:11:27Z</time>
      </trkpt>
      <trkpt lat="43.62217" lon="6.18655">
        <ele>444.75</ele>
        <time>2016-06-18T10:11:28Z</time>
      </trkpt>
      <trkpt lat="43.62221" lon="6.18652">
        <ele>444.75</ele>
        <time>2016-06-18T10:11:31Z</time>
      </trkpt>
      <trkpt lat="43.62233" lon="6.18642">
        <ele>444.75</ele>
        <time>2016-06-18T10:11:39Z</time>
      </trkpt>
      <trkpt lat="43.62235" lon="6.18642">
        <ele>444.75</ele>
        <time>2016-06-18T10:11:40Z</time>
      </trkpt>
      <trkpt lat="43.62237" lon="6.18642">
        <ele>444.75</ele>
        <time>2016-06-18T10:11:41Z</time>
      </trkpt>
      <trkpt lat="43.62239" lon="6.18641">
        <ele>444.75</ele>
        <time>2016-06-18T10:11:42Z</time>
      </trkpt>
      <trkpt lat="43.6224" lon="6.18639">
        <ele>444.75</ele>
        <time>2016-06-18T10:11:43Z</time>
      </trkpt>
      <trkpt lat="43.62242" lon="6.18638">
        <ele>444.75</ele>
        <time>2016-06-18T10:11:44Z</time>
      </trkpt>
      <trkpt lat="43.62247" lon="6.18634">
        <ele>444.27</ele>
        <time>2016-06-18T10:11:47Z</time>
      </trkpt>
      <trkpt lat="43.62248" lon="6.18633">
        <ele>444.75</ele>
        <time>2016-06-18T10:11:48Z</time>
      </trkpt>
      <trkpt lat="43.6225" lon="6.18633">
        <ele>444.75</ele>
        <time>2016-06-18T10:11:49Z</time>
      </trkpt>
      <trkpt lat="43.62251" lon="6.18631">
        <ele>444.75</ele>
        <time>2016-06-18T10:11:50Z</time>
      </trkpt>
      <trkpt lat="43.62252" lon="6.18629">
        <ele>444.75</ele>
        <time>2016-06-18T10:11:51Z</time>
      </trkpt>
      <trkpt lat="43.62253" lon="6.18627">
        <ele>445.23</ele>
        <time>2016-06-18T10:11:52Z</time>
      </trkpt>
      <trkpt lat="43.6227" lon="6.18614">
        <ele>444.75</ele>
        <time>2016-06-18T10:12:04Z</time>
      </trkpt>
      <trkpt lat="43.62286" lon="6.18598">
        <ele>444.75</ele>
        <time>2016-06-18T10:12:17Z</time>
      </trkpt>
      <trkpt lat="43.6229" lon="6.18594">
        <ele>444.75</ele>
        <time>2016-06-18T10:12:21Z</time>
      </trkpt>
      <trkpt lat="43.62305" lon="6.18581">
        <ele>444.75</ele>
        <time>2016-06-18T10:12:34Z</time>
      </trkpt>
      <trkpt lat="43.62312" lon="6.18577">
        <ele>444.75</ele>
        <time>2016-06-18T10:12:39Z</time>
      </trkpt>
      <trkpt lat="43.62314" lon="6.18577">
        <ele>444.75</ele>
        <time>2016-06-18T10:12:40Z</time>
      </trkpt>
      <trkpt lat="43.62317" lon="6.18576">
        <ele>444.75</ele>
        <time>2016-06-18T10:12:41Z</time>
      </trkpt>
      <trkpt lat="43.62319" lon="6.18574">
        <ele>444.27</ele>
        <time>2016-06-18T10:12:42Z</time>
      </trkpt>
      <trkpt lat="43.62321" lon="6.18573">
        <ele>444.27</ele>
        <time>2016-06-18T10:12:43Z</time>
      </trkpt>
      <trkpt lat="43.62333" lon="6.1856">
        <ele>444.27</ele>
        <time>2016-06-18T10:12:52Z</time>
      </trkpt>
      <trkpt lat="43.62333" lon="6.18558">
        <ele>444.27</ele>
        <time>2016-06-18T10:12:53Z</time>
      </trkpt>
      <trkpt lat="43.62344" lon="6.18543">
        <ele>444.75</ele>
        <time>2016-06-18T10:13:04Z</time>
      </trkpt>
      <trkpt lat="43.62361" lon="6.18521">
        <ele>444.75</ele>
        <time>2016-06-18T10:13:17Z</time>
      </trkpt>
      <trkpt lat="43.62367" lon="6.18514">
        <ele>444.75</ele>
        <time>2016-06-18T10:13:21Z</time>
      </trkpt>
      <trkpt lat="43.62369" lon="6.18512">
        <ele>444.27</ele>
        <time>2016-06-18T10:13:22Z</time>
      </trkpt>
      <trkpt lat="43.62371" lon="6.18511">
        <ele>444.27</ele>
        <time>2016-06-18T10:13:23Z</time>
      </trkpt>
      <trkpt lat="43.62373" lon="6.18509">
        <ele>444.75</ele>
        <time>2016-06-18T10:13:24Z</time>
      </trkpt>
      <trkpt lat="43.62375" lon="6.18508">
        <ele>444.27</ele>
        <time>2016-06-18T10:13:25Z</time>
      </trkpt>
      <trkpt lat="43.62377" lon="6.18507">
        <ele>444.27</ele>
        <time>2016-06-18T10:13:26Z</time>
      </trkpt>
      <trkpt lat="43.6238" lon="6.18507">
        <ele>444.27</ele>
        <time>2016-06-18T10:13:27Z</time>
      </trkpt>
      <trkpt lat="43.62382" lon="6.18506">
        <ele>444.27</ele>
        <time>2016-06-18T10:13:28Z</time>
      </trkpt>
      <trkpt lat="43.62384" lon="6.18506">
        <ele>443.79</ele>
        <time>2016-06-18T10:13:29Z</time>
      </trkpt>
      <trkpt lat="43.62385" lon="6.18507">
        <ele>444.27</ele>
        <time>2016-06-18T10:13:30Z</time>
      </trkpt>
      <trkpt lat="43.62386" lon="6.18508">
        <ele>444.75</ele>
        <time>2016-06-18T10:13:31Z</time>
      </trkpt>
      <trkpt lat="43.62404" lon="6.1852">
        <ele>445.23</ele>
        <time>2016-06-18T10:13:45Z</time>
      </trkpt>
      <trkpt lat="43.62422" lon="6.1854">
        <ele>445.71</ele>
        <time>2016-06-18T10:13:59Z</time>
      </trkpt>
      <trkpt lat="43.62432" lon="6.18571">
        <ele>445.71</ele>
        <time>2016-06-18T10:14:14Z</time>
      </trkpt>
      <trkpt lat="43.62439" lon="6.18596">
        <ele>446.19</ele>
        <time>2016-06-18T10:14:26Z</time>
      </trkpt>
      <trkpt lat="43.62457" lon="6.18619">
        <ele>446.19</ele>
        <time>2016-06-18T10:14:40Z</time>
      </trkpt>
      <trkpt lat="43.62476" lon="6.18633">
        <ele>447.15</ele>
        <time>2016-06-18T10:14:54Z</time>
      </trkpt>
      <trkpt lat="43.62496" lon="6.18653">
        <ele>447.15</ele>
        <time>2016-06-18T10:15:10Z</time>
      </trkpt>
      <trkpt lat="43.62497" lon="6.18654">
        <ele>447.15</ele>
        <time>2016-06-18T10:15:11Z</time>
      </trkpt>
      <trkpt lat="43.62512" lon="6.18681">
        <ele>448.11</ele>
        <time>2016-06-18T10:15:27Z</time>
      </trkpt>
      <trkpt lat="43.62535" lon="6.18698">
        <ele>449.07</ele>
        <time>2016-06-18T10:15:44Z</time>
      </trkpt>
      <trkpt lat="43.62555" lon="6.18717">
        <ele>449.55</ele>
        <time>2016-06-18T10:15:59Z</time>
      </trkpt>
      <trkpt lat="43.62566" lon="6.18723">
        <ele>449.55</ele>
        <time>2016-06-18T10:16:05Z</time>
      </trkpt>
      <trkpt lat="43.62567" lon="6.18723">
        <ele>449.55</ele>
        <time>2016-06-18T10:16:06Z</time>
      </trkpt>
      <trkpt lat="43.62578" lon="6.18717">
        <ele>450.03</ele>
        <time>2016-06-18T10:16:15Z</time>
      </trkpt>
      <trkpt lat="43.62609" lon="6.1872">
        <ele>451</ele>
        <time>2016-06-18T10:16:32Z</time>
      </trkpt>
      <trkpt lat="43.62635" lon="6.18725">
        <ele>452.44</ele>
        <time>2016-06-18T10:16:48Z</time>
      </trkpt>
      <trkpt lat="43.62658" lon="6.18742">
        <ele>452.92</ele>
        <time>2016-06-18T10:17:04Z</time>
      </trkpt>
      <trkpt lat="43.62674" lon="6.18745">
        <ele>452.92</ele>
        <time>2016-06-18T10:17:15Z</time>
      </trkpt>
      <trkpt lat="43.62694" lon="6.18744">
        <ele>453.4</ele>
        <time>2016-06-18T10:17:28Z</time>
      </trkpt>
      <trkpt lat="43.62716" lon="6.18748">
        <ele>453.88</ele>
        <time>2016-06-18T10:17:41Z</time>
      </trkpt>
      <trkpt lat="43.62723" lon="6.18747">
        <ele>453.88</ele>
        <time>2016-06-18T10:17:46Z</time>
      </trkpt>
      <trkpt lat="43.62738" lon="6.18738">
        <ele>453.88</ele>
        <time>2016-06-18T10:17:59Z</time>
      </trkpt>
      <trkpt lat="43.62743" lon="6.18738">
        <ele>454.36</ele>
        <time>2016-06-18T10:18:05Z</time>
      </trkpt>
      <trkpt lat="43.62757" lon="6.18734">
        <ele>454.84</ele>
        <time>2016-06-18T10:18:17Z</time>
      </trkpt>
      <trkpt lat="43.62779" lon="6.18729">
        <ele>455.32</ele>
        <time>2016-06-18T10:18:33Z</time>
      </trkpt>
      <trkpt lat="43.62792" lon="6.18711">
        <ele>455.32</ele>
        <time>2016-06-18T10:18:46Z</time>
      </trkpt>
      <trkpt lat="43.62792" lon="6.18711">
        <ele>455.8</ele>
        <time>2016-06-18T10:18:47Z</time>
      </trkpt>
      <trkpt lat="43.62807" lon="6.18702">
        <ele>455.8</ele>
        <time>2016-06-18T10:18:59Z</time>
      </trkpt>
      <trkpt lat="43.62828" lon="6.18698">
        <ele>455.8</ele>
        <time>2016-06-18T10:19:10Z</time>
      </trkpt>
      <trkpt lat="43.62851" lon="6.18696">
        <ele>455.8</ele>
        <time>2016-06-18T10:19:24Z</time>
      </trkpt>
      <trkpt lat="43.62853" lon="6.18696">
        <ele>455.8</ele>
        <time>2016-06-18T10:19:26Z</time>
      </trkpt>
      <trkpt lat="43.62878" lon="6.18713">
        <ele>456.76</ele>
        <time>2016-06-18T10:19:43Z</time>
      </trkpt>
      <trkpt lat="43.62894" lon="6.1872">
        <ele>457.72</ele>
        <time>2016-06-18T10:19:58Z</time>
      </trkpt>
      <trkpt lat="43.62909" lon="6.18725">
        <ele>458.21</ele>
        <time>2016-06-18T10:20:12Z</time>
      </trkpt>
      <trkpt lat="43.62921" lon="6.18727">
        <ele>457.24</ele>
        <time>2016-06-18T10:20:26Z</time>
      </trkpt>
      <trkpt lat="43.62934" lon="6.18734">
        <ele>457.72</ele>
        <time>2016-06-18T10:20:36Z</time>
      </trkpt>
      <trkpt lat="43.62937" lon="6.18734">
        <ele>457.24</ele>
        <time>2016-06-18T10:20:38Z</time>
      </trkpt>
      <trkpt lat="43.62952" lon="6.18738">
        <ele>457.72</ele>
        <time>2016-06-18T10:20:48Z</time>
      </trkpt>
      <trkpt lat="43.62957" lon="6.18739">
        <ele>457.72</ele>
        <time>2016-06-18T10:20:51Z</time>
      </trkpt>
      <trkpt lat="43.62979" lon="6.18738">
        <ele>458.21</ele>
        <time>2016-06-18T10:21:06Z</time>
      </trkpt>
      <trkpt lat="43.6299" lon="6.18771">
        <ele>459.17</ele>
        <time>2016-06-18T10:21:22Z</time>
      </trkpt>
      <trkpt lat="43.62991" lon="6.18773">
        <ele>459.17</ele>
        <time>2016-06-18T10:21:23Z</time>
      </trkpt>
      <trkpt lat="43.62995" lon="6.18783">
        <ele>459.65</ele>
        <time>2016-06-18T10:21:30Z</time>
      </trkpt>
      <trkpt lat="43.62998" lon="6.18779">
        <ele>460.13</ele>
        <time>2016-06-18T10:21:34Z</time>
      </trkpt>
      <trkpt lat="43.63016" lon="6.18766">
        <ele>460.61</ele>
        <time>2016-06-18T10:21:48Z</time>
      </trkpt>
      <trkpt lat="43.63016" lon="6.18766">
        <ele>460.61</ele>
        <time>2016-06-18T10:22:10Z</time>
      </trkpt>
      <trkpt lat="43.63019" lon="6.18767">
        <ele>460.61</ele>
        <time>2016-06-18T10:22:29Z</time>
      </trkpt>
      <trkpt lat="43.63021" lon="6.18765">
        <ele>461.09</ele>
        <time>2016-06-18T10:22:41Z</time>
      </trkpt>
      <trkpt lat="43.63022" lon="6.18766">
        <ele>460.61</ele>
        <time>2016-06-18T10:22:54Z</time>
      </trkpt>
      <trkpt lat="43.63027" lon="6.18764">
        <ele>461.09</ele>
        <time>2016-06-18T10:22:59Z</time>
      </trkpt>
      <trkpt lat="43.63052" lon="6.18753">
        <ele>462.05</ele>
        <time>2016-06-18T10:23:15Z</time>
      </trkpt>
      <trkpt lat="43.63053" lon="6.18754">
        <ele>462.05</ele>
        <time>2016-06-18T10:23:16Z</time>
      </trkpt>
      <trkpt lat="43.63073" lon="6.18758">
        <ele>463.01</ele>
        <time>2016-06-18T10:23:31Z</time>
      </trkpt>
      <trkpt lat="43.63092" lon="6.18754">
        <ele>463.01</ele>
        <time>2016-06-18T10:23:43Z</time>
      </trkpt>
      <trkpt lat="43.631" lon="6.18753">
        <ele>463.49</ele>
        <time>2016-06-18T10:23:49Z</time>
      </trkpt>
      <trkpt lat="43.63111" lon="6.18741">
        <ele>463.49</ele>
        <time>2016-06-18T10:24:00Z</time>
      </trkpt>
      <trkpt lat="43.63132" lon="6.18731">
        <ele>463.97</ele>
        <time>2016-06-18T10:24:17Z</time>
      </trkpt>
      <trkpt lat="43.63153" lon="6.18727">
        <ele>464.45</ele>
        <time>2016-06-18T10:24:34Z</time>
      </trkpt>
      <trkpt lat="43.6318" lon="6.18718">
        <ele>465.42</ele>
        <time>2016-06-18T10:24:50Z</time>
      </trkpt>
      <trkpt lat="43.63187" lon="6.18706">
        <ele>464.93</ele>
        <time>2016-06-18T10:24:58Z</time>
      </trkpt>
      <trkpt lat="43.63196" lon="6.18695">
        <ele>464.93</ele>
        <time>2016-06-18T10:25:14Z</time>
      </trkpt>
      <trkpt lat="43.6321" lon="6.18708">
        <ele>465.9</ele>
        <time>2016-06-18T10:25:26Z</time>
      </trkpt>
      <trkpt lat="43.63229" lon="6.18747">
        <ele>466.38</ele>
        <time>2016-06-18T10:25:44Z</time>
      </trkpt>
      <trkpt lat="43.63243" lon="6.18786">
        <ele>467.34</ele>
        <time>2016-06-18T10:26:04Z</time>
      </trkpt>
      <trkpt lat="43.63248" lon="6.18797">
        <ele>467.34</ele>
        <time>2016-06-18T10:26:10Z</time>
      </trkpt>
      <trkpt lat="43.63252" lon="6.18805">
        <ele>467.34</ele>
        <time>2016-06-18T10:26:14Z</time>
      </trkpt>
      <trkpt lat="43.6328" lon="6.18853">
        <ele>468.78</ele>
        <time>2016-06-18T10:26:27Z</time>
      </trkpt>
      <trkpt lat="43.63291" lon="6.18873">
        <ele>470.22</ele>
        <time>2016-06-18T10:26:32Z</time>
      </trkpt>
      <trkpt lat="43.63302" lon="6.18882">
        <ele>469.74</ele>
        <time>2016-06-18T10:26:36Z</time>
      </trkpt>
      <trkpt lat="43.63335" lon="6.18863">
        <ele>469.74</ele>
        <time>2016-06-18T10:26:48Z</time>
      </trkpt>
      <trkpt lat="43.6334" lon="6.1886">
        <ele>469.74</ele>
        <time>2016-06-18T10:26:49Z</time>
      </trkpt>
      <trkpt lat="43.63365" lon="6.18839">
        <ele>469.74</ele>
        <time>2016-06-18T10:26:54Z</time>
      </trkpt>
      <trkpt lat="43.63375" lon="6.18832">
        <ele>470.7</ele>
        <time>2016-06-18T10:26:56Z</time>
      </trkpt>
      <trkpt lat="43.6338" lon="6.1883">
        <ele>470.7</ele>
        <time>2016-06-18T10:26:57Z</time>
      </trkpt>
      <trkpt lat="43.63414" lon="6.18815">
        <ele>472.14</ele>
        <time>2016-06-18T10:27:04Z</time>
      </trkpt>
      <trkpt lat="43.6342" lon="6.18813">
        <ele>471.66</ele>
        <time>2016-06-18T10:27:05Z</time>
      </trkpt>
      <trkpt lat="43.63425" lon="6.18811">
        <ele>471.66</ele>
        <time>2016-06-18T10:27:06Z</time>
      </trkpt>
      <trkpt lat="43.63429" lon="6.18808">
        <ele>472.14</ele>
        <time>2016-06-18T10:27:07Z</time>
      </trkpt>
      <trkpt lat="43.63449" lon="6.18796">
        <ele>472.14</ele>
        <time>2016-06-18T10:27:11Z</time>
      </trkpt>
      <trkpt lat="43.63475" lon="6.18775">
        <ele>472.14</ele>
        <time>2016-06-18T10:27:17Z</time>
      </trkpt>
      <trkpt lat="43.635" lon="6.18758">
        <ele>472.14</ele>
        <time>2016-06-18T10:27:23Z</time>
      </trkpt>
      <trkpt lat="43.63511" lon="6.1875">
        <ele>473.11</ele>
        <time>2016-06-18T10:27:25Z</time>
      </trkpt>
      <trkpt lat="43.63526" lon="6.18735">
        <ele>472.63</ele>
        <time>2016-06-18T10:27:28Z</time>
      </trkpt>
      <trkpt lat="43.63573" lon="6.18716">
        <ele>472.63</ele>
        <time>2016-06-18T10:27:40Z</time>
      </trkpt>
      <trkpt lat="43.63606" lon="6.18706">
        <ele>474.07</ele>
        <time>2016-06-18T10:27:50Z</time>
      </trkpt>
      <trkpt lat="43.63615" lon="6.18699">
        <ele>474.07</ele>
        <time>2016-06-18T10:28:11Z</time>
      </trkpt>
      <trkpt lat="43.63618" lon="6.18699">
        <ele>474.07</ele>
        <time>2016-06-18T10:28:34Z</time>
      </trkpt>
      <trkpt lat="43.63619" lon="6.18698">
        <ele>474.07</ele>
        <time>2016-06-18T10:28:54Z</time>
      </trkpt>
      <trkpt lat="43.63619" lon="6.18696">
        <ele>474.07</ele>
        <time>2016-06-18T10:29:15Z</time>
      </trkpt>
      <trkpt lat="43.6362" lon="6.18695">
        <ele>474.07</ele>
        <time>2016-06-18T10:29:32Z</time>
      </trkpt>
      <trkpt lat="43.63618" lon="6.18697">
        <ele>474.55</ele>
        <time>2016-06-18T10:29:55Z</time>
      </trkpt>
      <trkpt lat="43.6362" lon="6.18694">
        <ele>473.59</ele>
        <time>2016-06-18T10:30:09Z</time>
      </trkpt>
      <trkpt lat="43.63618" lon="6.18689">
        <ele>473.59</ele>
        <time>2016-06-18T10:30:12Z</time>
      </trkpt>
      <trkpt lat="43.63618" lon="6.18687">
        <ele>473.59</ele>
        <time>2016-06-18T10:30:13Z</time>
      </trkpt>
      <trkpt lat="43.63616" lon="6.18675">
        <ele>473.11</ele>
        <time>2016-06-18T10:30:20Z</time>
      </trkpt>
      <trkpt lat="43.63616" lon="6.18673">
        <ele>473.59</ele>
        <time>2016-06-18T10:30:21Z</time>
      </trkpt>
      <trkpt lat="43.63617" lon="6.18671">
        <ele>473.11</ele>
        <time>2016-06-18T10:30:22Z</time>
      </trkpt>
      <trkpt lat="43.63624" lon="6.18645">
        <ele>473.11</ele>
        <time>2016-06-18T10:30:35Z</time>
      </trkpt>
      <trkpt lat="43.63627" lon="6.18634">
        <ele>472.63</ele>
        <time>2016-06-18T10:30:40Z</time>
      </trkpt>
      <trkpt lat="43.63627" lon="6.18631">
        <ele>472.63</ele>
        <time>2016-06-18T10:30:41Z</time>
      </trkpt>
      <trkpt lat="43.63628" lon="6.18624">
        <ele>472.63</ele>
        <time>2016-06-18T10:30:44Z</time>
      </trkpt>
      <trkpt lat="43.63629" lon="6.18622">
        <ele>473.11</ele>
        <time>2016-06-18T10:30:45Z</time>
      </trkpt>
      <trkpt lat="43.63629" lon="6.18597">
        <ele>473.59</ele>
        <time>2016-06-18T10:30:57Z</time>
      </trkpt>
      <trkpt lat="43.63627" lon="6.1858">
        <ele>474.07</ele>
        <time>2016-06-18T10:31:06Z</time>
      </trkpt>
      <trkpt lat="43.63626" lon="6.18578">
        <ele>474.07</ele>
        <time>2016-06-18T10:31:07Z</time>
      </trkpt>
      <trkpt lat="43.63619" lon="6.18539">
        <ele>474.55</ele>
        <time>2016-06-18T10:31:23Z</time>
      </trkpt>
      <trkpt lat="43.63618" lon="6.18515">
        <ele>474.55</ele>
        <time>2016-06-18T10:31:37Z</time>
      </trkpt>
      <trkpt lat="43.63612" lon="6.18477">
        <ele>475.03</ele>
        <time>2016-06-18T10:31:54Z</time>
      </trkpt>
      <trkpt lat="43.63611" lon="6.18452">
        <ele>475.51</ele>
        <time>2016-06-18T10:32:08Z</time>
      </trkpt>
      <trkpt lat="43.63611" lon="6.1843">
        <ele>475.99</ele>
        <time>2016-06-18T10:32:14Z</time>
      </trkpt>
      <trkpt lat="43.63611" lon="6.18427">
        <ele>475.51</ele>
        <time>2016-06-18T10:32:15Z</time>
      </trkpt>
      <trkpt lat="43.63611" lon="6.18425">
        <ele>476.47</ele>
        <time>2016-06-18T10:32:16Z</time>
      </trkpt>
      <trkpt lat="43.63611" lon="6.18422">
        <ele>475.99</ele>
        <time>2016-06-18T10:32:17Z</time>
      </trkpt>
      <trkpt lat="43.63611" lon="6.1842">
        <ele>475.03</ele>
        <time>2016-06-18T10:32:18Z</time>
      </trkpt>
      <trkpt lat="43.63611" lon="6.18417">
        <ele>478.87</ele>
        <time>2016-06-18T10:32:19Z</time>
      </trkpt>
      <trkpt lat="43.63611" lon="6.18411">
        <ele>476.47</ele>
        <time>2016-06-18T10:32:22Z</time>
      </trkpt>
      <trkpt lat="43.63612" lon="6.18408">
        <ele>476.47</ele>
        <time>2016-06-18T10:32:23Z</time>
      </trkpt>
      <trkpt lat="43.63612" lon="6.18405">
        <ele>476.47</ele>
        <time>2016-06-18T10:32:24Z</time>
      </trkpt>
      <trkpt lat="43.63612" lon="6.18402">
        <ele>476.47</ele>
        <time>2016-06-18T10:32:25Z</time>
      </trkpt>
      <trkpt lat="43.63612" lon="6.18399">
        <ele>478.39</ele>
        <time>2016-06-18T10:32:26Z</time>
      </trkpt>
      <trkpt lat="43.63614" lon="6.18365">
        <ele>473.59</ele>
        <time>2016-06-18T10:32:40Z</time>
      </trkpt>
      <trkpt lat="43.63614" lon="6.18363">
        <ele>479.35</ele>
        <time>2016-06-18T10:32:41Z</time>
      </trkpt>
      <trkpt lat="43.63618" lon="6.18345">
        <ele>473.59</ele>
        <time>2016-06-18T10:32:49Z</time>
      </trkpt>
      <trkpt lat="43.63618" lon="6.18343">
        <ele>479.84</ele>
        <time>2016-06-18T10:32:50Z</time>
      </trkpt>
      <trkpt lat="43.63618" lon="6.18341">
        <ele>475.99</ele>
        <time>2016-06-18T10:32:51Z</time>
      </trkpt>
      <trkpt lat="43.63619" lon="6.18334">
        <ele>471.66</ele>
        <time>2016-06-18T10:32:56Z</time>
      </trkpt>
      <trkpt lat="43.6362" lon="6.18332">
        <ele>478.87</ele>
        <time>2016-06-18T10:32:57Z</time>
      </trkpt>
      <trkpt lat="43.6362" lon="6.1833">
        <ele>475.03</ele>
        <time>2016-06-18T10:32:58Z</time>
      </trkpt>
      <trkpt lat="43.63624" lon="6.18315">
        <ele>473.59</ele>
        <time>2016-06-18T10:33:06Z</time>
      </trkpt>
      <trkpt lat="43.63625" lon="6.18313">
        <ele>474.55</ele>
        <time>2016-06-18T10:33:07Z</time>
      </trkpt>
      <trkpt lat="43.63626" lon="6.18311">
        <ele>474.07</ele>
        <time>2016-06-18T10:33:08Z</time>
      </trkpt>
      <trkpt lat="43.63626" lon="6.18309">
        <ele>474.07</ele>
        <time>2016-06-18T10:33:09Z</time>
      </trkpt>
      <trkpt lat="43.63627" lon="6.18307">
        <ele>473.59</ele>
        <time>2016-06-18T10:33:10Z</time>
      </trkpt>
      <trkpt lat="43.63628" lon="6.18304">
        <ele>474.07</ele>
        <time>2016-06-18T10:33:11Z</time>
      </trkpt>
      <trkpt lat="43.63629" lon="6.18302">
        <ele>473.59</ele>
        <time>2016-06-18T10:33:12Z</time>
      </trkpt>
      <trkpt lat="43.6363" lon="6.18299">
        <ele>473.59</ele>
        <time>2016-06-18T10:33:13Z</time>
      </trkpt>
      <trkpt lat="43.63636" lon="6.18284">
        <ele>473.11</ele>
        <time>2016-06-18T10:33:23Z</time>
      </trkpt>
      <trkpt lat="43.63636" lon="6.18281">
        <ele>473.11</ele>
        <time>2016-06-18T10:33:24Z</time>
      </trkpt>
      <trkpt lat="43.63636" lon="6.1828">
        <ele>473.11</ele>
        <time>2016-06-18T10:33:25Z</time>
      </trkpt>
      <trkpt lat="43.63637" lon="6.18278">
        <ele>473.11</ele>
        <time>2016-06-18T10:33:26Z</time>
      </trkpt>
      <trkpt lat="43.63637" lon="6.18276">
        <ele>473.11</ele>
        <time>2016-06-18T10:33:27Z</time>
      </trkpt>
      <trkpt lat="43.63637" lon="6.18274">
        <ele>473.11</ele>
        <time>2016-06-18T10:33:28Z</time>
      </trkpt>
      <trkpt lat="43.63639" lon="6.18257">
        <ele>472.63</ele>
        <time>2016-06-18T10:33:38Z</time>
      </trkpt>
      <trkpt lat="43.63639" lon="6.18255">
        <ele>473.11</ele>
        <time>2016-06-18T10:33:39Z</time>
      </trkpt>
      <trkpt lat="43.63639" lon="6.18252">
        <ele>473.59</ele>
        <time>2016-06-18T10:33:40Z</time>
      </trkpt>
      <trkpt lat="43.63636" lon="6.18237">
        <ele>468.78</ele>
        <time>2016-06-18T10:33:46Z</time>
      </trkpt>
      <trkpt lat="43.63635" lon="6.18235">
        <ele>475.99</ele>
        <time>2016-06-18T10:33:47Z</time>
      </trkpt>
      <trkpt lat="43.63633" lon="6.18226">
        <ele>474.07</ele>
        <time>2016-06-18T10:33:52Z</time>
      </trkpt>
      <trkpt lat="43.63632" lon="6.18225">
        <ele>474.07</ele>
        <time>2016-06-18T10:33:53Z</time>
      </trkpt>
      <trkpt lat="43.63619" lon="6.18198">
        <ele>474.55</ele>
        <time>2016-06-18T10:34:09Z</time>
      </trkpt>
      <trkpt lat="43.63619" lon="6.18175">
        <ele>471.66</ele>
        <time>2016-06-18T10:34:21Z</time>
      </trkpt>
      <trkpt lat="43.6362" lon="6.18173">
        <ele>471.66</ele>
        <time>2016-06-18T10:34:22Z</time>
      </trkpt>
      <trkpt lat="43.6362" lon="6.18171">
        <ele>471.18</ele>
        <time>2016-06-18T10:34:23Z</time>
      </trkpt>
      <trkpt lat="43.6362" lon="6.18169">
        <ele>470.7</ele>
        <time>2016-06-18T10:34:24Z</time>
      </trkpt>
      <trkpt lat="43.63621" lon="6.18167">
        <ele>470.7</ele>
        <time>2016-06-18T10:34:25Z</time>
      </trkpt>
      <trkpt lat="43.63621" lon="6.18164">
        <ele>470.7</ele>
        <time>2016-06-18T10:34:26Z</time>
      </trkpt>
      <trkpt lat="43.63622" lon="6.18162">
        <ele>470.22</ele>
        <time>2016-06-18T10:34:27Z</time>
      </trkpt>
      <trkpt lat="43.63625" lon="6.18138">
        <ele>464.45</ele>
        <time>2016-06-18T10:34:40Z</time>
      </trkpt>
      <trkpt lat="43.63625" lon="6.18136">
        <ele>471.66</ele>
        <time>2016-06-18T10:34:41Z</time>
      </trkpt>
      <trkpt lat="43.63625" lon="6.18134">
        <ele>468.78</ele>
        <time>2016-06-18T10:34:42Z</time>
      </trkpt>
      <trkpt lat="43.63626" lon="6.1813">
        <ele>467.34</ele>
        <time>2016-06-18T10:34:44Z</time>
      </trkpt>
      <trkpt lat="43.63626" lon="6.18119">
        <ele>462.05</ele>
        <time>2016-06-18T10:34:49Z</time>
      </trkpt>
      <trkpt lat="43.63626" lon="6.18118">
        <ele>471.18</ele>
        <time>2016-06-18T10:34:50Z</time>
      </trkpt>
      <trkpt lat="43.63627" lon="6.18116">
        <ele>466.86</ele>
        <time>2016-06-18T10:34:51Z</time>
      </trkpt>
      <trkpt lat="43.63631" lon="6.18092">
        <ele>466.38</ele>
        <time>2016-06-18T10:35:02Z</time>
      </trkpt>
      <trkpt lat="43.63631" lon="6.1809">
        <ele>466.38</ele>
        <time>2016-06-18T10:35:03Z</time>
      </trkpt>
      <trkpt lat="43.63632" lon="6.18088">
        <ele>466.38</ele>
        <time>2016-06-18T10:35:04Z</time>
      </trkpt>
      <trkpt lat="43.63632" lon="6.18087">
        <ele>466.38</ele>
        <time>2016-06-18T10:35:05Z</time>
      </trkpt>
      <trkpt lat="43.63633" lon="6.18085">
        <ele>462.05</ele>
        <time>2016-06-18T10:35:06Z</time>
      </trkpt>
      <trkpt lat="43.63633" lon="6.18083">
        <ele>470.22</ele>
        <time>2016-06-18T10:35:07Z</time>
      </trkpt>
      <trkpt lat="43.63634" lon="6.18081">
        <ele>465.9</ele>
        <time>2016-06-18T10:35:08Z</time>
      </trkpt>
      <trkpt lat="43.63638" lon="6.18056">
        <ele>465.42</ele>
        <time>2016-06-18T10:35:22Z</time>
      </trkpt>
      <trkpt lat="43.63637" lon="6.18043">
        <ele>465.9</ele>
        <time>2016-06-18T10:35:29Z</time>
      </trkpt>
      <trkpt lat="43.63636" lon="6.18016">
        <ele>464.93</ele>
        <time>2016-06-18T10:35:40Z</time>
      </trkpt>
      <trkpt lat="43.63636" lon="6.18007">
        <ele>464.45</ele>
        <time>2016-06-18T10:35:45Z</time>
      </trkpt>
      <trkpt lat="43.6364" lon="6.17995">
        <ele>463.01</ele>
        <time>2016-06-18T10:35:51Z</time>
      </trkpt>
      <trkpt lat="43.63642" lon="6.17987">
        <ele>462.53</ele>
        <time>2016-06-18T10:35:56Z</time>
      </trkpt>
      <trkpt lat="43.63647" lon="6.17959">
        <ele>462.05</ele>
        <time>2016-06-18T10:36:08Z</time>
      </trkpt>
      <trkpt lat="43.63648" lon="6.17957">
        <ele>461.57</ele>
        <time>2016-06-18T10:36:09Z</time>
      </trkpt>
      <trkpt lat="43.63649" lon="6.17948">
        <ele>462.05</ele>
        <time>2016-06-18T10:36:13Z</time>
      </trkpt>
      <trkpt lat="43.6365" lon="6.17912">
        <ele>460.61</ele>
        <time>2016-06-18T10:36:28Z</time>
      </trkpt>
      <trkpt lat="43.63652" lon="6.17876">
        <ele>460.13</ele>
        <time>2016-06-18T10:36:44Z</time>
      </trkpt>
      <trkpt lat="43.63656" lon="6.1785">
        <ele>460.13</ele>
        <time>2016-06-18T10:36:56Z</time>
      </trkpt>
      <trkpt lat="43.63648" lon="6.17818">
        <ele>459.17</ele>
        <time>2016-06-18T10:37:09Z</time>
      </trkpt>
      <trkpt lat="43.63635" lon="6.17786">
        <ele>458.21</ele>
        <time>2016-06-18T10:37:24Z</time>
      </trkpt>
      <trkpt lat="43.63628" lon="6.17752">
        <ele>457.72</ele>
        <time>2016-06-18T10:37:39Z</time>
      </trkpt>
      <trkpt lat="43.63624" lon="6.1772">
        <ele>456.76</ele>
        <time>2016-06-18T10:37:53Z</time>
      </trkpt>
      <trkpt lat="43.63619" lon="6.17691">
        <ele>455.8</ele>
        <time>2016-06-18T10:38:06Z</time>
      </trkpt>
      <trkpt lat="43.63611" lon="6.17664">
        <ele>455.32</ele>
        <time>2016-06-18T10:38:19Z</time>
      </trkpt>
      <trkpt lat="43.63593" lon="6.17635">
        <ele>453.88</ele>
        <time>2016-06-18T10:38:35Z</time>
      </trkpt>
      <trkpt lat="43.63576" lon="6.17608">
        <ele>452.92</ele>
        <time>2016-06-18T10:38:50Z</time>
      </trkpt>
      <trkpt lat="43.63558" lon="6.17581">
        <ele>451.48</ele>
        <time>2016-06-18T10:39:06Z</time>
      </trkpt>
      <trkpt lat="43.63544" lon="6.17552">
        <ele>449.55</ele>
        <time>2016-06-18T10:39:20Z</time>
      </trkpt>
      <trkpt lat="43.6353" lon="6.17526">
        <ele>447.15</ele>
        <time>2016-06-18T10:39:33Z</time>
      </trkpt>
      <trkpt lat="43.63517" lon="6.17512">
        <ele>446.67</ele>
        <time>2016-06-18T10:39:44Z</time>
      </trkpt>
      <trkpt lat="43.63493" lon="6.17502">
        <ele>446.67</ele>
        <time>2016-06-18T10:40:00Z</time>
      </trkpt>
      <trkpt lat="43.63473" lon="6.17489">
        <ele>446.19</ele>
        <time>2016-06-18T10:40:15Z</time>
      </trkpt>
      <trkpt lat="43.63462" lon="6.17481">
        <ele>446.19</ele>
        <time>2016-06-18T10:40:27Z</time>
      </trkpt>
      <trkpt lat="43.63463" lon="6.17483">
        <ele>446.67</ele>
        <time>2016-06-18T10:40:48Z</time>
      </trkpt>
      <trkpt lat="43.63461" lon="6.17478">
        <ele>446.19</ele>
        <time>2016-06-18T10:41:00Z</time>
      </trkpt>
      <trkpt lat="43.6346" lon="6.17474">
        <ele>446.67</ele>
        <time>2016-06-18T10:41:16Z</time>
      </trkpt>
      <trkpt lat="43.63458" lon="6.17478">
        <ele>446.67</ele>
        <time>2016-06-18T10:41:29Z</time>
      </trkpt>
      <trkpt lat="43.6346" lon="6.17478">
        <ele>446.67</ele>
        <time>2016-06-18T10:41:48Z</time>
      </trkpt>
      <trkpt lat="43.63461" lon="6.17478">
        <ele>446.67</ele>
        <time>2016-06-18T10:42:06Z</time>
      </trkpt>
      <trkpt lat="43.63461" lon="6.17478">
        <ele>447.15</ele>
        <time>2016-06-18T10:42:25Z</time>
      </trkpt>
      <trkpt lat="43.63459" lon="6.17482">
        <ele>447.15</ele>
        <time>2016-06-18T10:42:41Z</time>
      </trkpt>
      <trkpt lat="43.63453" lon="6.17483">
        <ele>447.15</ele>
        <time>2016-06-18T10:42:56Z</time>
      </trkpt>
      <trkpt lat="43.6345" lon="6.17487">
        <ele>446.67</ele>
        <time>2016-06-18T10:43:12Z</time>
      </trkpt>
      <trkpt lat="43.6345" lon="6.17487">
        <ele>447.15</ele>
        <time>2016-06-18T10:43:34Z</time>
      </trkpt>
      <trkpt lat="43.63447" lon="6.17481">
        <ele>447.15</ele>
        <time>2016-06-18T10:43:48Z</time>
      </trkpt>
      <trkpt lat="43.63424" lon="6.17465">
        <ele>447.15</ele>
        <time>2016-06-18T10:44:06Z</time>
      </trkpt>
      <trkpt lat="43.63398" lon="6.17479">
        <ele>446.19</ele>
        <time>2016-06-18T10:44:24Z</time>
      </trkpt>
      <trkpt lat="43.63379" lon="6.17487">
        <ele>445.71</ele>
        <time>2016-06-18T10:44:37Z</time>
      </trkpt>
      <trkpt lat="43.63361" lon="6.17489">
        <ele>445.71</ele>
        <time>2016-06-18T10:44:51Z</time>
      </trkpt>
      <trkpt lat="43.63346" lon="6.17491">
        <ele>445.71</ele>
        <time>2016-06-18T10:45:01Z</time>
      </trkpt>
      <trkpt lat="43.63321" lon="6.17481">
        <ele>445.71</ele>
        <time>2016-06-18T10:45:16Z</time>
      </trkpt>
      <trkpt lat="43.63301" lon="6.17485">
        <ele>445.71</ele>
        <time>2016-06-18T10:45:28Z</time>
      </trkpt>
      <trkpt lat="43.63278" lon="6.17503">
        <ele>445.23</ele>
        <time>2016-06-18T10:45:43Z</time>
      </trkpt>
      <trkpt lat="43.63256" lon="6.17513">
        <ele>445.23</ele>
        <time>2016-06-18T10:45:56Z</time>
      </trkpt>
      <trkpt lat="43.63239" lon="6.17509">
        <ele>445.23</ele>
        <time>2016-06-18T10:46:06Z</time>
      </trkpt>
      <trkpt lat="43.63219" lon="6.17508">
        <ele>443.79</ele>
        <time>2016-06-18T10:46:20Z</time>
      </trkpt>
      <trkpt lat="43.63197" lon="6.17516">
        <ele>444.27</ele>
        <time>2016-06-18T10:46:34Z</time>
      </trkpt>
      <trkpt lat="43.63174" lon="6.17529">
        <ele>443.79</ele>
        <time>2016-06-18T10:46:47Z</time>
      </trkpt>
      <trkpt lat="43.63156" lon="6.17538">
        <ele>443.79</ele>
        <time>2016-06-18T10:46:59Z</time>
      </trkpt>
      <trkpt lat="43.63155" lon="6.17539">
        <ele>443.79</ele>
        <time>2016-06-18T10:47:00Z</time>
      </trkpt>
      <trkpt lat="43.63146" lon="6.17546">
        <ele>444.27</ele>
        <time>2016-06-18T10:47:07Z</time>
      </trkpt>
      <trkpt lat="43.6314" lon="6.1755">
        <ele>444.27</ele>
        <time>2016-06-18T10:47:22Z</time>
      </trkpt>
      <trkpt lat="43.63141" lon="6.1755">
        <ele>444.27</ele>
        <time>2016-06-18T10:47:35Z</time>
      </trkpt>
      <trkpt lat="43.63142" lon="6.1755">
        <ele>444.27</ele>
        <time>2016-06-18T10:48:04Z</time>
      </trkpt>
      <trkpt lat="43.63145" lon="6.17546">
        <ele>444.27</ele>
        <time>2016-06-18T10:48:11Z</time>
      </trkpt>
      <trkpt lat="43.63148" lon="6.17541">
        <ele>443.79</ele>
        <time>2016-06-18T10:48:14Z</time>
      </trkpt>
      <trkpt lat="43.63153" lon="6.17533">
        <ele>443.79</ele>
        <time>2016-06-18T10:48:18Z</time>
      </trkpt>
      <trkpt lat="43.63154" lon="6.1753">
        <ele>443.79</ele>
        <time>2016-06-18T10:48:20Z</time>
      </trkpt>
      <trkpt lat="43.63154" lon="6.1752">
        <ele>443.79</ele>
        <time>2016-06-18T10:48:25Z</time>
      </trkpt>
      <trkpt lat="43.6314" lon="6.17497">
        <ele>444.75</ele>
        <time>2016-06-18T10:48:38Z</time>
      </trkpt>
      <trkpt lat="43.63139" lon="6.17472">
        <ele>445.71</ele>
        <time>2016-06-18T10:48:51Z</time>
      </trkpt>
      <trkpt lat="43.63146" lon="6.17445">
        <ele>447.63</ele>
        <time>2016-06-18T10:49:03Z</time>
      </trkpt>
      <trkpt lat="43.63146" lon="6.17442">
        <ele>448.59</ele>
        <time>2016-06-18T10:49:05Z</time>
      </trkpt>
      <trkpt lat="43.63147" lon="6.17439">
        <ele>448.59</ele>
        <time>2016-06-18T10:49:07Z</time>
      </trkpt>
      <trkpt lat="43.6316" lon="6.17412">
        <ele>449.07</ele>
        <time>2016-06-18T10:49:23Z</time>
      </trkpt>
      <trkpt lat="43.63167" lon="6.17383">
        <ele>448.11</ele>
        <time>2016-06-18T10:49:37Z</time>
      </trkpt>
      <trkpt lat="43.63175" lon="6.17356">
        <ele>446.67</ele>
        <time>2016-06-18T10:49:50Z</time>
      </trkpt>
      <trkpt lat="43.63179" lon="6.17325">
        <ele>446.19</ele>
        <time>2016-06-18T10:50:04Z</time>
      </trkpt>
      <trkpt lat="43.63178" lon="6.17321">
        <ele>447.15</ele>
        <time>2016-06-18T10:50:16Z</time>
      </trkpt>
      <trkpt lat="43.63178" lon="6.1732">
        <ele>446.19</ele>
        <time>2016-06-18T10:50:21Z</time>
      </trkpt>
      <trkpt lat="43.63172" lon="6.17312">
        <ele>446.67</ele>
        <time>2016-06-18T10:50:28Z</time>
      </trkpt>
      <trkpt lat="43.63164" lon="6.17306">
        <ele>446.19</ele>
        <time>2016-06-18T10:50:35Z</time>
      </trkpt>
      <trkpt lat="43.63148" lon="6.17279">
        <ele>447.15</ele>
        <time>2016-06-18T10:50:52Z</time>
      </trkpt>
      <trkpt lat="43.6314" lon="6.17249">
        <ele>447.15</ele>
        <time>2016-06-18T10:51:07Z</time>
      </trkpt>
      <trkpt lat="43.63139" lon="6.1724">
        <ele>448.11</ele>
        <time>2016-06-18T10:51:18Z</time>
      </trkpt>
      <trkpt lat="43.6314" lon="6.17242">
        <ele>448.59</ele>
        <time>2016-06-18T10:51:35Z</time>
      </trkpt>
      <trkpt lat="43.63144" lon="6.17244">
        <ele>448.11</ele>
        <time>2016-06-18T10:51:45Z</time>
      </trkpt>
      <trkpt lat="43.63141" lon="6.17242">
        <ele>448.59</ele>
        <time>2016-06-18T10:51:49Z</time>
      </trkpt>
      <trkpt lat="43.63139" lon="6.17239">
        <ele>447.15</ele>
        <time>2016-06-18T10:51:55Z</time>
      </trkpt>
      <trkpt lat="43.63142" lon="6.17226">
        <ele>449.07</ele>
        <time>2016-06-18T10:52:08Z</time>
      </trkpt>
      <trkpt lat="43.63141" lon="6.17222">
        <ele>447.63</ele>
        <time>2016-06-18T10:52:23Z</time>
      </trkpt>
      <trkpt lat="43.63139" lon="6.17191">
        <ele>448.11</ele>
        <time>2016-06-18T10:52:37Z</time>
      </trkpt>
      <trkpt lat="43.63139" lon="6.17181">
        <ele>448.11</ele>
        <time>2016-06-18T10:52:40Z</time>
      </trkpt>
      <trkpt lat="43.63144" lon="6.17123">
        <ele>450.52</ele>
        <time>2016-06-18T10:52:52Z</time>
      </trkpt>
      <trkpt lat="43.63144" lon="6.17118">
        <ele>450.03</ele>
        <time>2016-06-18T10:52:53Z</time>
      </trkpt>
      <trkpt lat="43.63146" lon="6.17094">
        <ele>451.48</ele>
        <time>2016-06-18T10:52:57Z</time>
      </trkpt>
      <trkpt lat="43.63147" lon="6.17065">
        <ele>452.44</ele>
        <time>2016-06-18T10:53:01Z</time>
      </trkpt>
      <trkpt lat="43.63145" lon="6.17042">
        <ele>454.84</ele>
        <time>2016-06-18T10:53:05Z</time>
      </trkpt>
      <trkpt lat="43.63144" lon="6.17029">
        <ele>455.32</ele>
        <time>2016-06-18T10:53:08Z</time>
      </trkpt>
      <trkpt lat="43.63128" lon="6.17018">
        <ele>455.32</ele>
        <time>2016-06-18T10:53:15Z</time>
      </trkpt>
      <trkpt lat="43.63096" lon="6.17012">
        <ele>454.36</ele>
        <time>2016-06-18T10:53:24Z</time>
      </trkpt>
      <trkpt lat="43.6307" lon="6.16987">
        <ele>454.36</ele>
        <time>2016-06-18T10:53:34Z</time>
      </trkpt>
      <trkpt lat="43.63065" lon="6.16978">
        <ele>453.88</ele>
        <time>2016-06-18T10:53:37Z</time>
      </trkpt>
      <trkpt lat="43.63059" lon="6.16936">
        <ele>454.36</ele>
        <time>2016-06-18T10:53:51Z</time>
      </trkpt>
      <trkpt lat="43.63057" lon="6.1691">
        <ele>453.4</ele>
        <time>2016-06-18T10:54:02Z</time>
      </trkpt>
      <trkpt lat="43.63058" lon="6.1688">
        <ele>454.84</ele>
        <time>2016-06-18T10:54:11Z</time>
      </trkpt>
      <trkpt lat="43.6306" lon="6.1684">
        <ele>454.84</ele>
        <time>2016-06-18T10:54:22Z</time>
      </trkpt>
      <trkpt lat="43.63071" lon="6.16792">
        <ele>452.92</ele>
        <time>2016-06-18T10:54:34Z</time>
      </trkpt>
      <trkpt lat="43.63077" lon="6.16774">
        <ele>453.88</ele>
        <time>2016-06-18T10:54:46Z</time>
      </trkpt>
      <trkpt lat="43.63074" lon="6.16772">
        <ele>453.88</ele>
        <time>2016-06-18T10:55:01Z</time>
      </trkpt>
      <trkpt lat="43.63073" lon="6.16773">
        <ele>453.88</ele>
        <time>2016-06-18T10:55:30Z</time>
      </trkpt>
      <trkpt lat="43.63072" lon="6.16773">
        <ele>453.88</ele>
        <time>2016-06-18T10:55:32Z</time>
      </trkpt>
      <trkpt lat="43.63061" lon="6.16753">
        <ele>453.4</ele>
        <time>2016-06-18T10:55:47Z</time>
      </trkpt>
      <trkpt lat="43.63051" lon="6.16736">
        <ele>453.4</ele>
        <time>2016-06-18T10:56:00Z</time>
      </trkpt>
      <trkpt lat="43.63049" lon="6.16736">
        <ele>452.92</ele>
        <time>2016-06-18T10:56:14Z</time>
      </trkpt>
      <trkpt lat="43.6305" lon="6.16735">
        <ele>452.92</ele>
        <time>2016-06-18T10:56:29Z</time>
      </trkpt>
      <trkpt lat="43.6305" lon="6.16736">
        <ele>453.4</ele>
        <time>2016-06-18T10:56:43Z</time>
      </trkpt>
      <trkpt lat="43.63051" lon="6.16736">
        <ele>449.55</ele>
        <time>2016-06-18T10:56:49Z</time>
      </trkpt>
      <trkpt lat="43.63051" lon="6.16736">
        <ele>457.24</ele>
        <time>2016-06-18T10:56:50Z</time>
      </trkpt>
      <trkpt lat="43.6305" lon="6.16732">
        <ele>448.59</ele>
        <time>2016-06-18T10:57:03Z</time>
      </trkpt>
      <trkpt lat="43.6305" lon="6.16731">
        <ele>456.76</ele>
        <time>2016-06-18T10:57:04Z</time>
      </trkpt>
      <trkpt lat="43.6305" lon="6.16731">
        <ele>449.07</ele>
        <time>2016-06-18T10:57:05Z</time>
      </trkpt>
      <trkpt lat="43.6305" lon="6.16731">
        <ele>457.72</ele>
        <time>2016-06-18T10:57:06Z</time>
      </trkpt>
      <trkpt lat="43.6305" lon="6.16731">
        <ele>453.4</ele>
        <time>2016-06-18T10:57:07Z</time>
      </trkpt>
      <trkpt lat="43.6305" lon="6.16731">
        <ele>453.88</ele>
        <time>2016-06-18T10:57:09Z</time>
      </trkpt>
      <trkpt lat="43.63038" lon="6.16714">
        <ele>450.03</ele>
        <time>2016-06-18T10:57:22Z</time>
      </trkpt>
      <trkpt lat="43.63037" lon="6.16712">
        <ele>453.88</ele>
        <time>2016-06-18T10:57:23Z</time>
      </trkpt>
      <trkpt lat="43.63027" lon="6.167">
        <ele>451.96</ele>
        <time>2016-06-18T10:57:33Z</time>
      </trkpt>
      <trkpt lat="43.63019" lon="6.1669">
        <ele>441.38</ele>
        <time>2016-06-18T10:57:39Z</time>
      </trkpt>
      <trkpt lat="43.63018" lon="6.16688">
        <ele>457.72</ele>
        <time>2016-06-18T10:57:40Z</time>
      </trkpt>
      <trkpt lat="43.63018" lon="6.16687">
        <ele>451.96</ele>
        <time>2016-06-18T10:57:41Z</time>
      </trkpt>
      <trkpt lat="43.63017" lon="6.16687">
        <ele>448.59</ele>
        <time>2016-06-18T10:57:45Z</time>
      </trkpt>
      <trkpt lat="43.63017" lon="6.16687">
        <ele>453.88</ele>
        <time>2016-06-18T10:57:46Z</time>
      </trkpt>
      <trkpt lat="43.63004" lon="6.16669">
        <ele>451.48</ele>
        <time>2016-06-18T10:57:59Z</time>
      </trkpt>
      <trkpt lat="43.62987" lon="6.16651">
        <ele>451</ele>
        <time>2016-06-18T10:58:13Z</time>
      </trkpt>
      <trkpt lat="43.62982" lon="6.16645">
        <ele>445.23</ele>
        <time>2016-06-18T10:58:17Z</time>
      </trkpt>
      <trkpt lat="43.62981" lon="6.16644">
        <ele>455.32</ele>
        <time>2016-06-18T10:58:18Z</time>
      </trkpt>
      <trkpt lat="43.6298" lon="6.16643">
        <ele>450.52</ele>
        <time>2016-06-18T10:58:19Z</time>
      </trkpt>
      <trkpt lat="43.62964" lon="6.16623">
        <ele>450.03</ele>
        <time>2016-06-18T10:58:34Z</time>
      </trkpt>
      <trkpt lat="43.62957" lon="6.16613">
        <ele>450.03</ele>
        <time>2016-06-18T10:58:41Z</time>
      </trkpt>
      <trkpt lat="43.62954" lon="6.1661">
        <ele>450.03</ele>
        <time>2016-06-18T10:58:50Z</time>
      </trkpt>
      <trkpt lat="43.62949" lon="6.166">
        <ele>445.71</ele>
        <time>2016-06-18T10:58:56Z</time>
      </trkpt>
      <trkpt lat="43.62948" lon="6.16598">
        <ele>453.4</ele>
        <time>2016-06-18T10:58:57Z</time>
      </trkpt>
      <trkpt lat="43.62947" lon="6.16596">
        <ele>450.03</ele>
        <time>2016-06-18T10:58:58Z</time>
      </trkpt>
      <trkpt lat="43.62939" lon="6.16585">
        <ele>449.55</ele>
        <time>2016-06-18T10:59:05Z</time>
      </trkpt>
      <trkpt lat="43.62933" lon="6.1658">
        <ele>449.55</ele>
        <time>2016-06-18T10:59:18Z</time>
      </trkpt>
      <trkpt lat="43.62931" lon="6.16579">
        <ele>449.55</ele>
        <time>2016-06-18T10:59:27Z</time>
      </trkpt>
      <trkpt lat="43.62931" lon="6.16573">
        <ele>450.52</ele>
        <time>2016-06-18T10:59:36Z</time>
      </trkpt>
      <trkpt lat="43.62931" lon="6.16573">
        <ele>449.55</ele>
        <time>2016-06-18T10:59:46Z</time>
      </trkpt>
      <trkpt lat="43.62928" lon="6.16568">
        <ele>449.55</ele>
        <time>2016-06-18T10:59:58Z</time>
      </trkpt>
      <trkpt lat="43.62922" lon="6.1656">
        <ele>449.55</ele>
        <time>2016-06-18T11:00:03Z</time>
      </trkpt>
      <trkpt lat="43.62919" lon="6.16558">
        <ele>449.07</ele>
        <time>2016-06-18T11:00:12Z</time>
      </trkpt>
      <trkpt lat="43.62919" lon="6.16558">
        <ele>449.07</ele>
        <time>2016-06-18T11:00:14Z</time>
      </trkpt>
      <trkpt lat="43.62916" lon="6.16555">
        <ele>449.07</ele>
        <time>2016-06-18T11:00:23Z</time>
      </trkpt>
      <trkpt lat="43.62911" lon="6.16548">
        <ele>448.59</ele>
        <time>2016-06-18T11:00:29Z</time>
      </trkpt>
      <trkpt lat="43.62891" lon="6.16523">
        <ele>448.11</ele>
        <time>2016-06-18T11:00:44Z</time>
      </trkpt>
      <trkpt lat="43.62877" lon="6.16504">
        <ele>448.59</ele>
        <time>2016-06-18T11:00:55Z</time>
      </trkpt>
      <trkpt lat="43.62873" lon="6.16493">
        <ele>448.11</ele>
        <time>2016-06-18T11:01:00Z</time>
      </trkpt>
      <trkpt lat="43.62852" lon="6.16463">
        <ele>448.11</ele>
        <time>2016-06-18T11:01:16Z</time>
      </trkpt>
      <trkpt lat="43.62831" lon="6.16429">
        <ele>447.63</ele>
        <time>2016-06-18T11:01:28Z</time>
      </trkpt>
      <trkpt lat="43.62801" lon="6.16392">
        <ele>447.63</ele>
        <time>2016-06-18T11:01:39Z</time>
      </trkpt>
      <trkpt lat="43.62793" lon="6.16382">
        <ele>446.19</ele>
        <time>2016-06-18T11:01:42Z</time>
      </trkpt>
      <trkpt lat="43.62761" lon="6.1634">
        <ele>445.23</ele>
        <time>2016-06-18T11:01:54Z</time>
      </trkpt>
      <trkpt lat="43.6274" lon="6.16313">
        <ele>443.31</ele>
        <time>2016-06-18T11:02:00Z</time>
      </trkpt>
      <trkpt lat="43.62697" lon="6.16255">
        <ele>442.82</ele>
        <time>2016-06-18T11:02:13Z</time>
      </trkpt>
      <trkpt lat="43.62693" lon="6.1625">
        <ele>442.82</ele>
        <time>2016-06-18T11:02:14Z</time>
      </trkpt>
      <trkpt lat="43.62689" lon="6.16246">
        <ele>443.31</ele>
        <time>2016-06-18T11:02:15Z</time>
      </trkpt>
      <trkpt lat="43.62667" lon="6.16213">
        <ele>443.79</ele>
        <time>2016-06-18T11:02:25Z</time>
      </trkpt>
      <trkpt lat="43.62665" lon="6.16211">
        <ele>443.79</ele>
        <time>2016-06-18T11:02:38Z</time>
      </trkpt>
      <trkpt lat="43.62664" lon="6.16209">
        <ele>444.27</ele>
        <time>2016-06-18T11:02:39Z</time>
      </trkpt>
      <trkpt lat="43.62661" lon="6.16207">
        <ele>443.79</ele>
        <time>2016-06-18T11:02:45Z</time>
      </trkpt>
      <trkpt lat="43.62652" lon="6.16204">
        <ele>443.79</ele>
        <time>2016-06-18T11:02:53Z</time>
      </trkpt>
      <trkpt lat="43.62648" lon="6.16197">
        <ele>443.31</ele>
        <time>2016-06-18T11:02:59Z</time>
      </trkpt>
      <trkpt lat="43.62645" lon="6.16194">
        <ele>443.31</ele>
        <time>2016-06-18T11:03:03Z</time>
      </trkpt>
      <trkpt lat="43.62637" lon="6.16179">
        <ele>443.31</ele>
        <time>2016-06-18T11:03:13Z</time>
      </trkpt>
      <trkpt lat="43.62633" lon="6.16171">
        <ele>443.31</ele>
        <time>2016-06-18T11:03:17Z</time>
      </trkpt>
      <trkpt lat="43.62628" lon="6.16166">
        <ele>443.31</ele>
        <time>2016-06-18T11:03:20Z</time>
      </trkpt>
      <trkpt lat="43.62609" lon="6.16144">
        <ele>443.79</ele>
        <time>2016-06-18T11:03:34Z</time>
      </trkpt>
      <trkpt lat="43.62599" lon="6.16128">
        <ele>443.79</ele>
        <time>2016-06-18T11:03:45Z</time>
      </trkpt>
      <trkpt lat="43.62586" lon="6.16107">
        <ele>443.31</ele>
        <time>2016-06-18T11:03:58Z</time>
      </trkpt>
      <trkpt lat="43.62571" lon="6.16089">
        <ele>444.75</ele>
        <time>2016-06-18T11:04:11Z</time>
      </trkpt>
      <trkpt lat="43.6257" lon="6.16089">
        <ele>444.75</ele>
        <time>2016-06-18T11:04:12Z</time>
      </trkpt>
      <trkpt lat="43.62551" lon="6.16061">
        <ele>445.23</ele>
        <time>2016-06-18T11:04:30Z</time>
      </trkpt>
      <trkpt lat="43.62536" lon="6.16039">
        <ele>445.23</ele>
        <time>2016-06-18T11:04:44Z</time>
      </trkpt>
      <trkpt lat="43.62518" lon="6.16017">
        <ele>445.23</ele>
        <time>2016-06-18T11:05:01Z</time>
      </trkpt>
      <trkpt lat="43.62518" lon="6.16014">
        <ele>445.71</ele>
        <time>2016-06-18T11:05:14Z</time>
      </trkpt>
      <trkpt lat="43.62518" lon="6.16014">
        <ele>445.23</ele>
        <time>2016-06-18T11:05:28Z</time>
      </trkpt>
      <trkpt lat="43.62518" lon="6.16012">
        <ele>445.23</ele>
        <time>2016-06-18T11:05:44Z</time>
      </trkpt>
      <trkpt lat="43.62515" lon="6.16007">
        <ele>445.23</ele>
        <time>2016-06-18T11:05:55Z</time>
      </trkpt>
      <trkpt lat="43.62514" lon="6.16009">
        <ele>445.23</ele>
        <time>2016-06-18T11:06:23Z</time>
      </trkpt>
      <trkpt lat="43.62514" lon="6.16009">
        <ele>445.23</ele>
        <time>2016-06-18T11:06:33Z</time>
      </trkpt>
      <trkpt lat="43.62521" lon="6.16014">
        <ele>445.23</ele>
        <time>2016-06-18T11:06:44Z</time>
      </trkpt>
      <trkpt lat="43.6254" lon="6.16042">
        <ele>445.23</ele>
        <time>2016-06-18T11:07:01Z</time>
      </trkpt>
      <trkpt lat="43.6256" lon="6.16068">
        <ele>445.23</ele>
        <time>2016-06-18T11:07:17Z</time>
      </trkpt>
      <trkpt lat="43.62568" lon="6.1608">
        <ele>444.75</ele>
        <time>2016-06-18T11:07:24Z</time>
      </trkpt>
      <trkpt lat="43.62577" lon="6.16089">
        <ele>444.27</ele>
        <time>2016-06-18T11:07:31Z</time>
      </trkpt>
      <trkpt lat="43.62595" lon="6.1612">
        <ele>444.27</ele>
        <time>2016-06-18T11:07:48Z</time>
      </trkpt>
      <trkpt lat="43.62619" lon="6.1615">
        <ele>443.79</ele>
        <time>2016-06-18T11:08:07Z</time>
      </trkpt>
      <trkpt lat="43.62638" lon="6.16175">
        <ele>443.31</ele>
        <time>2016-06-18T11:08:23Z</time>
      </trkpt>
      <trkpt lat="43.62658" lon="6.16205">
        <ele>443.79</ele>
        <time>2016-06-18T11:08:40Z</time>
      </trkpt>
      <trkpt lat="43.62671" lon="6.16211">
        <ele>443.79</ele>
        <time>2016-06-18T11:08:50Z</time>
      </trkpt>
      <trkpt lat="43.62676" lon="6.16209">
        <ele>444.27</ele>
        <time>2016-06-18T11:08:54Z</time>
      </trkpt>
      <trkpt lat="43.62684" lon="6.16188">
        <ele>444.27</ele>
        <time>2016-06-18T11:09:08Z</time>
      </trkpt>
      <trkpt lat="43.62701" lon="6.1617">
        <ele>444.75</ele>
        <time>2016-06-18T11:09:22Z</time>
      </trkpt>
      <trkpt lat="43.62711" lon="6.16157">
        <ele>445.71</ele>
        <time>2016-06-18T11:09:32Z</time>
      </trkpt>
      <trkpt lat="43.62717" lon="6.1615">
        <ele>446.19</ele>
        <time>2016-06-18T11:09:37Z</time>
      </trkpt>
      <trkpt lat="43.62736" lon="6.16131">
        <ele>446.19</ele>
        <time>2016-06-18T11:09:52Z</time>
      </trkpt>
      <trkpt lat="43.62757" lon="6.16114">
        <ele>446.67</ele>
        <time>2016-06-18T11:10:07Z</time>
      </trkpt>
      <trkpt lat="43.62777" lon="6.16106">
        <ele>447.15</ele>
        <time>2016-06-18T11:10:20Z</time>
      </trkpt>
      <trkpt lat="43.62804" lon="6.16095">
        <ele>447.63</ele>
        <time>2016-06-18T11:10:37Z</time>
      </trkpt>
      <trkpt lat="43.62818" lon="6.16094">
        <ele>448.11</ele>
        <time>2016-06-18T11:10:46Z</time>
      </trkpt>
      <trkpt lat="43.62846" lon="6.16097">
        <ele>448.11</ele>
        <time>2016-06-18T11:11:03Z</time>
      </trkpt>
      <trkpt lat="43.62861" lon="6.16111">
        <ele>448.59</ele>
        <time>2016-06-18T11:11:13Z</time>
      </trkpt>
      <trkpt lat="43.62879" lon="6.16127">
        <ele>448.11</ele>
        <time>2016-06-18T11:11:29Z</time>
      </trkpt>
      <trkpt lat="43.62878" lon="6.16126">
        <ele>443.31</ele>
        <time>2016-06-18T11:11:38Z</time>
      </trkpt>
      <trkpt lat="43.62879" lon="6.16127">
        <ele>454.84</ele>
        <time>2016-06-18T11:11:39Z</time>
      </trkpt>
      <trkpt lat="43.6288" lon="6.16127">
        <ele>448.59</ele>
        <time>2016-06-18T11:11:40Z</time>
      </trkpt>
      <trkpt lat="43.62881" lon="6.16127">
        <ele>445.23</ele>
        <time>2016-06-18T11:11:46Z</time>
      </trkpt>
      <trkpt lat="43.62882" lon="6.16127">
        <ele>451.96</ele>
        <time>2016-06-18T11:11:48Z</time>
      </trkpt>
      <trkpt lat="43.62881" lon="6.16127">
        <ele>448.59</ele>
        <time>2016-06-18T11:11:49Z</time>
      </trkpt>
      <trkpt lat="43.62882" lon="6.16123">
        <ele>448.11</ele>
        <time>2016-06-18T11:12:04Z</time>
      </trkpt>
      <trkpt lat="43.62882" lon="6.16123">
        <ele>444.75</ele>
        <time>2016-06-18T11:12:22Z</time>
      </trkpt>
      <trkpt lat="43.62884" lon="6.16119">
        <ele>448.59</ele>
        <time>2016-06-18T11:12:25Z</time>
      </trkpt>
      <trkpt lat="43.62896" lon="6.16094">
        <ele>449.07</ele>
        <time>2016-06-18T11:12:41Z</time>
      </trkpt>
      <trkpt lat="43.62906" lon="6.16075">
        <ele>450.03</ele>
        <time>2016-06-18T11:12:52Z</time>
      </trkpt>
      <trkpt lat="43.62918" lon="6.16049">
        <ele>451.48</ele>
        <time>2016-06-18T11:13:06Z</time>
      </trkpt>
      <trkpt lat="43.62933" lon="6.16021">
        <ele>452.44</ele>
        <time>2016-06-18T11:13:22Z</time>
      </trkpt>
      <trkpt lat="43.62941" lon="6.15997">
        <ele>453.88</ele>
        <time>2016-06-18T11:13:35Z</time>
      </trkpt>
      <trkpt lat="43.62948" lon="6.15971">
        <ele>455.32</ele>
        <time>2016-06-18T11:13:49Z</time>
      </trkpt>
      <trkpt lat="43.62954" lon="6.15945">
        <ele>456.28</ele>
        <time>2016-06-18T11:14:01Z</time>
      </trkpt>
      <trkpt lat="43.62962" lon="6.1591">
        <ele>457.72</ele>
        <time>2016-06-18T11:14:17Z</time>
      </trkpt>
      <trkpt lat="43.62969" lon="6.15888">
        <ele>457.72</ele>
        <time>2016-06-18T11:14:28Z</time>
      </trkpt>
      <trkpt lat="43.62971" lon="6.15885">
        <ele>464.45</ele>
        <time>2016-06-18T11:14:30Z</time>
      </trkpt>
      <trkpt lat="43.62973" lon="6.15884">
        <ele>458.21</ele>
        <time>2016-06-18T11:14:31Z</time>
      </trkpt>
      <trkpt lat="43.62992" lon="6.15865">
        <ele>459.65</ele>
        <time>2016-06-18T11:14:46Z</time>
      </trkpt>
      <trkpt lat="43.62995" lon="6.15863">
        <ele>461.57</ele>
        <time>2016-06-18T11:14:48Z</time>
      </trkpt>
      <trkpt lat="43.63016" lon="6.15843">
        <ele>460.13</ele>
        <time>2016-06-18T11:15:04Z</time>
      </trkpt>
      <trkpt lat="43.63033" lon="6.15822">
        <ele>461.57</ele>
        <time>2016-06-18T11:15:19Z</time>
      </trkpt>
      <trkpt lat="43.63048" lon="6.15805">
        <ele>461.57</ele>
        <time>2016-06-18T11:15:31Z</time>
      </trkpt>
      <trkpt lat="43.63063" lon="6.15786">
        <ele>462.53</ele>
        <time>2016-06-18T11:15:44Z</time>
      </trkpt>
      <trkpt lat="43.63074" lon="6.1576">
        <ele>463.01</ele>
        <time>2016-06-18T11:15:58Z</time>
      </trkpt>
      <trkpt lat="43.63093" lon="6.15733">
        <ele>463.97</ele>
        <time>2016-06-18T11:16:16Z</time>
      </trkpt>
      <trkpt lat="43.63113" lon="6.15716">
        <ele>464.93</ele>
        <time>2016-06-18T11:16:30Z</time>
      </trkpt>
      <trkpt lat="43.6313" lon="6.15697">
        <ele>465.42</ele>
        <time>2016-06-18T11:16:43Z</time>
      </trkpt>
      <trkpt lat="43.63147" lon="6.15673">
        <ele>466.38</ele>
        <time>2016-06-18T11:16:59Z</time>
      </trkpt>
      <trkpt lat="43.63165" lon="6.15661">
        <ele>467.34</ele>
        <time>2016-06-18T11:17:12Z</time>
      </trkpt>
      <trkpt lat="43.63171" lon="6.15654">
        <ele>467.34</ele>
        <time>2016-06-18T11:17:17Z</time>
      </trkpt>
      <trkpt lat="43.63173" lon="6.15649">
        <ele>467.82</ele>
        <time>2016-06-18T11:17:20Z</time>
      </trkpt>
      <trkpt lat="43.63177" lon="6.15632">
        <ele>467.82</ele>
        <time>2016-06-18T11:17:28Z</time>
      </trkpt>
      <trkpt lat="43.6318" lon="6.15617">
        <ele>468.3</ele>
        <time>2016-06-18T11:17:36Z</time>
      </trkpt>
      <trkpt lat="43.63187" lon="6.15589">
        <ele>468.78</ele>
        <time>2016-06-18T11:17:50Z</time>
      </trkpt>
      <trkpt lat="43.6319" lon="6.15577">
        <ele>468.78</ele>
        <time>2016-06-18T11:17:56Z</time>
      </trkpt>
      <trkpt lat="43.63192" lon="6.15572">
        <ele>468.78</ele>
        <time>2016-06-18T11:17:59Z</time>
      </trkpt>
      <trkpt lat="43.63194" lon="6.15554">
        <ele>469.26</ele>
        <time>2016-06-18T11:18:06Z</time>
      </trkpt>
      <trkpt lat="43.63193" lon="6.15526">
        <ele>469.74</ele>
        <time>2016-06-18T11:18:19Z</time>
      </trkpt>
      <trkpt lat="43.63192" lon="6.15506">
        <ele>469.74</ele>
        <time>2016-06-18T11:18:28Z</time>
      </trkpt>
      <trkpt lat="43.6319" lon="6.15499">
        <ele>469.74</ele>
        <time>2016-06-18T11:18:32Z</time>
      </trkpt>
      <trkpt lat="43.6319" lon="6.15483">
        <ele>469.26</ele>
        <time>2016-06-18T11:18:42Z</time>
      </trkpt>
      <trkpt lat="43.63189" lon="6.15475">
        <ele>469.26</ele>
        <time>2016-06-18T11:18:46Z</time>
      </trkpt>
      <trkpt lat="43.63188" lon="6.15463">
        <ele>469.74</ele>
        <time>2016-06-18T11:18:52Z</time>
      </trkpt>
      <trkpt lat="43.63187" lon="6.1546">
        <ele>469.74</ele>
        <time>2016-06-18T11:18:54Z</time>
      </trkpt>
      <trkpt lat="43.63188" lon="6.15454">
        <ele>464.93</ele>
        <time>2016-06-18T11:18:57Z</time>
      </trkpt>
      <trkpt lat="43.63188" lon="6.15452">
        <ele>474.07</ele>
        <time>2016-06-18T11:18:58Z</time>
      </trkpt>
      <trkpt lat="43.63188" lon="6.15449">
        <ele>469.74</ele>
        <time>2016-06-18T11:18:59Z</time>
      </trkpt>
      <trkpt lat="43.63188" lon="6.15427">
        <ele>470.22</ele>
        <time>2016-06-18T11:19:10Z</time>
      </trkpt>
      <trkpt lat="43.63194" lon="6.15402">
        <ele>470.22</ele>
        <time>2016-06-18T11:19:22Z</time>
      </trkpt>
      <trkpt lat="43.63197" lon="6.15394">
        <ele>470.7</ele>
        <time>2016-06-18T11:19:26Z</time>
      </trkpt>
      <trkpt lat="43.63201" lon="6.15382">
        <ele>470.22</ele>
        <time>2016-06-18T11:19:31Z</time>
      </trkpt>
      <trkpt lat="43.63203" lon="6.15347">
        <ele>471.66</ele>
        <time>2016-06-18T11:19:49Z</time>
      </trkpt>
      <trkpt lat="43.63204" lon="6.15316">
        <ele>472.63</ele>
        <time>2016-06-18T11:20:04Z</time>
      </trkpt>
      <trkpt lat="43.63203" lon="6.15289">
        <ele>473.11</ele>
        <time>2016-06-18T11:20:17Z</time>
      </trkpt>
      <trkpt lat="43.63198" lon="6.15263">
        <ele>473.59</ele>
        <time>2016-06-18T11:20:30Z</time>
      </trkpt>
      <trkpt lat="43.63197" lon="6.15246">
        <ele>474.55</ele>
        <time>2016-06-18T11:20:41Z</time>
      </trkpt>
      <trkpt lat="43.63198" lon="6.15243">
        <ele>475.03</ele>
        <time>2016-06-18T11:20:53Z</time>
      </trkpt>
      <trkpt lat="43.632" lon="6.15244">
        <ele>475.03</ele>
        <time>2016-06-18T11:21:06Z</time>
      </trkpt>
      <trkpt lat="43.632" lon="6.15243">
        <ele>474.55</ele>
        <time>2016-06-18T11:21:22Z</time>
      </trkpt>
      <trkpt lat="43.632" lon="6.15243">
        <ele>477.91</ele>
        <time>2016-06-18T11:21:28Z</time>
      </trkpt>
      <trkpt lat="43.632" lon="6.15243">
        <ele>474.55</ele>
        <time>2016-06-18T11:21:29Z</time>
      </trkpt>
      <trkpt lat="43.63201" lon="6.15242">
        <ele>471.66</ele>
        <time>2016-06-18T11:21:50Z</time>
      </trkpt>
      <trkpt lat="43.63201" lon="6.15242">
        <ele>476.47</ele>
        <time>2016-06-18T11:21:51Z</time>
      </trkpt>
      <trkpt lat="43.632" lon="6.15242">
        <ele>471.18</ele>
        <time>2016-06-18T11:21:57Z</time>
      </trkpt>
      <trkpt lat="43.632" lon="6.15242">
        <ele>477.43</ele>
        <time>2016-06-18T11:21:58Z</time>
      </trkpt>
      <trkpt lat="43.632" lon="6.15242">
        <ele>474.55</ele>
        <time>2016-06-18T11:21:59Z</time>
      </trkpt>
      <trkpt lat="43.632" lon="6.15242">
        <ele>475.03</ele>
        <time>2016-06-18T11:22:13Z</time>
      </trkpt>
      <trkpt lat="43.632" lon="6.15243">
        <ele>478.87</ele>
        <time>2016-06-18T11:22:22Z</time>
      </trkpt>
      <trkpt lat="43.632" lon="6.15243">
        <ele>474.07</ele>
        <time>2016-06-18T11:22:23Z</time>
      </trkpt>
      <trkpt lat="43.632" lon="6.15243">
        <ele>477.43</ele>
        <time>2016-06-18T11:22:28Z</time>
      </trkpt>
      <trkpt lat="43.632" lon="6.15243">
        <ele>472.63</ele>
        <time>2016-06-18T11:22:29Z</time>
      </trkpt>
      <trkpt lat="43.632" lon="6.15243">
        <ele>475.99</ele>
        <time>2016-06-18T11:22:30Z</time>
      </trkpt>
      <trkpt lat="43.632" lon="6.15243">
        <ele>471.66</ele>
        <time>2016-06-18T11:22:37Z</time>
      </trkpt>
      <trkpt lat="43.632" lon="6.15243">
        <ele>475.03</ele>
        <time>2016-06-18T11:22:39Z</time>
      </trkpt>
      <trkpt lat="43.632" lon="6.15243">
        <ele>474.55</ele>
        <time>2016-06-18T11:22:53Z</time>
      </trkpt>
      <trkpt lat="43.632" lon="6.15243">
        <ele>470.7</ele>
        <time>2016-06-18T11:22:57Z</time>
      </trkpt>
      <trkpt lat="43.632" lon="6.15243">
        <ele>476.95</ele>
        <time>2016-06-18T11:22:58Z</time>
      </trkpt>
      <trkpt lat="43.632" lon="6.15243">
        <ele>473.59</ele>
        <time>2016-06-18T11:23:01Z</time>
      </trkpt>
      <trkpt lat="43.632" lon="6.15243">
        <ele>476.95</ele>
        <time>2016-06-18T11:23:07Z</time>
      </trkpt>
      <trkpt lat="43.632" lon="6.15243">
        <ele>471.18</ele>
        <time>2016-06-18T11:23:08Z</time>
      </trkpt>
      <trkpt lat="43.632" lon="6.15243">
        <ele>478.39</ele>
        <time>2016-06-18T11:23:09Z</time>
      </trkpt>
      <trkpt lat="43.632" lon="6.15243">
        <ele>474.55</ele>
        <time>2016-06-18T11:23:10Z</time>
      </trkpt>
      <trkpt lat="43.632" lon="6.15243">
        <ele>470.7</ele>
        <time>2016-06-18T11:23:18Z</time>
      </trkpt>
      <trkpt lat="43.632" lon="6.15243">
        <ele>477.91</ele>
        <time>2016-06-18T11:23:19Z</time>
      </trkpt>
      <trkpt lat="43.632" lon="6.15243">
        <ele>474.07</ele>
        <time>2016-06-18T11:23:20Z</time>
      </trkpt>
      <trkpt lat="43.632" lon="6.15243">
        <ele>472.14</ele>
        <time>2016-06-18T11:23:46Z</time>
      </trkpt>
      <trkpt lat="43.632" lon="6.15243">
        <ele>477.43</ele>
        <time>2016-06-18T11:23:49Z</time>
      </trkpt>
      <trkpt lat="43.632" lon="6.15243">
        <ele>473.11</ele>
        <time>2016-06-18T11:23:50Z</time>
      </trkpt>
      <trkpt lat="43.63202" lon="6.15244">
        <ele>474.07</ele>
        <time>2016-06-18T11:24:04Z</time>
      </trkpt>
      <trkpt lat="43.63203" lon="6.15246">
        <ele>474.07</ele>
        <time>2016-06-18T11:24:17Z</time>
      </trkpt>
      <trkpt lat="43.63203" lon="6.15247">
        <ele>474.07</ele>
        <time>2016-06-18T11:24:32Z</time>
      </trkpt>
      <trkpt lat="43.63203" lon="6.15248">
        <ele>473.59</ele>
        <time>2016-06-18T11:24:35Z</time>
      </trkpt>
      <trkpt lat="43.632" lon="6.15248">
        <ele>473.59</ele>
        <time>2016-06-18T11:24:39Z</time>
      </trkpt>
      <trkpt lat="43.63192" lon="6.15237">
        <ele>470.22</ele>
        <time>2016-06-18T11:24:47Z</time>
      </trkpt>
      <trkpt lat="43.63191" lon="6.15236">
        <ele>475.51</ele>
        <time>2016-06-18T11:24:48Z</time>
      </trkpt>
      <trkpt lat="43.63188" lon="6.15233">
        <ele>471.66</ele>
        <time>2016-06-18T11:24:51Z</time>
      </trkpt>
      <trkpt lat="43.63187" lon="6.15232">
        <ele>475.51</ele>
        <time>2016-06-18T11:24:52Z</time>
      </trkpt>
      <trkpt lat="43.63186" lon="6.15231">
        <ele>469.74</ele>
        <time>2016-06-18T11:24:53Z</time>
      </trkpt>
      <trkpt lat="43.63185" lon="6.1523">
        <ele>476.47</ele>
        <time>2016-06-18T11:24:54Z</time>
      </trkpt>
      <trkpt lat="43.63183" lon="6.15228">
        <ele>472.63</ele>
        <time>2016-06-18T11:24:55Z</time>
      </trkpt>
      <trkpt lat="43.6317" lon="6.15216">
        <ele>472.14</ele>
        <time>2016-06-18T11:25:06Z</time>
      </trkpt>
      <trkpt lat="43.63152" lon="6.15199">
        <ele>472.63</ele>
        <time>2016-06-18T11:25:20Z</time>
      </trkpt>
      <trkpt lat="43.63137" lon="6.1518">
        <ele>473.11</ele>
        <time>2016-06-18T11:25:34Z</time>
      </trkpt>
      <trkpt lat="43.63118" lon="6.15162">
        <ele>474.55</ele>
        <time>2016-06-18T11:25:47Z</time>
      </trkpt>
      <trkpt lat="43.63115" lon="6.15159">
        <ele>473.11</ele>
        <time>2016-06-18T11:25:49Z</time>
      </trkpt>
      <trkpt lat="43.63111" lon="6.15155">
        <ele>470.22</ele>
        <time>2016-06-18T11:25:52Z</time>
      </trkpt>
      <trkpt lat="43.6311" lon="6.15154">
        <ele>474.55</ele>
        <time>2016-06-18T11:25:53Z</time>
      </trkpt>
      <trkpt lat="43.63108" lon="6.15151">
        <ele>470.7</ele>
        <time>2016-06-18T11:25:55Z</time>
      </trkpt>
      <trkpt lat="43.63107" lon="6.1515">
        <ele>474.55</ele>
        <time>2016-06-18T11:25:56Z</time>
      </trkpt>
      <trkpt lat="43.63091" lon="6.1513">
        <ele>471.66</ele>
        <time>2016-06-18T11:26:11Z</time>
      </trkpt>
      <trkpt lat="43.63081" lon="6.1512">
        <ele>471.66</ele>
        <time>2016-06-18T11:26:28Z</time>
      </trkpt>
      <trkpt lat="43.63078" lon="6.15116">
        <ele>471.18</ele>
        <time>2016-06-18T11:26:31Z</time>
      </trkpt>
      <trkpt lat="43.63073" lon="6.15108">
        <ele>471.18</ele>
        <time>2016-06-18T11:26:36Z</time>
      </trkpt>
      <trkpt lat="43.63065" lon="6.15096">
        <ele>467.34</ele>
        <time>2016-06-18T11:26:44Z</time>
      </trkpt>
      <trkpt lat="43.63064" lon="6.15094">
        <ele>474.55</ele>
        <time>2016-06-18T11:26:45Z</time>
      </trkpt>
      <trkpt lat="43.63063" lon="6.15092">
        <ele>471.18</ele>
        <time>2016-06-18T11:26:46Z</time>
      </trkpt>
      <trkpt lat="43.63048" lon="6.15067">
        <ele>470.7</ele>
        <time>2016-06-18T11:27:01Z</time>
      </trkpt>
      <trkpt lat="43.63026" lon="6.15033">
        <ele>469.74</ele>
        <time>2016-06-18T11:27:22Z</time>
      </trkpt>
      <trkpt lat="43.63024" lon="6.15032">
        <ele>469.74</ele>
        <time>2016-06-18T11:27:23Z</time>
      </trkpt>
      <trkpt lat="43.62996" lon="6.15007">
        <ele>466.86</ele>
        <time>2016-06-18T11:27:42Z</time>
      </trkpt>
      <trkpt lat="43.62969" lon="6.14992">
        <ele>463.97</ele>
        <time>2016-06-18T11:28:00Z</time>
      </trkpt>
      <trkpt lat="43.62941" lon="6.14972">
        <ele>467.34</ele>
        <time>2016-06-18T11:28:10Z</time>
      </trkpt>
      <trkpt lat="43.62938" lon="6.1497">
        <ele>467.82</ele>
        <time>2016-06-18T11:28:11Z</time>
      </trkpt>
      <trkpt lat="43.62906" lon="6.14954">
        <ele>470.7</ele>
        <time>2016-06-18T11:28:21Z</time>
      </trkpt>
      <trkpt lat="43.62865" lon="6.14926">
        <ele>472.63</ele>
        <time>2016-06-18T11:28:35Z</time>
      </trkpt>
      <trkpt lat="43.62806" lon="6.14891">
        <ele>473.59</ele>
        <time>2016-06-18T11:28:52Z</time>
      </trkpt>
      <trkpt lat="43.62774" lon="6.14876">
        <ele>475.99</ele>
        <time>2016-06-18T11:29:01Z</time>
      </trkpt>
      <trkpt lat="43.62762" lon="6.1486">
        <ele>476.47</ele>
        <time>2016-06-18T11:29:06Z</time>
      </trkpt>
      <trkpt lat="43.62759" lon="6.14854">
        <ele>473.11</ele>
        <time>2016-06-18T11:29:16Z</time>
      </trkpt>
      <trkpt lat="43.62759" lon="6.14854">
        <ele>480.32</ele>
        <time>2016-06-18T11:29:17Z</time>
      </trkpt>
      <trkpt lat="43.62759" lon="6.14854">
        <ele>476.95</ele>
        <time>2016-06-18T11:29:19Z</time>
      </trkpt>
      <trkpt lat="43.62757" lon="6.14853">
        <ele>476.95</ele>
        <time>2016-06-18T11:29:21Z</time>
      </trkpt>
      <trkpt lat="43.62752" lon="6.14847">
        <ele>476.95</ele>
        <time>2016-06-18T11:29:26Z</time>
      </trkpt>
      <trkpt lat="43.62744" lon="6.14839">
        <ele>476.95</ele>
        <time>2016-06-18T11:29:32Z</time>
      </trkpt>
      <trkpt lat="43.62738" lon="6.14832">
        <ele>477.43</ele>
        <time>2016-06-18T11:29:38Z</time>
      </trkpt>
      <trkpt lat="43.62735" lon="6.1483">
        <ele>477.91</ele>
        <time>2016-06-18T11:29:41Z</time>
      </trkpt>
      <trkpt lat="43.62725" lon="6.14823">
        <ele>474.07</ele>
        <time>2016-06-18T11:29:49Z</time>
      </trkpt>
      <trkpt lat="43.62725" lon="6.14823">
        <ele>478.39</ele>
        <time>2016-06-18T11:29:50Z</time>
      </trkpt>
      <trkpt lat="43.62725" lon="6.14823">
        <ele>479.35</ele>
        <time>2016-06-18T11:29:52Z</time>
      </trkpt>
      <trkpt lat="43.62725" lon="6.14823">
        <ele>476.47</ele>
        <time>2016-06-18T11:29:53Z</time>
      </trkpt>
      <trkpt lat="43.62725" lon="6.14823">
        <ele>481.28</ele>
        <time>2016-06-18T11:29:55Z</time>
      </trkpt>
      <trkpt lat="43.62725" lon="6.14824">
        <ele>475.03</ele>
        <time>2016-06-18T11:29:58Z</time>
      </trkpt>
      <trkpt lat="43.62725" lon="6.14824">
        <ele>481.76</ele>
        <time>2016-06-18T11:29:59Z</time>
      </trkpt>
      <trkpt lat="43.62725" lon="6.14824">
        <ele>477.91</ele>
        <time>2016-06-18T11:30:00Z</time>
      </trkpt>
      <trkpt lat="43.62725" lon="6.14824">
        <ele>474.55</ele>
        <time>2016-06-18T11:30:02Z</time>
      </trkpt>
      <trkpt lat="43.62725" lon="6.14824">
        <ele>478.39</ele>
        <time>2016-06-18T11:30:03Z</time>
      </trkpt>
      <trkpt lat="43.62725" lon="6.14824">
        <ele>481.76</ele>
        <time>2016-06-18T11:30:04Z</time>
      </trkpt>
      <trkpt lat="43.62725" lon="6.14824">
        <ele>478.39</ele>
        <time>2016-06-18T11:30:05Z</time>
      </trkpt>
      <trkpt lat="43.62726" lon="6.14825">
        <ele>478.39</ele>
        <time>2016-06-18T11:30:13Z</time>
      </trkpt>
      <trkpt lat="43.62745" lon="6.14836">
        <ele>477.91</ele>
        <time>2016-06-18T11:30:24Z</time>
      </trkpt>
      <trkpt lat="43.62759" lon="6.1485">
        <ele>477.91</ele>
        <time>2016-06-18T11:30:37Z</time>
      </trkpt>
      <trkpt lat="43.62763" lon="6.14844">
        <ele>477.91</ele>
        <time>2016-06-18T11:30:42Z</time>
      </trkpt>
      <trkpt lat="43.6277" lon="6.1481">
        <ele>479.84</ele>
        <time>2016-06-18T11:30:55Z</time>
      </trkpt>
      <trkpt lat="43.62789" lon="6.14768">
        <ele>481.76</ele>
        <time>2016-06-18T11:31:08Z</time>
      </trkpt>
      <trkpt lat="43.62795" lon="6.14714">
        <ele>484.16</ele>
        <time>2016-06-18T11:31:22Z</time>
      </trkpt>
      <trkpt lat="43.62812" lon="6.14663">
        <ele>486.56</ele>
        <time>2016-06-18T11:31:35Z</time>
      </trkpt>
      <trkpt lat="43.62841" lon="6.14618">
        <ele>488.01</ele>
        <time>2016-06-18T11:31:49Z</time>
      </trkpt>
      <trkpt lat="43.62849" lon="6.14575">
        <ele>490.89</ele>
        <time>2016-06-18T11:31:59Z</time>
      </trkpt>
      <trkpt lat="43.62869" lon="6.14535">
        <ele>494.26</ele>
        <time>2016-06-18T11:32:08Z</time>
      </trkpt>
      <trkpt lat="43.62872" lon="6.14492">
        <ele>496.66</ele>
        <time>2016-06-18T11:32:15Z</time>
      </trkpt>
      <trkpt lat="43.62871" lon="6.14477">
        <ele>498.1</ele>
        <time>2016-06-18T11:32:17Z</time>
      </trkpt>
      <trkpt lat="43.62871" lon="6.1447">
        <ele>498.58</ele>
        <time>2016-06-18T11:32:18Z</time>
      </trkpt>
      <trkpt lat="43.62873" lon="6.14463">
        <ele>499.06</ele>
        <time>2016-06-18T11:32:19Z</time>
      </trkpt>
      <trkpt lat="43.62888" lon="6.14426">
        <ele>502.43</ele>
        <time>2016-06-18T11:32:24Z</time>
      </trkpt>
      <trkpt lat="43.62901" lon="6.14396">
        <ele>505.79</ele>
        <time>2016-06-18T11:32:28Z</time>
      </trkpt>
      <trkpt lat="43.62916" lon="6.14359">
        <ele>508.67</ele>
        <time>2016-06-18T11:32:33Z</time>
      </trkpt>
      <trkpt lat="43.62923" lon="6.14345">
        <ele>509.64</ele>
        <time>2016-06-18T11:32:35Z</time>
      </trkpt>
      <trkpt lat="43.62926" lon="6.14339">
        <ele>509.16</ele>
        <time>2016-06-18T11:32:36Z</time>
      </trkpt>
      <trkpt lat="43.6293" lon="6.14335">
        <ele>509.64</ele>
        <time>2016-06-18T11:32:37Z</time>
      </trkpt>
      <trkpt lat="43.62953" lon="6.14312">
        <ele>511.56</ele>
        <time>2016-06-18T11:32:43Z</time>
      </trkpt>
      <trkpt lat="43.62956" lon="6.14307">
        <ele>512.04</ele>
        <time>2016-06-18T11:32:44Z</time>
      </trkpt>
      <trkpt lat="43.62959" lon="6.14302">
        <ele>512.04</ele>
        <time>2016-06-18T11:32:45Z</time>
      </trkpt>
      <trkpt lat="43.62963" lon="6.14291">
        <ele>511.56</ele>
        <time>2016-06-18T11:32:47Z</time>
      </trkpt>
      <trkpt lat="43.62964" lon="6.14285">
        <ele>512.52</ele>
        <time>2016-06-18T11:32:48Z</time>
      </trkpt>
      <trkpt lat="43.62964" lon="6.14279">
        <ele>512.52</ele>
        <time>2016-06-18T11:32:49Z</time>
      </trkpt>
      <trkpt lat="43.62965" lon="6.14273">
        <ele>513</ele>
        <time>2016-06-18T11:32:50Z</time>
      </trkpt>
      <trkpt lat="43.62964" lon="6.14268">
        <ele>513.48</ele>
        <time>2016-06-18T11:32:51Z</time>
      </trkpt>
      <trkpt lat="43.62963" lon="6.14204">
        <ele>513.96</ele>
        <time>2016-06-18T11:33:03Z</time>
      </trkpt>
      <trkpt lat="43.62972" lon="6.14155">
        <ele>513.96</ele>
        <time>2016-06-18T11:33:17Z</time>
      </trkpt>
      <trkpt lat="43.62983" lon="6.14115">
        <ele>513.96</ele>
        <time>2016-06-18T11:33:32Z</time>
      </trkpt>
      <trkpt lat="43.62985" lon="6.1409">
        <ele>513.96</ele>
        <time>2016-06-18T11:33:44Z</time>
      </trkpt>
      <trkpt lat="43.62985" lon="6.14088">
        <ele>513.48</ele>
        <time>2016-06-18T11:33:45Z</time>
      </trkpt>
      <trkpt lat="43.62986" lon="6.14085">
        <ele>513</ele>
        <time>2016-06-18T11:33:46Z</time>
      </trkpt>
      <trkpt lat="43.62987" lon="6.14083">
        <ele>514.44</ele>
        <time>2016-06-18T11:33:47Z</time>
      </trkpt>
      <trkpt lat="43.63005" lon="6.1407">
        <ele>514.44</ele>
        <time>2016-06-18T11:33:59Z</time>
      </trkpt>
      <trkpt lat="43.63014" lon="6.14065">
        <ele>514.44</ele>
        <time>2016-06-18T11:34:06Z</time>
      </trkpt>
      <trkpt lat="43.63015" lon="6.14064">
        <ele>514.44</ele>
        <time>2016-06-18T11:34:07Z</time>
      </trkpt>
      <trkpt lat="43.63024" lon="6.14059">
        <ele>514.44</ele>
        <time>2016-06-18T11:34:13Z</time>
      </trkpt>
      <trkpt lat="43.63026" lon="6.14058">
        <ele>514.44</ele>
        <time>2016-06-18T11:34:14Z</time>
      </trkpt>
      <trkpt lat="43.63028" lon="6.14057">
        <ele>514.44</ele>
        <time>2016-06-18T11:34:15Z</time>
      </trkpt>
      <trkpt lat="43.63029" lon="6.14056">
        <ele>514.44</ele>
        <time>2016-06-18T11:34:16Z</time>
      </trkpt>
      <trkpt lat="43.63031" lon="6.14055">
        <ele>514.92</ele>
        <time>2016-06-18T11:34:17Z</time>
      </trkpt>
      <trkpt lat="43.63033" lon="6.14054">
        <ele>514.44</ele>
        <time>2016-06-18T11:34:18Z</time>
      </trkpt>
      <trkpt lat="43.63034" lon="6.14053">
        <ele>514.92</ele>
        <time>2016-06-18T11:34:19Z</time>
      </trkpt>
      <trkpt lat="43.63036" lon="6.14053">
        <ele>514.44</ele>
        <time>2016-06-18T11:34:20Z</time>
      </trkpt>
      <trkpt lat="43.63037" lon="6.14052">
        <ele>514.44</ele>
        <time>2016-06-18T11:34:21Z</time>
      </trkpt>
      <trkpt lat="43.63039" lon="6.14051">
        <ele>514.44</ele>
        <time>2016-06-18T11:34:22Z</time>
      </trkpt>
      <trkpt lat="43.63054" lon="6.14042">
        <ele>514.44</ele>
        <time>2016-06-18T11:34:34Z</time>
      </trkpt>
      <trkpt lat="43.63056" lon="6.14041">
        <ele>514.44</ele>
        <time>2016-06-18T11:34:35Z</time>
      </trkpt>
      <trkpt lat="43.63085" lon="6.14022">
        <ele>514.44</ele>
        <time>2016-06-18T11:34:54Z</time>
      </trkpt>
      <trkpt lat="43.63099" lon="6.14">
        <ele>515.4</ele>
        <time>2016-06-18T11:35:07Z</time>
      </trkpt>
      <trkpt lat="43.63112" lon="6.1398">
        <ele>515.4</ele>
        <time>2016-06-18T11:35:19Z</time>
      </trkpt>
      <trkpt lat="43.63113" lon="6.13979">
        <ele>511.56</ele>
        <time>2016-06-18T11:35:20Z</time>
      </trkpt>
      <trkpt lat="43.63115" lon="6.13977">
        <ele>517.81</ele>
        <time>2016-06-18T11:35:21Z</time>
      </trkpt>
      <trkpt lat="43.63118" lon="6.13973">
        <ele>515.4</ele>
        <time>2016-06-18T11:35:24Z</time>
      </trkpt>
      <trkpt lat="43.63123" lon="6.13969">
        <ele>512.04</ele>
        <time>2016-06-18T11:35:28Z</time>
      </trkpt>
      <trkpt lat="43.63125" lon="6.13968">
        <ele>518.77</ele>
        <time>2016-06-18T11:35:29Z</time>
      </trkpt>
      <trkpt lat="43.63126" lon="6.13967">
        <ele>515.4</ele>
        <time>2016-06-18T11:35:30Z</time>
      </trkpt>
      <trkpt lat="43.63148" lon="6.13942">
        <ele>515.88</ele>
        <time>2016-06-18T11:35:46Z</time>
      </trkpt>
      <trkpt lat="43.63159" lon="6.13922">
        <ele>515.88</ele>
        <time>2016-06-18T11:35:58Z</time>
      </trkpt>
      <trkpt lat="43.63172" lon="6.1389">
        <ele>515.88</ele>
        <time>2016-06-18T11:36:13Z</time>
      </trkpt>
      <trkpt lat="43.63177" lon="6.13853">
        <ele>515.4</ele>
        <time>2016-06-18T11:36:32Z</time>
      </trkpt>
      <trkpt lat="43.63184" lon="6.13822">
        <ele>514.92</ele>
        <time>2016-06-18T11:36:48Z</time>
      </trkpt>
      <trkpt lat="43.63188" lon="6.13794">
        <ele>514.44</ele>
        <time>2016-06-18T11:37:02Z</time>
      </trkpt>
      <trkpt lat="43.63193" lon="6.13777">
        <ele>510.6</ele>
        <time>2016-06-18T11:37:10Z</time>
      </trkpt>
      <trkpt lat="43.63194" lon="6.13776">
        <ele>516.85</ele>
        <time>2016-06-18T11:37:11Z</time>
      </trkpt>
      <trkpt lat="43.63196" lon="6.13772">
        <ele>509.64</ele>
        <time>2016-06-18T11:37:13Z</time>
      </trkpt>
      <trkpt lat="43.63196" lon="6.13771">
        <ele>519.25</ele>
        <time>2016-06-18T11:37:14Z</time>
      </trkpt>
      <trkpt lat="43.63197" lon="6.13769">
        <ele>513.96</ele>
        <time>2016-06-18T11:37:15Z</time>
      </trkpt>
      <trkpt lat="43.63209" lon="6.1375">
        <ele>513.96</ele>
        <time>2016-06-18T11:37:27Z</time>
      </trkpt>
      <trkpt lat="43.63218" lon="6.13724">
        <ele>514.44</ele>
        <time>2016-06-18T11:37:43Z</time>
      </trkpt>
      <trkpt lat="43.63218" lon="6.13722">
        <ele>510.6</ele>
        <time>2016-06-18T11:37:57Z</time>
      </trkpt>
      <trkpt lat="43.63218" lon="6.13722">
        <ele>516.85</ele>
        <time>2016-06-18T11:37:58Z</time>
      </trkpt>
      <trkpt lat="43.63218" lon="6.13722">
        <ele>513.48</ele>
        <time>2016-06-18T11:37:59Z</time>
      </trkpt>
      <trkpt lat="43.63218" lon="6.13721">
        <ele>510.12</ele>
        <time>2016-06-18T11:38:05Z</time>
      </trkpt>
      <trkpt lat="43.63218" lon="6.13721">
        <ele>517.81</ele>
        <time>2016-06-18T11:38:06Z</time>
      </trkpt>
      <trkpt lat="43.63218" lon="6.13721">
        <ele>514.44</ele>
        <time>2016-06-18T11:38:07Z</time>
      </trkpt>
      <trkpt lat="43.63218" lon="6.13716">
        <ele>513.48</ele>
        <time>2016-06-18T11:38:12Z</time>
      </trkpt>
      <trkpt lat="43.63215" lon="6.13714">
        <ele>513.96</ele>
        <time>2016-06-18T11:38:24Z</time>
      </trkpt>
      <trkpt lat="43.63214" lon="6.13711">
        <ele>513.96</ele>
        <time>2016-06-18T11:38:49Z</time>
      </trkpt>
      <trkpt lat="43.63213" lon="6.137">
        <ele>513.48</ele>
        <time>2016-06-18T11:39:04Z</time>
      </trkpt>
      <trkpt lat="43.63213" lon="6.13698">
        <ele>513.48</ele>
        <time>2016-06-18T11:39:05Z</time>
      </trkpt>
      <trkpt lat="43.63211" lon="6.13684">
        <ele>513</ele>
        <time>2016-06-18T11:39:12Z</time>
      </trkpt>
      <trkpt lat="43.63211" lon="6.13682">
        <ele>513</ele>
        <time>2016-06-18T11:39:13Z</time>
      </trkpt>
      <trkpt lat="43.6321" lon="6.1368">
        <ele>513</ele>
        <time>2016-06-18T11:39:14Z</time>
      </trkpt>
      <trkpt lat="43.6321" lon="6.13678">
        <ele>513</ele>
        <time>2016-06-18T11:39:15Z</time>
      </trkpt>
      <trkpt lat="43.6321" lon="6.13676">
        <ele>513</ele>
        <time>2016-06-18T11:39:16Z</time>
      </trkpt>
      <trkpt lat="43.63206" lon="6.13661">
        <ele>509.64</ele>
        <time>2016-06-18T11:39:23Z</time>
      </trkpt>
      <trkpt lat="43.63206" lon="6.1366">
        <ele>514.92</ele>
        <time>2016-06-18T11:39:24Z</time>
      </trkpt>
      <trkpt lat="43.632" lon="6.13647">
        <ele>509.64</ele>
        <time>2016-06-18T11:39:31Z</time>
      </trkpt>
      <trkpt lat="43.63199" lon="6.13645">
        <ele>514.44</ele>
        <time>2016-06-18T11:39:32Z</time>
      </trkpt>
      <trkpt lat="43.63193" lon="6.13619">
        <ele>512.52</ele>
        <time>2016-06-18T11:39:44Z</time>
      </trkpt>
      <trkpt lat="43.63193" lon="6.13617">
        <ele>512.04</ele>
        <time>2016-06-18T11:39:45Z</time>
      </trkpt>
      <trkpt lat="43.63192" lon="6.13588">
        <ele>512.04</ele>
        <time>2016-06-18T11:40:01Z</time>
      </trkpt>
      <trkpt lat="43.63192" lon="6.13587">
        <ele>512.04</ele>
        <time>2016-06-18T11:40:02Z</time>
      </trkpt>
      <trkpt lat="43.63186" lon="6.13556">
        <ele>511.56</ele>
        <time>2016-06-18T11:40:15Z</time>
      </trkpt>
      <trkpt lat="43.63185" lon="6.13551">
        <ele>511.56</ele>
        <time>2016-06-18T11:40:17Z</time>
      </trkpt>
      <trkpt lat="43.6318" lon="6.13539">
        <ele>507.23</ele>
        <time>2016-06-18T11:40:22Z</time>
      </trkpt>
      <trkpt lat="43.63179" lon="6.13538">
        <ele>515.4</ele>
        <time>2016-06-18T11:40:23Z</time>
      </trkpt>
      <trkpt lat="43.63178" lon="6.13535">
        <ele>512.04</ele>
        <time>2016-06-18T11:40:24Z</time>
      </trkpt>
      <trkpt lat="43.63176" lon="6.13531">
        <ele>512.04</ele>
        <time>2016-06-18T11:40:26Z</time>
      </trkpt>
      <trkpt lat="43.63171" lon="6.13523">
        <ele>511.56</ele>
        <time>2016-06-18T11:40:31Z</time>
      </trkpt>
      <trkpt lat="43.63167" lon="6.13516">
        <ele>508.19</ele>
        <time>2016-06-18T11:40:36Z</time>
      </trkpt>
      <trkpt lat="43.63166" lon="6.13515">
        <ele>515.88</ele>
        <time>2016-06-18T11:40:37Z</time>
      </trkpt>
      <trkpt lat="43.63165" lon="6.13513">
        <ele>510.12</ele>
        <time>2016-06-18T11:40:38Z</time>
      </trkpt>
      <trkpt lat="43.63161" lon="6.13507">
        <ele>513.96</ele>
        <time>2016-06-18T11:40:42Z</time>
      </trkpt>
      <trkpt lat="43.6316" lon="6.13503">
        <ele>512.52</ele>
        <time>2016-06-18T11:40:43Z</time>
      </trkpt>
      <trkpt lat="43.63153" lon="6.1349">
        <ele>507.71</ele>
        <time>2016-06-18T11:40:51Z</time>
      </trkpt>
      <trkpt lat="43.6315" lon="6.13489">
        <ele>508.67</ele>
        <time>2016-06-18T11:40:53Z</time>
      </trkpt>
      <trkpt lat="43.63148" lon="6.13488">
        <ele>513.96</ele>
        <time>2016-06-18T11:40:54Z</time>
      </trkpt>
      <trkpt lat="43.63146" lon="6.13487">
        <ele>508.67</ele>
        <time>2016-06-18T11:40:56Z</time>
      </trkpt>
      <trkpt lat="43.63145" lon="6.13486">
        <ele>512.52</ele>
        <time>2016-06-18T11:40:57Z</time>
      </trkpt>
      <trkpt lat="43.63141" lon="6.13483">
        <ele>511.56</ele>
        <time>2016-06-18T11:41:00Z</time>
      </trkpt>
      <trkpt lat="43.63127" lon="6.1347">
        <ele>508.19</ele>
        <time>2016-06-18T11:41:13Z</time>
      </trkpt>
      <trkpt lat="43.63126" lon="6.13469">
        <ele>513</ele>
        <time>2016-06-18T11:41:14Z</time>
      </trkpt>
      <trkpt lat="43.63121" lon="6.13466">
        <ele>508.19</ele>
        <time>2016-06-18T11:41:18Z</time>
      </trkpt>
      <trkpt lat="43.63121" lon="6.13465">
        <ele>515.4</ele>
        <time>2016-06-18T11:41:19Z</time>
      </trkpt>
      <trkpt lat="43.6312" lon="6.13464">
        <ele>511.56</ele>
        <time>2016-06-18T11:41:20Z</time>
      </trkpt>
      <trkpt lat="43.6312" lon="6.13462">
        <ele>512.52</ele>
        <time>2016-06-18T11:41:33Z</time>
      </trkpt>
      <trkpt lat="43.6312" lon="6.13462">
        <ele>506.75</ele>
        <time>2016-06-18T11:41:35Z</time>
      </trkpt>
      <trkpt lat="43.6312" lon="6.13462">
        <ele>514.44</ele>
        <time>2016-06-18T11:41:36Z</time>
      </trkpt>
      <trkpt lat="43.6312" lon="6.13462">
        <ele>511.08</ele>
        <time>2016-06-18T11:41:41Z</time>
      </trkpt>
      <trkpt lat="43.63124" lon="6.13466">
        <ele>511.08</ele>
        <time>2016-06-18T11:41:51Z</time>
      </trkpt>
      <trkpt lat="43.63128" lon="6.1347">
        <ele>513.96</ele>
        <time>2016-06-18T11:41:55Z</time>
      </trkpt>
      <trkpt lat="43.6313" lon="6.13472">
        <ele>507.71</ele>
        <time>2016-06-18T11:41:57Z</time>
      </trkpt>
      <trkpt lat="43.63132" lon="6.13473">
        <ele>513</ele>
        <time>2016-06-18T11:41:58Z</time>
      </trkpt>
      <trkpt lat="43.63133" lon="6.13474">
        <ele>513.48</ele>
        <time>2016-06-18T11:41:59Z</time>
      </trkpt>
      <trkpt lat="43.63134" lon="6.13475">
        <ele>510.12</ele>
        <time>2016-06-18T11:42:00Z</time>
      </trkpt>
      <trkpt lat="43.63135" lon="6.13476">
        <ele>511.56</ele>
        <time>2016-06-18T11:42:01Z</time>
      </trkpt>
      <trkpt lat="43.63142" lon="6.13481">
        <ele>507.71</ele>
        <time>2016-06-18T11:42:06Z</time>
      </trkpt>
      <trkpt lat="43.63143" lon="6.13482">
        <ele>513.96</ele>
        <time>2016-06-18T11:42:07Z</time>
      </trkpt>
      <trkpt lat="43.63165" lon="6.13498">
        <ele>511.08</ele>
        <time>2016-06-18T11:42:23Z</time>
      </trkpt>
      <trkpt lat="43.63175" lon="6.13508">
        <ele>511.08</ele>
        <time>2016-06-18T11:42:31Z</time>
      </trkpt>
      <trkpt lat="43.63184" lon="6.13526">
        <ele>514.44</ele>
        <time>2016-06-18T11:42:39Z</time>
      </trkpt>
      <trkpt lat="43.63185" lon="6.13528">
        <ele>511.56</ele>
        <time>2016-06-18T11:42:40Z</time>
      </trkpt>
      <trkpt lat="43.6319" lon="6.13538">
        <ele>511.08</ele>
        <time>2016-06-18T11:42:48Z</time>
      </trkpt>
      <trkpt lat="43.63195" lon="6.13528">
        <ele>512.04</ele>
        <time>2016-06-18T11:42:55Z</time>
      </trkpt>
      <trkpt lat="43.63198" lon="6.13497">
        <ele>512.04</ele>
        <time>2016-06-18T11:43:11Z</time>
      </trkpt>
      <trkpt lat="43.63199" lon="6.1349">
        <ele>511.56</ele>
        <time>2016-06-18T11:43:14Z</time>
      </trkpt>
      <trkpt lat="43.63204" lon="6.13461">
        <ele>512.04</ele>
        <time>2016-06-18T11:43:30Z</time>
      </trkpt>
      <trkpt lat="43.63207" lon="6.13457">
        <ele>512.04</ele>
        <time>2016-06-18T11:43:32Z</time>
      </trkpt>
      <trkpt lat="43.63228" lon="6.1343">
        <ele>512.52</ele>
        <time>2016-06-18T11:43:46Z</time>
      </trkpt>
      <trkpt lat="43.6325" lon="6.13386">
        <ele>513.96</ele>
        <time>2016-06-18T11:43:59Z</time>
      </trkpt>
      <trkpt lat="43.63251" lon="6.13383">
        <ele>513.96</ele>
        <time>2016-06-18T11:44:00Z</time>
      </trkpt>
      <trkpt lat="43.63254" lon="6.13374">
        <ele>514.44</ele>
        <time>2016-06-18T11:44:03Z</time>
      </trkpt>
      <trkpt lat="43.63278" lon="6.13349">
        <ele>514.92</ele>
        <time>2016-06-18T11:44:13Z</time>
      </trkpt>
      <trkpt lat="43.63322" lon="6.1332">
        <ele>515.88</ele>
        <time>2016-06-18T11:44:27Z</time>
      </trkpt>
      <trkpt lat="43.63345" lon="6.13313">
        <ele>516.37</ele>
        <time>2016-06-18T11:44:40Z</time>
      </trkpt>
      <trkpt lat="43.63351" lon="6.13315">
        <ele>515.88</ele>
        <time>2016-06-18T11:44:43Z</time>
      </trkpt>
      <trkpt lat="43.63355" lon="6.13316">
        <ele>518.77</ele>
        <time>2016-06-18T11:44:45Z</time>
      </trkpt>
      <trkpt lat="43.6336" lon="6.13318">
        <ele>514.44</ele>
        <time>2016-06-18T11:44:48Z</time>
      </trkpt>
      <trkpt lat="43.63364" lon="6.13321">
        <ele>519.25</ele>
        <time>2016-06-18T11:44:51Z</time>
      </trkpt>
      <trkpt lat="43.63365" lon="6.13322">
        <ele>516.37</ele>
        <time>2016-06-18T11:44:52Z</time>
      </trkpt>
      <trkpt lat="43.6337" lon="6.13327">
        <ele>513</ele>
        <time>2016-06-18T11:44:56Z</time>
      </trkpt>
      <trkpt lat="43.63372" lon="6.13328">
        <ele>519.25</ele>
        <time>2016-06-18T11:44:57Z</time>
      </trkpt>
      <trkpt lat="43.63373" lon="6.13329">
        <ele>512.04</ele>
        <time>2016-06-18T11:44:58Z</time>
      </trkpt>
      <trkpt lat="43.63375" lon="6.1333">
        <ele>518.29</ele>
        <time>2016-06-18T11:44:59Z</time>
      </trkpt>
      <trkpt lat="43.63378" lon="6.13332">
        <ele>514.44</ele>
        <time>2016-06-18T11:45:01Z</time>
      </trkpt>
      <trkpt lat="43.63382" lon="6.13333">
        <ele>519.25</ele>
        <time>2016-06-18T11:45:04Z</time>
      </trkpt>
      <trkpt lat="43.63384" lon="6.13334">
        <ele>516.37</ele>
        <time>2016-06-18T11:45:05Z</time>
      </trkpt>
      <trkpt lat="43.63403" lon="6.13346">
        <ele>516.37</ele>
        <time>2016-06-18T11:45:19Z</time>
      </trkpt>
      <trkpt lat="43.63424" lon="6.13363">
        <ele>514.44</ele>
        <time>2016-06-18T11:45:33Z</time>
      </trkpt>
      <trkpt lat="43.63429" lon="6.13365">
        <ele>517.33</ele>
        <time>2016-06-18T11:45:37Z</time>
      </trkpt>
      <trkpt lat="43.63438" lon="6.13363">
        <ele>519.73</ele>
        <time>2016-06-18T11:45:43Z</time>
      </trkpt>
      <trkpt lat="43.6344" lon="6.13363">
        <ele>516.37</ele>
        <time>2016-06-18T11:45:44Z</time>
      </trkpt>
      <trkpt lat="43.63441" lon="6.13363">
        <ele>520.69</ele>
        <time>2016-06-18T11:45:45Z</time>
      </trkpt>
      <trkpt lat="43.63443" lon="6.13363">
        <ele>516.37</ele>
        <time>2016-06-18T11:45:46Z</time>
      </trkpt>
      <trkpt lat="43.63455" lon="6.13364">
        <ele>520.69</ele>
        <time>2016-06-18T11:45:55Z</time>
      </trkpt>
      <trkpt lat="43.63459" lon="6.1336">
        <ele>521.65</ele>
        <time>2016-06-18T11:45:58Z</time>
      </trkpt>
      <trkpt lat="43.6346" lon="6.13359">
        <ele>518.77</ele>
        <time>2016-06-18T11:45:59Z</time>
      </trkpt>
      <trkpt lat="43.63465" lon="6.13352">
        <ele>520.21</ele>
        <time>2016-06-18T11:46:03Z</time>
      </trkpt>
      <trkpt lat="43.63467" lon="6.1335">
        <ele>517.33</ele>
        <time>2016-06-18T11:46:05Z</time>
      </trkpt>
      <trkpt lat="43.63484" lon="6.13341">
        <ele>521.17</ele>
        <time>2016-06-18T11:46:17Z</time>
      </trkpt>
      <trkpt lat="43.63485" lon="6.1334">
        <ele>517.81</ele>
        <time>2016-06-18T11:46:18Z</time>
      </trkpt>
      <trkpt lat="43.63502" lon="6.13317">
        <ele>518.77</ele>
        <time>2016-06-18T11:46:32Z</time>
      </trkpt>
      <trkpt lat="43.63504" lon="6.13315">
        <ele>514.92</ele>
        <time>2016-06-18T11:46:33Z</time>
      </trkpt>
      <trkpt lat="43.63505" lon="6.13313">
        <ele>523.09</ele>
        <time>2016-06-18T11:46:34Z</time>
      </trkpt>
      <trkpt lat="43.63506" lon="6.13312">
        <ele>517.81</ele>
        <time>2016-06-18T11:46:35Z</time>
      </trkpt>
      <trkpt lat="43.63525" lon="6.13301">
        <ele>519.73</ele>
        <time>2016-06-18T11:46:49Z</time>
      </trkpt>
      <trkpt lat="43.63545" lon="6.13303">
        <ele>520.21</ele>
        <time>2016-06-18T11:47:05Z</time>
      </trkpt>
      <trkpt lat="43.63575" lon="6.13301">
        <ele>521.17</ele>
        <time>2016-06-18T11:47:22Z</time>
      </trkpt>
      <trkpt lat="43.63602" lon="6.13302">
        <ele>521.65</ele>
        <time>2016-06-18T11:47:38Z</time>
      </trkpt>
      <trkpt lat="43.63631" lon="6.13289">
        <ele>521.17</ele>
        <time>2016-06-18T11:47:58Z</time>
      </trkpt>
      <trkpt lat="43.63659" lon="6.13276">
        <ele>520.21</ele>
        <time>2016-06-18T11:48:17Z</time>
      </trkpt>
      <trkpt lat="43.63685" lon="6.13259">
        <ele>518.77</ele>
        <time>2016-06-18T11:48:38Z</time>
      </trkpt>
      <trkpt lat="43.63709" lon="6.13228">
        <ele>519.25</ele>
        <time>2016-06-18T11:48:58Z</time>
      </trkpt>
      <trkpt lat="43.6371" lon="6.13216">
        <ele>519.25</ele>
        <time>2016-06-18T11:49:07Z</time>
      </trkpt>
      <trkpt lat="43.6372" lon="6.13195">
        <ele>522.61</ele>
        <time>2016-06-18T11:49:15Z</time>
      </trkpt>
      <trkpt lat="43.63722" lon="6.13193">
        <ele>520.21</ele>
        <time>2016-06-18T11:49:16Z</time>
      </trkpt>
      <trkpt lat="43.63728" lon="6.13186">
        <ele>519.25</ele>
        <time>2016-06-18T11:49:21Z</time>
      </trkpt>
      <trkpt lat="43.63746" lon="6.13163">
        <ele>518.77</ele>
        <time>2016-06-18T11:49:36Z</time>
      </trkpt>
      <trkpt lat="43.63757" lon="6.13143">
        <ele>518.77</ele>
        <time>2016-06-18T11:49:50Z</time>
      </trkpt>
      <trkpt lat="43.63761" lon="6.13138">
        <ele>518.77</ele>
        <time>2016-06-18T11:49:54Z</time>
      </trkpt>
      <trkpt lat="43.6377" lon="6.13134">
        <ele>518.29</ele>
        <time>2016-06-18T11:50:01Z</time>
      </trkpt>
      <trkpt lat="43.63775" lon="6.13132">
        <ele>518.29</ele>
        <time>2016-06-18T11:50:04Z</time>
      </trkpt>
      <trkpt lat="43.63776" lon="6.13128">
        <ele>520.21</ele>
        <time>2016-06-18T11:50:06Z</time>
      </trkpt>
      <trkpt lat="43.63783" lon="6.13112">
        <ele>516.37</ele>
        <time>2016-06-18T11:50:14Z</time>
      </trkpt>
      <trkpt lat="43.63784" lon="6.13111">
        <ele>521.17</ele>
        <time>2016-06-18T11:50:15Z</time>
      </trkpt>
      <trkpt lat="43.63788" lon="6.13105">
        <ele>515.88</ele>
        <time>2016-06-18T11:50:18Z</time>
      </trkpt>
      <trkpt lat="43.63789" lon="6.13104">
        <ele>521.65</ele>
        <time>2016-06-18T11:50:19Z</time>
      </trkpt>
      <trkpt lat="43.6379" lon="6.13102">
        <ele>516.37</ele>
        <time>2016-06-18T11:50:20Z</time>
      </trkpt>
      <trkpt lat="43.63791" lon="6.131">
        <ele>519.73</ele>
        <time>2016-06-18T11:50:21Z</time>
      </trkpt>
      <trkpt lat="43.63795" lon="6.13095">
        <ele>515.88</ele>
        <time>2016-06-18T11:50:24Z</time>
      </trkpt>
      <trkpt lat="43.63796" lon="6.13094">
        <ele>519.25</ele>
        <time>2016-06-18T11:50:25Z</time>
      </trkpt>
      <trkpt lat="43.63804" lon="6.13086">
        <ele>516.37</ele>
        <time>2016-06-18T11:50:31Z</time>
      </trkpt>
      <trkpt lat="43.63805" lon="6.13084">
        <ele>520.69</ele>
        <time>2016-06-18T11:50:32Z</time>
      </trkpt>
      <trkpt lat="43.63806" lon="6.13083">
        <ele>516.85</ele>
        <time>2016-06-18T11:50:33Z</time>
      </trkpt>
      <trkpt lat="43.6382" lon="6.13064">
        <ele>518.77</ele>
        <time>2016-06-18T11:50:46Z</time>
      </trkpt>
      <trkpt lat="43.63841" lon="6.13037">
        <ele>518.29</ele>
        <time>2016-06-18T11:51:03Z</time>
      </trkpt>
      <trkpt lat="43.63854" lon="6.13012">
        <ele>518.29</ele>
        <time>2016-06-18T11:51:16Z</time>
      </trkpt>
      <trkpt lat="43.63864" lon="6.12988">
        <ele>518.29</ele>
        <time>2016-06-18T11:51:29Z</time>
      </trkpt>
      <trkpt lat="43.63877" lon="6.12967">
        <ele>518.77</ele>
        <time>2016-06-18T11:51:41Z</time>
      </trkpt>
      <trkpt lat="43.63901" lon="6.12934">
        <ele>518.29</ele>
        <time>2016-06-18T11:51:55Z</time>
      </trkpt>
      <trkpt lat="43.63931" lon="6.129">
        <ele>519.25</ele>
        <time>2016-06-18T11:52:08Z</time>
      </trkpt>
      <trkpt lat="43.63936" lon="6.12893">
        <ele>519.25</ele>
        <time>2016-06-18T11:52:14Z</time>
      </trkpt>
      <trkpt lat="43.63943" lon="6.12893">
        <ele>515.4</ele>
        <time>2016-06-18T11:52:19Z</time>
      </trkpt>
      <trkpt lat="43.63944" lon="6.12893">
        <ele>522.61</ele>
        <time>2016-06-18T11:52:20Z</time>
      </trkpt>
      <trkpt lat="43.63946" lon="6.12893">
        <ele>519.25</ele>
        <time>2016-06-18T11:52:21Z</time>
      </trkpt>
      <trkpt lat="43.63953" lon="6.12891">
        <ele>515.4</ele>
        <time>2016-06-18T11:52:26Z</time>
      </trkpt>
      <trkpt lat="43.63955" lon="6.12891">
        <ele>521.17</ele>
        <time>2016-06-18T11:52:27Z</time>
      </trkpt>
      <trkpt lat="43.63964" lon="6.12891">
        <ele>518.29</ele>
        <time>2016-06-18T11:52:33Z</time>
      </trkpt>
      <trkpt lat="43.63987" lon="6.12887">
        <ele>518.29</ele>
        <time>2016-06-18T11:52:48Z</time>
      </trkpt>
      <trkpt lat="43.64006" lon="6.12885">
        <ele>517.33</ele>
        <time>2016-06-18T11:53:02Z</time>
      </trkpt>
      <trkpt lat="43.64016" lon="6.12884">
        <ele>516.85</ele>
        <time>2016-06-18T11:53:15Z</time>
      </trkpt>
      <trkpt lat="43.64016" lon="6.12886">
        <ele>516.85</ele>
        <time>2016-06-18T11:53:31Z</time>
      </trkpt>
      <trkpt lat="43.64018" lon="6.12886">
        <ele>516.85</ele>
        <time>2016-06-18T11:53:48Z</time>
      </trkpt>
      <trkpt lat="43.64018" lon="6.12885">
        <ele>515.88</ele>
        <time>2016-06-18T11:54:02Z</time>
      </trkpt>
      <trkpt lat="43.64018" lon="6.12883">
        <ele>515.88</ele>
        <time>2016-06-18T11:54:21Z</time>
      </trkpt>
      <trkpt lat="43.64018" lon="6.12883">
        <ele>516.37</ele>
        <time>2016-06-18T11:54:47Z</time>
      </trkpt>
      <trkpt lat="43.64017" lon="6.12884">
        <ele>513.96</ele>
        <time>2016-06-18T11:55:11Z</time>
      </trkpt>
      <trkpt lat="43.64017" lon="6.12884">
        <ele>520.69</ele>
        <time>2016-06-18T11:55:12Z</time>
      </trkpt>
      <trkpt lat="43.64017" lon="6.12884">
        <ele>516.37</ele>
        <time>2016-06-18T11:55:13Z</time>
      </trkpt>
      <trkpt lat="43.64017" lon="6.12885">
        <ele>516.37</ele>
        <time>2016-06-18T11:55:31Z</time>
      </trkpt>
      <trkpt lat="43.64018" lon="6.12885">
        <ele>516.37</ele>
        <time>2016-06-18T11:55:44Z</time>
      </trkpt>
      <trkpt lat="43.64019" lon="6.12886">
        <ele>516.37</ele>
        <time>2016-06-18T11:55:58Z</time>
      </trkpt>
      <trkpt lat="43.6402" lon="6.12886">
        <ele>516.85</ele>
        <time>2016-06-18T11:56:15Z</time>
      </trkpt>
      <trkpt lat="43.6402" lon="6.12886">
        <ele>516.37</ele>
        <time>2016-06-18T11:56:34Z</time>
      </trkpt>
      <trkpt lat="43.64021" lon="6.12885">
        <ele>516.85</ele>
        <time>2016-06-18T11:56:45Z</time>
      </trkpt>
      <trkpt lat="43.64021" lon="6.12885">
        <ele>516.37</ele>
        <time>2016-06-18T11:57:06Z</time>
      </trkpt>
      <trkpt lat="43.64021" lon="6.12885">
        <ele>516.37</ele>
        <time>2016-06-18T11:57:30Z</time>
      </trkpt>
      <trkpt lat="43.6404" lon="6.12881">
        <ele>515.88</ele>
        <time>2016-06-18T11:57:48Z</time>
      </trkpt>
      <trkpt lat="43.64053" lon="6.12882">
        <ele>515.4</ele>
        <time>2016-06-18T11:57:57Z</time>
      </trkpt>
      <trkpt lat="43.64082" lon="6.12878">
        <ele>514.44</ele>
        <time>2016-06-18T11:58:20Z</time>
      </trkpt>
      <trkpt lat="43.64089" lon="6.12878">
        <ele>514.44</ele>
        <time>2016-06-18T11:58:24Z</time>
      </trkpt>
      <trkpt lat="43.64114" lon="6.12873">
        <ele>513.48</ele>
        <time>2016-06-18T11:58:42Z</time>
      </trkpt>
      <trkpt lat="43.64143" lon="6.12874">
        <ele>511.56</ele>
        <time>2016-06-18T11:59:01Z</time>
      </trkpt>
      <trkpt lat="43.64167" lon="6.12876">
        <ele>511.56</ele>
        <time>2016-06-18T11:59:19Z</time>
      </trkpt>
      <trkpt lat="43.64184" lon="6.12883">
        <ele>512.04</ele>
        <time>2016-06-18T11:59:36Z</time>
      </trkpt>
      <trkpt lat="43.64197" lon="6.12896">
        <ele>513</ele>
        <time>2016-06-18T11:59:52Z</time>
      </trkpt>
      <trkpt lat="43.64214" lon="6.12907">
        <ele>513.48</ele>
        <time>2016-06-18T12:00:11Z</time>
      </trkpt>
      <trkpt lat="43.64257" lon="6.12915">
        <ele>512.04</ele>
        <time>2016-06-18T12:00:25Z</time>
      </trkpt>
      <trkpt lat="43.6426" lon="6.12915">
        <ele>517.81</ele>
        <time>2016-06-18T12:00:27Z</time>
      </trkpt>
      <trkpt lat="43.64262" lon="6.12915">
        <ele>514.44</ele>
        <time>2016-06-18T12:00:28Z</time>
      </trkpt>
      <trkpt lat="43.64272" lon="6.12917">
        <ele>510.6</ele>
        <time>2016-06-18T12:00:36Z</time>
      </trkpt>
      <trkpt lat="43.64274" lon="6.12917">
        <ele>514.44</ele>
        <time>2016-06-18T12:00:38Z</time>
      </trkpt>
      <trkpt lat="43.64293" lon="6.12918">
        <ele>514.44</ele>
        <time>2016-06-18T12:00:50Z</time>
      </trkpt>
      <trkpt lat="43.64301" lon="6.12916">
        <ele>515.4</ele>
        <time>2016-06-18T12:01:07Z</time>
      </trkpt>
      <trkpt lat="43.64311" lon="6.1292">
        <ele>515.88</ele>
        <time>2016-06-18T12:01:18Z</time>
      </trkpt>
      <trkpt lat="43.64335" lon="6.12931">
        <ele>515.88</ele>
        <time>2016-06-18T12:01:34Z</time>
      </trkpt>
      <trkpt lat="43.64354" lon="6.12937">
        <ele>515.4</ele>
        <time>2016-06-18T12:01:45Z</time>
      </trkpt>
      <trkpt lat="43.64364" lon="6.1294">
        <ele>515.88</ele>
        <time>2016-06-18T12:01:50Z</time>
      </trkpt>
      <trkpt lat="43.64374" lon="6.12941">
        <ele>515.88</ele>
        <time>2016-06-18T12:01:55Z</time>
      </trkpt>
      <trkpt lat="43.64394" lon="6.12945">
        <ele>515.88</ele>
        <time>2016-06-18T12:02:09Z</time>
      </trkpt>
      <trkpt lat="43.64408" lon="6.12948">
        <ele>515.88</ele>
        <time>2016-06-18T12:02:20Z</time>
      </trkpt>
      <trkpt lat="43.64433" lon="6.12951">
        <ele>515.4</ele>
        <time>2016-06-18T12:02:36Z</time>
      </trkpt>
      <trkpt lat="43.64456" lon="6.12948">
        <ele>515.4</ele>
        <time>2016-06-18T12:02:49Z</time>
      </trkpt>
      <trkpt lat="43.64464" lon="6.1295">
        <ele>514.92</ele>
        <time>2016-06-18T12:02:55Z</time>
      </trkpt>
      <trkpt lat="43.64498" lon="6.1295">
        <ele>514.44</ele>
        <time>2016-06-18T12:03:13Z</time>
      </trkpt>
      <trkpt lat="43.64512" lon="6.12951">
        <ele>514.44</ele>
        <time>2016-06-18T12:03:22Z</time>
      </trkpt>
      <trkpt lat="43.6455" lon="6.12959">
        <ele>514.92</ele>
        <time>2016-06-18T12:03:43Z</time>
      </trkpt>
      <trkpt lat="43.64556" lon="6.12962">
        <ele>513.96</ele>
        <time>2016-06-18T12:03:48Z</time>
      </trkpt>
      <trkpt lat="43.64561" lon="6.12964">
        <ele>514.44</ele>
        <time>2016-06-18T12:03:51Z</time>
      </trkpt>
      <trkpt lat="43.64588" lon="6.12971">
        <ele>513.96</ele>
        <time>2016-06-18T12:04:04Z</time>
      </trkpt>
      <trkpt lat="43.64615" lon="6.12979">
        <ele>514.44</ele>
        <time>2016-06-18T12:04:19Z</time>
      </trkpt>
      <trkpt lat="43.64621" lon="6.1298">
        <ele>513.96</ele>
        <time>2016-06-18T12:04:25Z</time>
      </trkpt>
      <trkpt lat="43.64628" lon="6.12984">
        <ele>514.44</ele>
        <time>2016-06-18T12:04:30Z</time>
      </trkpt>
      <trkpt lat="43.64657" lon="6.12994">
        <ele>514.44</ele>
        <time>2016-06-18T12:04:44Z</time>
      </trkpt>
      <trkpt lat="43.64666" lon="6.12997">
        <ele>514.44</ele>
        <time>2016-06-18T12:04:50Z</time>
      </trkpt>
      <trkpt lat="43.64674" lon="6.13">
        <ele>514.44</ele>
        <time>2016-06-18T12:04:56Z</time>
      </trkpt>
      <trkpt lat="43.64703" lon="6.13012">
        <ele>514.92</ele>
        <time>2016-06-18T12:05:16Z</time>
      </trkpt>
      <trkpt lat="43.64729" lon="6.1302">
        <ele>514.92</ele>
        <time>2016-06-18T12:05:33Z</time>
      </trkpt>
      <trkpt lat="43.64734" lon="6.1302">
        <ele>514.92</ele>
        <time>2016-06-18T12:05:35Z</time>
      </trkpt>
      <trkpt lat="43.64753" lon="6.1302">
        <ele>515.4</ele>
        <time>2016-06-18T12:05:44Z</time>
      </trkpt>
      <trkpt lat="43.64761" lon="6.13016">
        <ele>515.4</ele>
        <time>2016-06-18T12:05:49Z</time>
      </trkpt>
      <trkpt lat="43.64784" lon="6.13015">
        <ele>515.88</ele>
        <time>2016-06-18T12:06:06Z</time>
      </trkpt>
      <trkpt lat="43.6481" lon="6.13021">
        <ele>516.37</ele>
        <time>2016-06-18T12:06:23Z</time>
      </trkpt>
      <trkpt lat="43.6483" lon="6.13024">
        <ele>516.37</ele>
        <time>2016-06-18T12:06:38Z</time>
      </trkpt>
      <trkpt lat="43.6485" lon="6.13026">
        <ele>516.85</ele>
        <time>2016-06-18T12:06:51Z</time>
      </trkpt>
      <trkpt lat="43.64878" lon="6.13026">
        <ele>517.33</ele>
        <time>2016-06-18T12:07:07Z</time>
      </trkpt>
      <trkpt lat="43.64898" lon="6.13033">
        <ele>518.29</ele>
        <time>2016-06-18T12:07:23Z</time>
      </trkpt>
      <trkpt lat="43.64917" lon="6.13049">
        <ele>518.29</ele>
        <time>2016-06-18T12:07:40Z</time>
      </trkpt>
      <trkpt lat="43.64935" lon="6.13068">
        <ele>518.29</ele>
        <time>2016-06-18T12:07:58Z</time>
      </trkpt>
      <trkpt lat="43.64951" lon="6.13083">
        <ele>518.29</ele>
        <time>2016-06-18T12:08:10Z</time>
      </trkpt>
      <trkpt lat="43.64958" lon="6.13085">
        <ele>518.77</ele>
        <time>2016-06-18T12:08:14Z</time>
      </trkpt>
      <trkpt lat="43.64986" lon="6.13103">
        <ele>518.29</ele>
        <time>2016-06-18T12:08:30Z</time>
      </trkpt>
      <trkpt lat="43.65001" lon="6.13115">
        <ele>518.77</ele>
        <time>2016-06-18T12:08:44Z</time>
      </trkpt>
      <trkpt lat="43.65012" lon="6.13121">
        <ele>518.77</ele>
        <time>2016-06-18T12:08:53Z</time>
      </trkpt>
      <trkpt lat="43.65015" lon="6.13123">
        <ele>518.77</ele>
        <time>2016-06-18T12:08:55Z</time>
      </trkpt>
      <trkpt lat="43.65038" lon="6.13138">
        <ele>519.25</ele>
        <time>2016-06-18T12:09:12Z</time>
      </trkpt>
      <trkpt lat="43.6506" lon="6.13152">
        <ele>520.21</ele>
        <time>2016-06-18T12:09:27Z</time>
      </trkpt>
      <trkpt lat="43.65083" lon="6.13166">
        <ele>522.13</ele>
        <time>2016-06-18T12:09:43Z</time>
      </trkpt>
      <trkpt lat="43.65104" lon="6.13183">
        <ele>522.13</ele>
        <time>2016-06-18T12:10:00Z</time>
      </trkpt>
      <trkpt lat="43.65105" lon="6.13184">
        <ele>522.13</ele>
        <time>2016-06-18T12:10:01Z</time>
      </trkpt>
      <trkpt lat="43.65109" lon="6.13186">
        <ele>522.61</ele>
        <time>2016-06-18T12:10:04Z</time>
      </trkpt>
      <trkpt lat="43.65118" lon="6.13189">
        <ele>523.09</ele>
        <time>2016-06-18T12:10:11Z</time>
      </trkpt>
      <trkpt lat="43.65138" lon="6.13184">
        <ele>523.09</ele>
        <time>2016-06-18T12:10:23Z</time>
      </trkpt>
      <trkpt lat="43.65145" lon="6.13184">
        <ele>523.09</ele>
        <time>2016-06-18T12:10:28Z</time>
      </trkpt>
      <trkpt lat="43.65169" lon="6.13191">
        <ele>523.58</ele>
        <time>2016-06-18T12:10:44Z</time>
      </trkpt>
      <trkpt lat="43.65177" lon="6.13195">
        <ele>523.58</ele>
        <time>2016-06-18T12:10:52Z</time>
      </trkpt>
      <trkpt lat="43.65187" lon="6.13207">
        <ele>524.06</ele>
        <time>2016-06-18T12:11:07Z</time>
      </trkpt>
      <trkpt lat="43.65187" lon="6.132">
        <ele>523.58</ele>
        <time>2016-06-18T12:11:20Z</time>
      </trkpt>
      <trkpt lat="43.65186" lon="6.13197">
        <ele>524.54</ele>
        <time>2016-06-18T12:11:37Z</time>
      </trkpt>
      <trkpt lat="43.65186" lon="6.13196">
        <ele>524.06</ele>
        <time>2016-06-18T12:11:55Z</time>
      </trkpt>
      <trkpt lat="43.65184" lon="6.13197">
        <ele>523.58</ele>
        <time>2016-06-18T12:11:58Z</time>
      </trkpt>
      <trkpt lat="43.65185" lon="6.13198">
        <ele>523.58</ele>
        <time>2016-06-18T12:12:01Z</time>
      </trkpt>
      <trkpt lat="43.65187" lon="6.132">
        <ele>523.09</ele>
        <time>2016-06-18T12:12:04Z</time>
      </trkpt>
      <trkpt lat="43.65186" lon="6.13199">
        <ele>523.09</ele>
        <time>2016-06-18T12:12:14Z</time>
      </trkpt>
      <trkpt lat="43.65188" lon="6.13198">
        <ele>523.58</ele>
        <time>2016-06-18T12:12:32Z</time>
      </trkpt>
      <trkpt lat="43.65189" lon="6.132">
        <ele>523.58</ele>
        <time>2016-06-18T12:12:47Z</time>
      </trkpt>
      <trkpt lat="43.65186" lon="6.132">
        <ele>523.09</ele>
        <time>2016-06-18T12:13:01Z</time>
      </trkpt>
      <trkpt lat="43.65185" lon="6.132">
        <ele>523.58</ele>
        <time>2016-06-18T12:13:16Z</time>
      </trkpt>
      <trkpt lat="43.65184" lon="6.132">
        <ele>523.58</ele>
        <time>2016-06-18T12:13:33Z</time>
      </trkpt>
      <trkpt lat="43.65185" lon="6.13201">
        <ele>523.58</ele>
        <time>2016-06-18T12:13:51Z</time>
      </trkpt>
      <trkpt lat="43.6518" lon="6.13199">
        <ele>523.58</ele>
        <time>2016-06-18T12:14:04Z</time>
      </trkpt>
      <trkpt lat="43.65179" lon="6.13199">
        <ele>525.02</ele>
        <time>2016-06-18T12:14:15Z</time>
      </trkpt>
      <trkpt lat="43.6518" lon="6.13196">
        <ele>524.54</ele>
        <time>2016-06-18T12:14:17Z</time>
      </trkpt>
      <trkpt lat="43.6518" lon="6.13188">
        <ele>524.54</ele>
        <time>2016-06-18T12:14:22Z</time>
      </trkpt>
      <trkpt lat="43.65185" lon="6.13169">
        <ele>524.54</ele>
        <time>2016-06-18T12:14:34Z</time>
      </trkpt>
      <trkpt lat="43.65188" lon="6.13157">
        <ele>524.06</ele>
        <time>2016-06-18T12:14:40Z</time>
      </trkpt>
      <trkpt lat="43.65189" lon="6.13152">
        <ele>524.06</ele>
        <time>2016-06-18T12:14:42Z</time>
      </trkpt>
      <trkpt lat="43.65204" lon="6.13116">
        <ele>524.06</ele>
        <time>2016-06-18T12:14:58Z</time>
      </trkpt>
      <trkpt lat="43.65214" lon="6.13085">
        <ele>524.06</ele>
        <time>2016-06-18T12:15:14Z</time>
      </trkpt>
      <trkpt lat="43.65219" lon="6.13075">
        <ele>524.06</ele>
        <time>2016-06-18T12:15:19Z</time>
      </trkpt>
      <trkpt lat="43.65224" lon="6.13061">
        <ele>524.54</ele>
        <time>2016-06-18T12:15:26Z</time>
      </trkpt>
      <trkpt lat="43.65235" lon="6.13031">
        <ele>524.54</ele>
        <time>2016-06-18T12:15:41Z</time>
      </trkpt>
      <trkpt lat="43.65247" lon="6.13001">
        <ele>525.02</ele>
        <time>2016-06-18T12:15:56Z</time>
      </trkpt>
      <trkpt lat="43.6526" lon="6.12968">
        <ele>525.02</ele>
        <time>2016-06-18T12:16:13Z</time>
      </trkpt>
      <trkpt lat="43.65274" lon="6.12942">
        <ele>526.46</ele>
        <time>2016-06-18T12:16:25Z</time>
      </trkpt>
      <trkpt lat="43.65279" lon="6.12933">
        <ele>526.94</ele>
        <time>2016-06-18T12:16:29Z</time>
      </trkpt>
      <trkpt lat="43.65282" lon="6.12923">
        <ele>527.42</ele>
        <time>2016-06-18T12:16:34Z</time>
      </trkpt>
      <trkpt lat="43.65294" lon="6.12889">
        <ele>527.9</ele>
        <time>2016-06-18T12:16:49Z</time>
      </trkpt>
      <trkpt lat="43.6532" lon="6.12877">
        <ele>527.9</ele>
        <time>2016-06-18T12:17:06Z</time>
      </trkpt>
      <trkpt lat="43.65328" lon="6.12871">
        <ele>527.42</ele>
        <time>2016-06-18T12:17:13Z</time>
      </trkpt>
      <trkpt lat="43.65334" lon="6.12863">
        <ele>530.3</ele>
        <time>2016-06-18T12:17:19Z</time>
      </trkpt>
      <trkpt lat="43.65351" lon="6.12832">
        <ele>528.38</ele>
        <time>2016-06-18T12:17:32Z</time>
      </trkpt>
      <trkpt lat="43.65357" lon="6.12821">
        <ele>528.38</ele>
        <time>2016-06-18T12:17:39Z</time>
      </trkpt>
      <trkpt lat="43.6536" lon="6.12813">
        <ele>529.82</ele>
        <time>2016-06-18T12:17:44Z</time>
      </trkpt>
      <trkpt lat="43.6537" lon="6.12796">
        <ele>529.34</ele>
        <time>2016-06-18T12:17:55Z</time>
      </trkpt>
      <trkpt lat="43.65374" lon="6.1279">
        <ele>526.46</ele>
        <time>2016-06-18T12:17:59Z</time>
      </trkpt>
      <trkpt lat="43.65375" lon="6.12788">
        <ele>532.71</ele>
        <time>2016-06-18T12:18:00Z</time>
      </trkpt>
      <trkpt lat="43.65376" lon="6.12787">
        <ele>528.86</ele>
        <time>2016-06-18T12:18:01Z</time>
      </trkpt>
      <trkpt lat="43.65383" lon="6.12776">
        <ele>532.71</ele>
        <time>2016-06-18T12:18:09Z</time>
      </trkpt>
      <trkpt lat="43.65384" lon="6.12774">
        <ele>529.34</ele>
        <time>2016-06-18T12:18:11Z</time>
      </trkpt>
      <trkpt lat="43.65395" lon="6.12741">
        <ele>529.34</ele>
        <time>2016-06-18T12:18:29Z</time>
      </trkpt>
      <trkpt lat="43.654" lon="6.12711">
        <ele>528.86</ele>
        <time>2016-06-18T12:18:45Z</time>
      </trkpt>
      <trkpt lat="43.65403" lon="6.12679">
        <ele>528.86</ele>
        <time>2016-06-18T12:19:01Z</time>
      </trkpt>
      <trkpt lat="43.65403" lon="6.12652">
        <ele>528.86</ele>
        <time>2016-06-18T12:19:15Z</time>
      </trkpt>
      <trkpt lat="43.65402" lon="6.12624">
        <ele>527.9</ele>
        <time>2016-06-18T12:19:29Z</time>
      </trkpt>
      <trkpt lat="43.65402" lon="6.12612">
        <ele>527.9</ele>
        <time>2016-06-18T12:19:37Z</time>
      </trkpt>
      <trkpt lat="43.65408" lon="6.1259">
        <ele>527.9</ele>
        <time>2016-06-18T12:19:48Z</time>
      </trkpt>
      <trkpt lat="43.65412" lon="6.1256">
        <ele>528.38</ele>
        <time>2016-06-18T12:20:04Z</time>
      </trkpt>
      <trkpt lat="43.65408" lon="6.12527">
        <ele>527.42</ele>
        <time>2016-06-18T12:20:22Z</time>
      </trkpt>
      <trkpt lat="43.65412" lon="6.12483">
        <ele>528.38</ele>
        <time>2016-06-18T12:20:40Z</time>
      </trkpt>
      <trkpt lat="43.65415" lon="6.12454">
        <ele>529.34</ele>
        <time>2016-06-18T12:20:57Z</time>
      </trkpt>
      <trkpt lat="43.65418" lon="6.12423">
        <ele>529.82</ele>
        <time>2016-06-18T12:21:10Z</time>
      </trkpt>
      <trkpt lat="43.65422" lon="6.12385">
        <ele>529.82</ele>
        <time>2016-06-18T12:21:28Z</time>
      </trkpt>
      <trkpt lat="43.65424" lon="6.12379">
        <ele>530.79</ele>
        <time>2016-06-18T12:21:31Z</time>
      </trkpt>
      <trkpt lat="43.65425" lon="6.1235">
        <ele>531.75</ele>
        <time>2016-06-18T12:21:45Z</time>
      </trkpt>
      <trkpt lat="43.65426" lon="6.12319">
        <ele>530.79</ele>
        <time>2016-06-18T12:22:00Z</time>
      </trkpt>
      <trkpt lat="43.65431" lon="6.12296">
        <ele>531.75</ele>
        <time>2016-06-18T12:22:14Z</time>
      </trkpt>
      <trkpt lat="43.65431" lon="6.12285">
        <ele>531.75</ele>
        <time>2016-06-18T12:22:19Z</time>
      </trkpt>
      <trkpt lat="43.65432" lon="6.12282">
        <ele>531.27</ele>
        <time>2016-06-18T12:22:21Z</time>
      </trkpt>
      <trkpt lat="43.65438" lon="6.12247">
        <ele>531.27</ele>
        <time>2016-06-18T12:22:36Z</time>
      </trkpt>
      <trkpt lat="43.65445" lon="6.12212">
        <ele>531.27</ele>
        <time>2016-06-18T12:22:53Z</time>
      </trkpt>
      <trkpt lat="43.65447" lon="6.12187">
        <ele>531.27</ele>
        <time>2016-06-18T12:23:04Z</time>
      </trkpt>
      <trkpt lat="43.65448" lon="6.12155">
        <ele>531.27</ele>
        <time>2016-06-18T12:23:22Z</time>
      </trkpt>
      <trkpt lat="43.65451" lon="6.1214">
        <ele>532.23</ele>
        <time>2016-06-18T12:23:36Z</time>
      </trkpt>
      <trkpt lat="43.65449" lon="6.12139">
        <ele>532.23</ele>
        <time>2016-06-18T12:23:51Z</time>
      </trkpt>
      <trkpt lat="43.65449" lon="6.12137">
        <ele>532.23</ele>
        <time>2016-06-18T12:24:14Z</time>
      </trkpt>
      <trkpt lat="43.65449" lon="6.12136">
        <ele>532.71</ele>
        <time>2016-06-18T12:24:39Z</time>
      </trkpt>
      <trkpt lat="43.6545" lon="6.12138">
        <ele>532.23</ele>
        <time>2016-06-18T12:24:57Z</time>
      </trkpt>
      <trkpt lat="43.6545" lon="6.12137">
        <ele>532.23</ele>
        <time>2016-06-18T12:25:14Z</time>
      </trkpt>
      <trkpt lat="43.6545" lon="6.12135">
        <ele>532.23</ele>
        <time>2016-06-18T12:25:26Z</time>
      </trkpt>
      <trkpt lat="43.65451" lon="6.12139">
        <ele>531.27</ele>
        <time>2016-06-18T12:25:43Z</time>
      </trkpt>
      <trkpt lat="43.65457" lon="6.12141">
        <ele>530.79</ele>
        <time>2016-06-18T12:25:50Z</time>
      </trkpt>
      <trkpt lat="43.65482" lon="6.12149">
        <ele>529.82</ele>
        <time>2016-06-18T12:26:06Z</time>
      </trkpt>
      <trkpt lat="43.65511" lon="6.12156">
        <ele>528.86</ele>
        <time>2016-06-18T12:26:21Z</time>
      </trkpt>
      <trkpt lat="43.65536" lon="6.12167">
        <ele>528.38</ele>
        <time>2016-06-18T12:26:38Z</time>
      </trkpt>
      <trkpt lat="43.65556" lon="6.12181">
        <ele>528.38</ele>
        <time>2016-06-18T12:26:53Z</time>
      </trkpt>
      <trkpt lat="43.65574" lon="6.12198">
        <ele>528.86</ele>
        <time>2016-06-18T12:27:08Z</time>
      </trkpt>
      <trkpt lat="43.65596" lon="6.12213">
        <ele>529.34</ele>
        <time>2016-06-18T12:27:23Z</time>
      </trkpt>
      <trkpt lat="43.65601" lon="6.12218">
        <ele>529.82</ele>
        <time>2016-06-18T12:27:26Z</time>
      </trkpt>
      <trkpt lat="43.65605" lon="6.12222">
        <ele>529.82</ele>
        <time>2016-06-18T12:27:29Z</time>
      </trkpt>
      <trkpt lat="43.65618" lon="6.12233">
        <ele>530.3</ele>
        <time>2016-06-18T12:27:39Z</time>
      </trkpt>
      <trkpt lat="43.65625" lon="6.12246">
        <ele>531.27</ele>
        <time>2016-06-18T12:27:48Z</time>
      </trkpt>
      <trkpt lat="43.65629" lon="6.12263">
        <ele>531.75</ele>
        <time>2016-06-18T12:28:02Z</time>
      </trkpt>
      <trkpt lat="43.65636" lon="6.12286">
        <ele>532.23</ele>
        <time>2016-06-18T12:28:16Z</time>
      </trkpt>
      <trkpt lat="43.65651" lon="6.12302">
        <ele>533.19</ele>
        <time>2016-06-18T12:28:30Z</time>
      </trkpt>
      <trkpt lat="43.65654" lon="6.12303">
        <ele>533.19</ele>
        <time>2016-06-18T12:28:32Z</time>
      </trkpt>
      <trkpt lat="43.65679" lon="6.12319">
        <ele>535.11</ele>
        <time>2016-06-18T12:28:45Z</time>
      </trkpt>
      <trkpt lat="43.65698" lon="6.12327">
        <ele>536.55</ele>
        <time>2016-06-18T12:28:58Z</time>
      </trkpt>
      <trkpt lat="43.65724" lon="6.1234">
        <ele>538.96</ele>
        <time>2016-06-18T12:29:12Z</time>
      </trkpt>
      <trkpt lat="43.65744" lon="6.12353">
        <ele>539.92</ele>
        <time>2016-06-18T12:29:25Z</time>
      </trkpt>
      <trkpt lat="43.6576" lon="6.12372">
        <ele>539.92</ele>
        <time>2016-06-18T12:29:38Z</time>
      </trkpt>
      <trkpt lat="43.6577" lon="6.1238">
        <ele>540.88</ele>
        <time>2016-06-18T12:29:48Z</time>
      </trkpt>
      <trkpt lat="43.65772" lon="6.12383">
        <ele>540.88</ele>
        <time>2016-06-18T12:29:50Z</time>
      </trkpt>
      <trkpt lat="43.65785" lon="6.124">
        <ele>540.88</ele>
        <time>2016-06-18T12:30:00Z</time>
      </trkpt>
      <trkpt lat="43.65791" lon="6.12412">
        <ele>540.88</ele>
        <time>2016-06-18T12:30:05Z</time>
      </trkpt>
      <trkpt lat="43.65805" lon="6.12442">
        <ele>541.84</ele>
        <time>2016-06-18T12:30:20Z</time>
      </trkpt>
      <trkpt lat="43.65811" lon="6.12452">
        <ele>542.8</ele>
        <time>2016-06-18T12:30:38Z</time>
      </trkpt>
      <trkpt lat="43.65823" lon="6.12451">
        <ele>543.76</ele>
        <time>2016-06-18T12:30:49Z</time>
      </trkpt>
      <trkpt lat="43.65839" lon="6.12421">
        <ele>544.72</ele>
        <time>2016-06-18T12:31:06Z</time>
      </trkpt>
      <trkpt lat="43.65857" lon="6.12401">
        <ele>545.2</ele>
        <time>2016-06-18T12:31:24Z</time>
      </trkpt>
      <trkpt lat="43.65876" lon="6.12373">
        <ele>546.17</ele>
        <time>2016-06-18T12:31:42Z</time>
      </trkpt>
      <trkpt lat="43.65887" lon="6.12347">
        <ele>546.17</ele>
        <time>2016-06-18T12:31:57Z</time>
      </trkpt>
      <trkpt lat="43.65896" lon="6.12324">
        <ele>546.65</ele>
        <time>2016-06-18T12:32:09Z</time>
      </trkpt>
      <trkpt lat="43.65894" lon="6.12297">
        <ele>547.61</ele>
        <time>2016-06-18T12:32:25Z</time>
      </trkpt>
      <trkpt lat="43.65894" lon="6.12292">
        <ele>547.61</ele>
        <time>2016-06-18T12:32:29Z</time>
      </trkpt>
      <trkpt lat="43.65899" lon="6.12255">
        <ele>548.57</ele>
        <time>2016-06-18T12:32:48Z</time>
      </trkpt>
      <trkpt lat="43.65904" lon="6.12223">
        <ele>550.01</ele>
        <time>2016-06-18T12:33:03Z</time>
      </trkpt>
      <trkpt lat="43.65904" lon="6.12221">
        <ele>550.01</ele>
        <time>2016-06-18T12:33:04Z</time>
      </trkpt>
      <trkpt lat="43.65905" lon="6.12183">
        <ele>551.45</ele>
        <time>2016-06-18T12:33:23Z</time>
      </trkpt>
      <trkpt lat="43.65899" lon="6.1215">
        <ele>551.45</ele>
        <time>2016-06-18T12:33:36Z</time>
      </trkpt>
      <trkpt lat="43.65895" lon="6.12121">
        <ele>551.45</ele>
        <time>2016-06-18T12:33:50Z</time>
      </trkpt>
      <trkpt lat="43.65894" lon="6.1208">
        <ele>551.45</ele>
        <time>2016-06-18T12:34:08Z</time>
      </trkpt>
      <trkpt lat="43.65894" lon="6.12065">
        <ele>551.93</ele>
        <time>2016-06-18T12:34:14Z</time>
      </trkpt>
      <trkpt lat="43.65899" lon="6.12044">
        <ele>551.93</ele>
        <time>2016-06-18T12:34:21Z</time>
      </trkpt>
      <trkpt lat="43.6591" lon="6.12022">
        <ele>551.93</ele>
        <time>2016-06-18T12:34:31Z</time>
      </trkpt>
      <trkpt lat="43.65924" lon="6.11982">
        <ele>551.93</ele>
        <time>2016-06-18T12:34:51Z</time>
      </trkpt>
      <trkpt lat="43.65939" lon="6.11948">
        <ele>550.97</ele>
        <time>2016-06-18T12:35:08Z</time>
      </trkpt>
      <trkpt lat="43.65945" lon="6.11938">
        <ele>551.45</ele>
        <time>2016-06-18T12:35:15Z</time>
      </trkpt>
      <trkpt lat="43.65948" lon="6.11934">
        <ele>551.45</ele>
        <time>2016-06-18T12:35:18Z</time>
      </trkpt>
      <trkpt lat="43.65963" lon="6.11899">
        <ele>550.97</ele>
        <time>2016-06-18T12:35:34Z</time>
      </trkpt>
      <trkpt lat="43.65976" lon="6.1188">
        <ele>550.49</ele>
        <time>2016-06-18T12:35:49Z</time>
      </trkpt>
      <trkpt lat="43.65975" lon="6.11877">
        <ele>550.49</ele>
        <time>2016-06-18T12:36:11Z</time>
      </trkpt>
      <trkpt lat="43.65986" lon="6.1185">
        <ele>550.49</ele>
        <time>2016-06-18T12:36:28Z</time>
      </trkpt>
      <trkpt lat="43.65989" lon="6.1184">
        <ele>550.01</ele>
        <time>2016-06-18T12:36:33Z</time>
      </trkpt>
      <trkpt lat="43.66002" lon="6.11812">
        <ele>550.01</ele>
        <time>2016-06-18T12:36:49Z</time>
      </trkpt>
      <trkpt lat="43.66005" lon="6.11799">
        <ele>549.53</ele>
        <time>2016-06-18T12:36:59Z</time>
      </trkpt>
      <trkpt lat="43.66017" lon="6.11762">
        <ele>548.57</ele>
        <time>2016-06-18T12:37:19Z</time>
      </trkpt>
      <trkpt lat="43.66019" lon="6.11758">
        <ele>548.57</ele>
        <time>2016-06-18T12:37:21Z</time>
      </trkpt>
      <trkpt lat="43.66035" lon="6.11715">
        <ele>546.65</ele>
        <time>2016-06-18T12:37:40Z</time>
      </trkpt>
      <trkpt lat="43.66049" lon="6.11679">
        <ele>544.72</ele>
        <time>2016-06-18T12:37:56Z</time>
      </trkpt>
      <trkpt lat="43.66059" lon="6.11642">
        <ele>543.76</ele>
        <time>2016-06-18T12:38:12Z</time>
      </trkpt>
      <trkpt lat="43.66068" lon="6.11598">
        <ele>543.28</ele>
        <time>2016-06-18T12:38:31Z</time>
      </trkpt>
      <trkpt lat="43.66076" lon="6.11561">
        <ele>541.84</ele>
        <time>2016-06-18T12:38:48Z</time>
      </trkpt>
      <trkpt lat="43.66082" lon="6.11521">
        <ele>540.88</ele>
        <time>2016-06-18T12:39:06Z</time>
      </trkpt>
      <trkpt lat="43.66087" lon="6.11483">
        <ele>540.4</ele>
        <time>2016-06-18T12:39:23Z</time>
      </trkpt>
      <trkpt lat="43.6609" lon="6.1145">
        <ele>539.92</ele>
        <time>2016-06-18T12:39:38Z</time>
      </trkpt>
      <trkpt lat="43.66094" lon="6.114">
        <ele>539.44</ele>
        <time>2016-06-18T12:39:59Z</time>
      </trkpt>
      <trkpt lat="43.66096" lon="6.11362">
        <ele>539.44</ele>
        <time>2016-06-18T12:40:16Z</time>
      </trkpt>
      <trkpt lat="43.66096" lon="6.11323">
        <ele>539.92</ele>
        <time>2016-06-18T12:40:33Z</time>
      </trkpt>
      <trkpt lat="43.66096" lon="6.11299">
        <ele>539.44</ele>
        <time>2016-06-18T12:40:42Z</time>
      </trkpt>
      <trkpt lat="43.66097" lon="6.11263">
        <ele>538.48</ele>
        <time>2016-06-18T12:40:58Z</time>
      </trkpt>
      <trkpt lat="43.661" lon="6.11222">
        <ele>537.99</ele>
        <time>2016-06-18T12:41:17Z</time>
      </trkpt>
      <trkpt lat="43.66099" lon="6.11209">
        <ele>538.96</ele>
        <time>2016-06-18T12:41:33Z</time>
      </trkpt>
      <trkpt lat="43.66101" lon="6.11209">
        <ele>537.99</ele>
        <time>2016-06-18T12:41:55Z</time>
      </trkpt>
      <trkpt lat="43.66101" lon="6.1121">
        <ele>537.99</ele>
        <time>2016-06-18T12:42:14Z</time>
      </trkpt>
      <trkpt lat="43.66101" lon="6.11208">
        <ele>537.99</ele>
        <time>2016-06-18T12:42:18Z</time>
      </trkpt>
      <trkpt lat="43.66083" lon="6.11189">
        <ele>536.55</ele>
        <time>2016-06-18T12:42:34Z</time>
      </trkpt>
      <trkpt lat="43.66062" lon="6.11173">
        <ele>536.55</ele>
        <time>2016-06-18T12:42:50Z</time>
      </trkpt>
      <trkpt lat="43.66041" lon="6.11159">
        <ele>534.63</ele>
        <time>2016-06-18T12:43:08Z</time>
      </trkpt>
      <trkpt lat="43.66017" lon="6.11141">
        <ele>534.63</ele>
        <time>2016-06-18T12:43:24Z</time>
      </trkpt>
      <trkpt lat="43.65997" lon="6.11119">
        <ele>534.63</ele>
        <time>2016-06-18T12:43:41Z</time>
      </trkpt>
      <trkpt lat="43.65976" lon="6.111">
        <ele>534.15</ele>
        <time>2016-06-18T12:43:59Z</time>
      </trkpt>
      <trkpt lat="43.65972" lon="6.11097">
        <ele>534.15</ele>
        <time>2016-06-18T12:44:03Z</time>
      </trkpt>
      <trkpt lat="43.65966" lon="6.11085">
        <ele>534.15</ele>
        <time>2016-06-18T12:44:19Z</time>
      </trkpt>
      <trkpt lat="43.65965" lon="6.11085">
        <ele>534.15</ele>
        <time>2016-06-18T12:44:36Z</time>
      </trkpt>
      <trkpt lat="43.65963" lon="6.11085">
        <ele>534.63</ele>
        <time>2016-06-18T12:44:55Z</time>
      </trkpt>
      <trkpt lat="43.65963" lon="6.1109">
        <ele>534.15</ele>
        <time>2016-06-18T12:45:10Z</time>
      </trkpt>
      <trkpt lat="43.65968" lon="6.11089">
        <ele>535.11</ele>
        <time>2016-06-18T12:45:28Z</time>
      </trkpt>
      <trkpt lat="43.65967" lon="6.1109">
        <ele>535.59</ele>
        <time>2016-06-18T12:45:47Z</time>
      </trkpt>
      <trkpt lat="43.65961" lon="6.11085">
        <ele>534.15</ele>
        <time>2016-06-18T12:46:07Z</time>
      </trkpt>
      <trkpt lat="43.6596" lon="6.11088">
        <ele>534.15</ele>
        <time>2016-06-18T12:46:27Z</time>
      </trkpt>
      <trkpt lat="43.6596" lon="6.11085">
        <ele>534.63</ele>
        <time>2016-06-18T12:46:48Z</time>
      </trkpt>
      <trkpt lat="43.65959" lon="6.11083">
        <ele>534.63</ele>
        <time>2016-06-18T12:47:08Z</time>
      </trkpt>
      <trkpt lat="43.65958" lon="6.11086">
        <ele>534.63</ele>
        <time>2016-06-18T12:47:27Z</time>
      </trkpt>
      <trkpt lat="43.65959" lon="6.11088">
        <ele>534.63</ele>
        <time>2016-06-18T12:47:44Z</time>
      </trkpt>
      <trkpt lat="43.65957" lon="6.1109">
        <ele>534.63</ele>
        <time>2016-06-18T12:47:56Z</time>
      </trkpt>
      <trkpt lat="43.65959" lon="6.11087">
        <ele>534.63</ele>
        <time>2016-06-18T12:48:14Z</time>
      </trkpt>
      <trkpt lat="43.65962" lon="6.11088">
        <ele>535.11</ele>
        <time>2016-06-18T12:48:31Z</time>
      </trkpt>
      <trkpt lat="43.65961" lon="6.11088">
        <ele>535.11</ele>
        <time>2016-06-18T12:48:48Z</time>
      </trkpt>
      <trkpt lat="43.65959" lon="6.11089">
        <ele>535.11</ele>
        <time>2016-06-18T12:48:57Z</time>
      </trkpt>
      <trkpt lat="43.65963" lon="6.11086">
        <ele>535.11</ele>
        <time>2016-06-18T12:49:14Z</time>
      </trkpt>
      <trkpt lat="43.65968" lon="6.11086">
        <ele>535.11</ele>
        <time>2016-06-18T12:49:28Z</time>
      </trkpt>
      <trkpt lat="43.65984" lon="6.11083">
        <ele>535.59</ele>
        <time>2016-06-18T12:49:39Z</time>
      </trkpt>
      <trkpt lat="43.65995" lon="6.11085">
        <ele>536.55</ele>
        <time>2016-06-18T12:49:48Z</time>
      </trkpt>
      <trkpt lat="43.66001" lon="6.11083">
        <ele>535.59</ele>
        <time>2016-06-18T12:49:57Z</time>
      </trkpt>
      <trkpt lat="43.66" lon="6.11093">
        <ele>535.59</ele>
        <time>2016-06-18T12:50:10Z</time>
      </trkpt>
      <trkpt lat="43.66002" lon="6.1109">
        <ele>535.59</ele>
        <time>2016-06-18T12:50:25Z</time>
      </trkpt>
      <trkpt lat="43.66004" lon="6.11087">
        <ele>536.07</ele>
        <time>2016-06-18T12:50:40Z</time>
      </trkpt>
      <trkpt lat="43.66004" lon="6.11086">
        <ele>536.07</ele>
        <time>2016-06-18T12:50:53Z</time>
      </trkpt>
      <trkpt lat="43.66005" lon="6.11082">
        <ele>536.07</ele>
        <time>2016-06-18T12:51:08Z</time>
      </trkpt>
      <trkpt lat="43.66006" lon="6.11078">
        <ele>536.07</ele>
        <time>2016-06-18T12:51:20Z</time>
      </trkpt>
      <trkpt lat="43.66006" lon="6.11078">
        <ele>536.07</ele>
        <time>2016-06-18T12:51:37Z</time>
      </trkpt>
      <trkpt lat="43.66008" lon="6.11075">
        <ele>536.07</ele>
        <time>2016-06-18T12:51:54Z</time>
      </trkpt>
      <trkpt lat="43.66012" lon="6.11073">
        <ele>536.07</ele>
        <time>2016-06-18T12:52:20Z</time>
      </trkpt>
      <trkpt lat="43.66014" lon="6.11068">
        <ele>536.07</ele>
        <time>2016-06-18T12:52:41Z</time>
      </trkpt>
      <trkpt lat="43.66013" lon="6.11067">
        <ele>536.55</ele>
        <time>2016-06-18T12:53:02Z</time>
      </trkpt>
      <trkpt lat="43.66009" lon="6.11074">
        <ele>536.07</ele>
        <time>2016-06-18T12:53:15Z</time>
      </trkpt>
      <trkpt lat="43.6601" lon="6.11073">
        <ele>536.07</ele>
        <time>2016-06-18T12:53:36Z</time>
      </trkpt>
      <trkpt lat="43.6601" lon="6.11073">
        <ele>536.55</ele>
        <time>2016-06-18T12:53:47Z</time>
      </trkpt>
      <trkpt lat="43.65994" lon="6.11087">
        <ele>536.07</ele>
        <time>2016-06-18T12:54:03Z</time>
      </trkpt>
      <trkpt lat="43.65981" lon="6.1109">
        <ele>535.59</ele>
        <time>2016-06-18T12:54:16Z</time>
      </trkpt>
      <trkpt lat="43.6597" lon="6.11097">
        <ele>535.59</ele>
        <time>2016-06-18T12:54:31Z</time>
      </trkpt>
      <trkpt lat="43.65969" lon="6.11092">
        <ele>535.59</ele>
        <time>2016-06-18T12:54:49Z</time>
      </trkpt>
      <trkpt lat="43.65961" lon="6.11083">
        <ele>536.07</ele>
        <time>2016-06-18T12:55:07Z</time>
      </trkpt>
      <trkpt lat="43.65961" lon="6.11085">
        <ele>536.07</ele>
        <time>2016-06-18T12:55:22Z</time>
      </trkpt>
      <trkpt lat="43.6598" lon="6.11082">
        <ele>536.07</ele>
        <time>2016-06-18T12:55:41Z</time>
      </trkpt>
      <trkpt lat="43.65987" lon="6.11083">
        <ele>536.07</ele>
        <time>2016-06-18T12:55:57Z</time>
      </trkpt>
      <trkpt lat="43.65989" lon="6.11081">
        <ele>536.55</ele>
        <time>2016-06-18T12:56:23Z</time>
      </trkpt>
      <trkpt lat="43.65992" lon="6.11081">
        <ele>536.55</ele>
        <time>2016-06-18T12:56:38Z</time>
      </trkpt>
      <trkpt lat="43.65993" lon="6.11079">
        <ele>536.55</ele>
        <time>2016-06-18T12:57:08Z</time>
      </trkpt>
      <trkpt lat="43.65993" lon="6.11079">
        <ele>536.55</ele>
        <time>2016-06-18T12:57:10Z</time>
      </trkpt>
      <trkpt lat="43.65995" lon="6.1108">
        <ele>536.55</ele>
        <time>2016-06-18T12:57:13Z</time>
      </trkpt>
      <trkpt lat="43.65999" lon="6.11082">
        <ele>536.55</ele>
        <time>2016-06-18T12:57:16Z</time>
      </trkpt>
      <trkpt lat="43.66" lon="6.11089">
        <ele>536.55</ele>
        <time>2016-06-18T12:57:32Z</time>
      </trkpt>
      <trkpt lat="43.65999" lon="6.11089">
        <ele>536.55</ele>
        <time>2016-06-18T12:57:54Z</time>
      </trkpt>
      <trkpt lat="43.65999" lon="6.11088">
        <ele>536.55</ele>
        <time>2016-06-18T12:58:22Z</time>
      </trkpt>
      <trkpt lat="43.65998" lon="6.11089">
        <ele>536.55</ele>
        <time>2016-06-18T12:58:46Z</time>
      </trkpt>
      <trkpt lat="43.65998" lon="6.11089">
        <ele>537.03</ele>
        <time>2016-06-18T12:59:06Z</time>
      </trkpt>
      <trkpt lat="43.65997" lon="6.11089">
        <ele>537.03</ele>
        <time>2016-06-18T12:59:24Z</time>
      </trkpt>
      <trkpt lat="43.65992" lon="6.11088">
        <ele>536.55</ele>
        <time>2016-06-18T12:59:41Z</time>
      </trkpt>
      <trkpt lat="43.65986" lon="6.11084">
        <ele>536.55</ele>
        <time>2016-06-18T12:59:53Z</time>
      </trkpt>
      <trkpt lat="43.65967" lon="6.11089">
        <ele>536.55</ele>
        <time>2016-06-18T13:00:10Z</time>
      </trkpt>
      <trkpt lat="43.65962" lon="6.11085">
        <ele>536.07</ele>
        <time>2016-06-18T13:00:27Z</time>
      </trkpt>
      <trkpt lat="43.65966" lon="6.11085">
        <ele>536.07</ele>
        <time>2016-06-18T13:00:50Z</time>
      </trkpt>
      <trkpt lat="43.65983" lon="6.11081">
        <ele>536.55</ele>
        <time>2016-06-18T13:01:05Z</time>
      </trkpt>
      <trkpt lat="43.65986" lon="6.11082">
        <ele>536.07</ele>
        <time>2016-06-18T13:01:17Z</time>
      </trkpt>
      <trkpt lat="43.65986" lon="6.11082">
        <ele>536.55</ele>
        <time>2016-06-18T13:01:27Z</time>
      </trkpt>
      <trkpt lat="43.65988" lon="6.11083">
        <ele>536.55</ele>
        <time>2016-06-18T13:01:38Z</time>
      </trkpt>
      <trkpt lat="43.65988" lon="6.11086">
        <ele>536.55</ele>
        <time>2016-06-18T13:01:50Z</time>
      </trkpt>
      <trkpt lat="43.6599" lon="6.11087">
        <ele>536.55</ele>
        <time>2016-06-18T13:02:07Z</time>
      </trkpt>
      <trkpt lat="43.65989" lon="6.11086">
        <ele>536.55</ele>
        <time>2016-06-18T13:02:22Z</time>
      </trkpt>
      <trkpt lat="43.6599" lon="6.11085">
        <ele>536.55</ele>
        <time>2016-06-18T13:02:36Z</time>
      </trkpt>
      <trkpt lat="43.6599" lon="6.11089">
        <ele>536.55</ele>
        <time>2016-06-18T13:02:39Z</time>
      </trkpt>
      <trkpt lat="43.65989" lon="6.11092">
        <ele>537.03</ele>
        <time>2016-06-18T13:02:42Z</time>
      </trkpt>
      <trkpt lat="43.65987" lon="6.11097">
        <ele>537.03</ele>
        <time>2016-06-18T13:02:53Z</time>
      </trkpt>
      <trkpt lat="43.65988" lon="6.11097">
        <ele>537.03</ele>
        <time>2016-06-18T13:03:04Z</time>
      </trkpt>
      <trkpt lat="43.65985" lon="6.11098">
        <ele>536.07</ele>
        <time>2016-06-18T13:03:14Z</time>
      </trkpt>
      <trkpt lat="43.65974" lon="6.111">
        <ele>536.55</ele>
        <time>2016-06-18T13:03:24Z</time>
      </trkpt>
      <trkpt lat="43.65963" lon="6.1109">
        <ele>536.07</ele>
        <time>2016-06-18T13:03:36Z</time>
      </trkpt>
      <trkpt lat="43.65957" lon="6.11087">
        <ele>536.07</ele>
        <time>2016-06-18T13:03:52Z</time>
      </trkpt>
      <trkpt lat="43.65956" lon="6.11089">
        <ele>535.59</ele>
        <time>2016-06-18T13:03:54Z</time>
      </trkpt>
      <trkpt lat="43.6595" lon="6.11104">
        <ele>536.55</ele>
        <time>2016-06-18T13:04:08Z</time>
      </trkpt>
      <trkpt lat="43.65948" lon="6.11105">
        <ele>536.55</ele>
        <time>2016-06-18T13:04:37Z</time>
      </trkpt>
      <trkpt lat="43.65947" lon="6.11109">
        <ele>536.55</ele>
        <time>2016-06-18T13:05:13Z</time>
      </trkpt>
      <trkpt lat="43.65955" lon="6.11093">
        <ele>536.55</ele>
        <time>2016-06-18T13:05:38Z</time>
      </trkpt>
      <trkpt lat="43.65959" lon="6.11094">
        <ele>536.55</ele>
        <time>2016-06-18T13:05:44Z</time>
      </trkpt>
      <trkpt lat="43.65978" lon="6.11103">
        <ele>537.03</ele>
        <time>2016-06-18T13:06:01Z</time>
      </trkpt>
      <trkpt lat="43.65979" lon="6.11103">
        <ele>537.03</ele>
        <time>2016-06-18T13:06:02Z</time>
      </trkpt>
      <trkpt lat="43.65988" lon="6.11095">
        <ele>537.03</ele>
        <time>2016-06-18T13:06:18Z</time>
      </trkpt>
      <trkpt lat="43.65988" lon="6.11084">
        <ele>536.55</ele>
        <time>2016-06-18T13:06:30Z</time>
      </trkpt>
      <trkpt lat="43.65989" lon="6.11081">
        <ele>536.55</ele>
        <time>2016-06-18T13:06:39Z</time>
      </trkpt>
      <trkpt lat="43.6599" lon="6.1108">
        <ele>537.03</ele>
        <time>2016-06-18T13:06:41Z</time>
      </trkpt>
      <trkpt lat="43.65991" lon="6.11091">
        <ele>536.55</ele>
        <time>2016-06-18T13:06:50Z</time>
      </trkpt>
      <trkpt lat="43.6599" lon="6.11089">
        <ele>536.55</ele>
        <time>2016-06-18T13:06:52Z</time>
      </trkpt>
      <trkpt lat="43.65988" lon="6.11087">
        <ele>536.55</ele>
        <time>2016-06-18T13:07:01Z</time>
      </trkpt>
      <trkpt lat="43.65989" lon="6.11088">
        <ele>536.55</ele>
        <time>2016-06-18T13:07:04Z</time>
      </trkpt>
      <trkpt lat="43.65991" lon="6.1109">
        <ele>536.55</ele>
        <time>2016-06-18T13:07:06Z</time>
      </trkpt>
      <trkpt lat="43.65997" lon="6.11093">
        <ele>536.55</ele>
        <time>2016-06-18T13:07:11Z</time>
      </trkpt>
      <trkpt lat="43.66007" lon="6.11102">
        <ele>537.03</ele>
        <time>2016-06-18T13:07:19Z</time>
      </trkpt>
      <trkpt lat="43.66015" lon="6.11107">
        <ele>537.03</ele>
        <time>2016-06-18T13:07:33Z</time>
      </trkpt>
      <trkpt lat="43.66021" lon="6.11116">
        <ele>537.03</ele>
        <time>2016-06-18T13:07:47Z</time>
      </trkpt>
      <trkpt lat="43.66028" lon="6.11118">
        <ele>537.51</ele>
        <time>2016-06-18T13:07:53Z</time>
      </trkpt>
      <trkpt lat="43.66045" lon="6.1112">
        <ele>537.51</ele>
        <time>2016-06-18T13:08:05Z</time>
      </trkpt>
      <trkpt lat="43.6605" lon="6.11118">
        <ele>537.99</ele>
        <time>2016-06-18T13:08:16Z</time>
      </trkpt>
      <trkpt lat="43.66051" lon="6.11118">
        <ele>537.99</ele>
        <time>2016-06-18T13:08:27Z</time>
      </trkpt>
      <trkpt lat="43.66051" lon="6.11118">
        <ele>538.48</ele>
        <time>2016-06-18T13:08:48Z</time>
      </trkpt>
      <trkpt lat="43.6605" lon="6.11118">
        <ele>538.48</ele>
        <time>2016-06-18T13:09:06Z</time>
      </trkpt>
      <trkpt lat="43.6605" lon="6.11117">
        <ele>537.99</ele>
        <time>2016-06-18T13:09:24Z</time>
      </trkpt>
      <trkpt lat="43.66053" lon="6.1112">
        <ele>537.99</ele>
        <time>2016-06-18T13:09:35Z</time>
      </trkpt>
      <trkpt lat="43.66053" lon="6.11119">
        <ele>537.51</ele>
        <time>2016-06-18T13:09:58Z</time>
      </trkpt>
      <trkpt lat="43.66053" lon="6.11119">
        <ele>537.99</ele>
        <time>2016-06-18T13:09:59Z</time>
      </trkpt>
      <trkpt lat="43.66054" lon="6.11115">
        <ele>537.99</ele>
        <time>2016-06-18T13:10:10Z</time>
      </trkpt>
      <trkpt lat="43.66054" lon="6.11113">
        <ele>537.99</ele>
        <time>2016-06-18T13:10:27Z</time>
      </trkpt>
      <trkpt lat="43.66054" lon="6.11111">
        <ele>537.99</ele>
        <time>2016-06-18T13:10:38Z</time>
      </trkpt>
      <trkpt lat="43.66053" lon="6.1111">
        <ele>537.99</ele>
        <time>2016-06-18T13:10:43Z</time>
      </trkpt>
      <trkpt lat="43.66059" lon="6.11113">
        <ele>537.51</ele>
        <time>2016-06-18T13:10:57Z</time>
      </trkpt>
      <trkpt lat="43.66062" lon="6.11116">
        <ele>537.99</ele>
        <time>2016-06-18T13:11:09Z</time>
      </trkpt>
      <trkpt lat="43.6606" lon="6.1112">
        <ele>537.03</ele>
        <time>2016-06-18T13:11:16Z</time>
      </trkpt>
      <trkpt lat="43.66055" lon="6.11133">
        <ele>537.99</ele>
        <time>2016-06-18T13:11:23Z</time>
      </trkpt>
      <trkpt lat="43.66054" lon="6.11143">
        <ele>537.99</ele>
        <time>2016-06-18T13:11:28Z</time>
      </trkpt>
      <trkpt lat="43.66052" lon="6.11158">
        <ele>537.99</ele>
        <time>2016-06-18T13:11:38Z</time>
      </trkpt>
      <trkpt lat="43.66056" lon="6.1116">
        <ele>537.51</ele>
        <time>2016-06-18T13:11:54Z</time>
      </trkpt>
      <trkpt lat="43.66056" lon="6.1116">
        <ele>537.51</ele>
        <time>2016-06-18T13:12:19Z</time>
      </trkpt>
      <trkpt lat="43.66056" lon="6.1116">
        <ele>537.99</ele>
        <time>2016-06-18T13:12:44Z</time>
      </trkpt>
      <trkpt lat="43.66057" lon="6.11157">
        <ele>538.48</ele>
        <time>2016-06-18T13:13:09Z</time>
      </trkpt>
      <trkpt lat="43.66057" lon="6.11156">
        <ele>537.99</ele>
        <time>2016-06-18T13:13:21Z</time>
      </trkpt>
      <trkpt lat="43.66056" lon="6.11147">
        <ele>537.99</ele>
        <time>2016-06-18T13:13:28Z</time>
      </trkpt>
      <trkpt lat="43.66056" lon="6.11142">
        <ele>537.99</ele>
        <time>2016-06-18T13:13:32Z</time>
      </trkpt>
      <trkpt lat="43.66058" lon="6.11127">
        <ele>537.51</ele>
        <time>2016-06-18T13:13:43Z</time>
      </trkpt>
      <trkpt lat="43.66058" lon="6.11116">
        <ele>537.99</ele>
        <time>2016-06-18T13:14:01Z</time>
      </trkpt>
      <trkpt lat="43.66068" lon="6.11111">
        <ele>538.48</ele>
        <time>2016-06-18T13:14:13Z</time>
      </trkpt>
      <trkpt lat="43.66069" lon="6.1111">
        <ele>538.48</ele>
        <time>2016-06-18T13:14:49Z</time>
      </trkpt>
      <trkpt lat="43.66069" lon="6.11109">
        <ele>538.48</ele>
        <time>2016-06-18T13:15:24Z</time>
      </trkpt>
      <trkpt lat="43.66069" lon="6.1111">
        <ele>538.96</ele>
        <time>2016-06-18T13:15:55Z</time>
      </trkpt>
      <trkpt lat="43.66069" lon="6.1111">
        <ele>538.48</ele>
        <time>2016-06-18T13:16:24Z</time>
      </trkpt>
      <trkpt lat="43.66069" lon="6.1111">
        <ele>538.48</ele>
        <time>2016-06-18T13:17:03Z</time>
      </trkpt>
      <trkpt lat="43.66068" lon="6.1111">
        <ele>538.48</ele>
        <time>2016-06-18T13:17:40Z</time>
      </trkpt>
      <trkpt lat="43.66069" lon="6.1111">
        <ele>538.96</ele>
        <time>2016-06-18T13:17:57Z</time>
      </trkpt>
      <trkpt lat="43.66069" lon="6.11109">
        <ele>538.96</ele>
        <time>2016-06-18T13:18:12Z</time>
      </trkpt>
      <trkpt lat="43.66069" lon="6.11109">
        <ele>539.44</ele>
        <time>2016-06-18T13:18:37Z</time>
      </trkpt>
      <trkpt lat="43.66069" lon="6.11108">
        <ele>538.96</ele>
        <time>2016-06-18T13:19:05Z</time>
      </trkpt>
      <trkpt lat="43.66069" lon="6.11109">
        <ele>538.96</ele>
        <time>2016-06-18T13:19:34Z</time>
      </trkpt>
      <trkpt lat="43.66069" lon="6.11109">
        <ele>539.44</ele>
        <time>2016-06-18T13:20:10Z</time>
      </trkpt>
      <trkpt lat="43.66069" lon="6.11109">
        <ele>539.44</ele>
        <time>2016-06-18T13:20:46Z</time>
      </trkpt>
      <trkpt lat="43.6607" lon="6.11109">
        <ele>539.44</ele>
        <time>2016-06-18T13:21:17Z</time>
      </trkpt>
      <trkpt lat="43.6607" lon="6.11109">
        <ele>539.92</ele>
        <time>2016-06-18T13:21:49Z</time>
      </trkpt>
      <trkpt lat="43.6607" lon="6.1111">
        <ele>539.92</ele>
        <time>2016-06-18T13:22:20Z</time>
      </trkpt>
      <trkpt lat="43.66069" lon="6.11109">
        <ele>539.92</ele>
        <time>2016-06-18T13:22:53Z</time>
      </trkpt>
      <trkpt lat="43.66069" lon="6.11109">
        <ele>539.92</ele>
        <time>2016-06-18T13:23:23Z</time>
      </trkpt>
      <trkpt lat="43.66069" lon="6.1111">
        <ele>540.4</ele>
        <time>2016-06-18T13:23:56Z</time>
      </trkpt>
      <trkpt lat="43.66069" lon="6.11109">
        <ele>540.4</ele>
        <time>2016-06-18T13:24:28Z</time>
      </trkpt>
      <trkpt lat="43.66069" lon="6.1111">
        <ele>540.88</ele>
        <time>2016-06-18T13:25:00Z</time>
      </trkpt>
      <trkpt lat="43.66069" lon="6.1111">
        <ele>540.88</ele>
        <time>2016-06-18T13:25:34Z</time>
      </trkpt>
      <trkpt lat="43.66069" lon="6.1111">
        <ele>540.88</ele>
        <time>2016-06-18T13:26:13Z</time>
      </trkpt>
      <trkpt lat="43.66069" lon="6.11109">
        <ele>540.88</ele>
        <time>2016-06-18T13:26:47Z</time>
      </trkpt>
      <trkpt lat="43.66069" lon="6.11109">
        <ele>541.36</ele>
        <time>2016-06-18T13:27:23Z</time>
      </trkpt>
      <trkpt lat="43.66068" lon="6.11108">
        <ele>541.36</ele>
        <time>2016-06-18T13:27:59Z</time>
      </trkpt>
      <trkpt lat="43.66069" lon="6.11109">
        <ele>541.36</ele>
        <time>2016-06-18T13:28:37Z</time>
      </trkpt>
      <trkpt lat="43.66069" lon="6.11109">
        <ele>541.36</ele>
        <time>2016-06-18T13:29:13Z</time>
      </trkpt>
      <trkpt lat="43.66069" lon="6.11109">
        <ele>541.84</ele>
        <time>2016-06-18T13:29:49Z</time>
      </trkpt>
      <trkpt lat="43.66069" lon="6.11109">
        <ele>541.84</ele>
        <time>2016-06-18T13:30:22Z</time>
      </trkpt>
      <trkpt lat="43.66069" lon="6.11109">
        <ele>541.84</ele>
        <time>2016-06-18T13:30:56Z</time>
      </trkpt>
      <trkpt lat="43.6607" lon="6.1111">
        <ele>542.32</ele>
        <time>2016-06-18T13:31:29Z</time>
      </trkpt>
      <trkpt lat="43.6607" lon="6.1111">
        <ele>542.32</ele>
        <time>2016-06-18T13:32:01Z</time>
      </trkpt>
      <trkpt lat="43.6607" lon="6.11111">
        <ele>542.32</ele>
        <time>2016-06-18T13:32:34Z</time>
      </trkpt>
      <trkpt lat="43.66071" lon="6.11111">
        <ele>542.32</ele>
        <time>2016-06-18T13:33:05Z</time>
      </trkpt>
      <trkpt lat="43.6607" lon="6.11111">
        <ele>542.32</ele>
        <time>2016-06-18T13:33:33Z</time>
      </trkpt>
      <trkpt lat="43.6607" lon="6.11111">
        <ele>542.32</ele>
        <time>2016-06-18T13:34:04Z</time>
      </trkpt>
      <trkpt lat="43.6607" lon="6.11112">
        <ele>542.32</ele>
        <time>2016-06-18T13:34:33Z</time>
      </trkpt>
      <trkpt lat="43.66069" lon="6.11112">
        <ele>542.8</ele>
        <time>2016-06-18T13:35:05Z</time>
      </trkpt>
      <trkpt lat="43.66069" lon="6.11112">
        <ele>542.8</ele>
        <time>2016-06-18T13:35:34Z</time>
      </trkpt>
      <trkpt lat="43.66069" lon="6.11112">
        <ele>542.8</ele>
        <time>2016-06-18T13:36:04Z</time>
      </trkpt>
      <trkpt lat="43.66069" lon="6.11111">
        <ele>542.8</ele>
        <time>2016-06-18T13:36:32Z</time>
      </trkpt>
      <trkpt lat="43.66069" lon="6.11111">
        <ele>543.28</ele>
        <time>2016-06-18T13:37:05Z</time>
      </trkpt>
      <trkpt lat="43.66069" lon="6.11111">
        <ele>543.28</ele>
        <time>2016-06-18T13:37:36Z</time>
      </trkpt>
      <trkpt lat="43.66069" lon="6.11111">
        <ele>543.28</ele>
        <time>2016-06-18T13:38:16Z</time>
      </trkpt>
      <trkpt lat="43.66069" lon="6.11111">
        <ele>543.28</ele>
        <time>2016-06-18T13:38:55Z</time>
      </trkpt>
      <trkpt lat="43.6607" lon="6.11111">
        <ele>543.28</ele>
        <time>2016-06-18T13:39:31Z</time>
      </trkpt>
      <trkpt lat="43.6607" lon="6.11111">
        <ele>543.76</ele>
        <time>2016-06-18T13:40:03Z</time>
      </trkpt>
      <trkpt lat="43.66069" lon="6.11111">
        <ele>543.28</ele>
        <time>2016-06-18T13:40:31Z</time>
      </trkpt>
      <trkpt lat="43.66069" lon="6.1111">
        <ele>543.76</ele>
        <time>2016-06-18T13:41:00Z</time>
      </trkpt>
      <trkpt lat="43.66068" lon="6.1111">
        <ele>543.76</ele>
        <time>2016-06-18T13:41:32Z</time>
      </trkpt>
      <trkpt lat="43.66068" lon="6.1111">
        <ele>544.24</ele>
        <time>2016-06-18T13:42:05Z</time>
      </trkpt>
      <trkpt lat="43.66068" lon="6.1111">
        <ele>544.24</ele>
        <time>2016-06-18T13:42:36Z</time>
      </trkpt>
      <trkpt lat="43.66068" lon="6.11109">
        <ele>544.24</ele>
        <time>2016-06-18T13:43:03Z</time>
      </trkpt>
      <trkpt lat="43.66068" lon="6.11109">
        <ele>544.24</ele>
        <time>2016-06-18T13:43:31Z</time>
      </trkpt>
      <trkpt lat="43.66068" lon="6.11109">
        <ele>544.24</ele>
        <time>2016-06-18T13:43:59Z</time>
      </trkpt>
      <trkpt lat="43.66068" lon="6.11109">
        <ele>544.72</ele>
        <time>2016-06-18T13:44:32Z</time>
      </trkpt>
      <trkpt lat="43.66069" lon="6.1111">
        <ele>544.72</ele>
        <time>2016-06-18T13:45:00Z</time>
      </trkpt>
      <trkpt lat="43.66069" lon="6.1111">
        <ele>544.72</ele>
        <time>2016-06-18T13:45:35Z</time>
      </trkpt>
      <trkpt lat="43.66069" lon="6.11109">
        <ele>544.24</ele>
        <time>2016-06-18T13:46:11Z</time>
      </trkpt>
      <trkpt lat="43.66069" lon="6.11109">
        <ele>544.24</ele>
        <time>2016-06-18T13:46:46Z</time>
      </trkpt>
      <trkpt lat="43.66069" lon="6.11108">
        <ele>544.72</ele>
        <time>2016-06-18T13:47:22Z</time>
      </trkpt>
      <trkpt lat="43.66069" lon="6.11108">
        <ele>544.24</ele>
        <time>2016-06-18T13:47:57Z</time>
      </trkpt>
      <trkpt lat="43.66069" lon="6.11108">
        <ele>544.24</ele>
        <time>2016-06-18T13:48:29Z</time>
      </trkpt>
      <trkpt lat="43.66069" lon="6.11107">
        <ele>544.24</ele>
        <time>2016-06-18T13:49:05Z</time>
      </trkpt>
      <trkpt lat="43.66069" lon="6.11107">
        <ele>544.72</ele>
        <time>2016-06-18T13:49:38Z</time>
      </trkpt>
      <trkpt lat="43.66069" lon="6.11107">
        <ele>544.24</ele>
        <time>2016-06-18T13:50:09Z</time>
      </trkpt>
      <trkpt lat="43.66069" lon="6.11108">
        <ele>544.72</ele>
        <time>2016-06-18T13:50:42Z</time>
      </trkpt>
      <trkpt lat="43.6607" lon="6.11109">
        <ele>544.72</ele>
        <time>2016-06-18T13:51:15Z</time>
      </trkpt>
      <trkpt lat="43.6607" lon="6.11108">
        <ele>544.24</ele>
        <time>2016-06-18T13:51:31Z</time>
      </trkpt>
      <trkpt lat="43.6607" lon="6.11109">
        <ele>544.72</ele>
        <time>2016-06-18T13:52:02Z</time>
      </trkpt>
      <trkpt lat="43.66071" lon="6.1111">
        <ele>544.72</ele>
        <time>2016-06-18T13:52:28Z</time>
      </trkpt>
      <trkpt lat="43.6607" lon="6.1111">
        <ele>544.24</ele>
        <time>2016-06-18T13:52:31Z</time>
      </trkpt>
      <trkpt lat="43.66067" lon="6.11112">
        <ele>544.24</ele>
        <time>2016-06-18T13:52:37Z</time>
      </trkpt>
      <trkpt lat="43.66063" lon="6.11115">
        <ele>544.24</ele>
        <time>2016-06-18T13:52:42Z</time>
      </trkpt>
      <trkpt lat="43.66055" lon="6.11119">
        <ele>544.24</ele>
        <time>2016-06-18T13:52:54Z</time>
      </trkpt>
      <trkpt lat="43.66054" lon="6.11119">
        <ele>543.76</ele>
        <time>2016-06-18T13:52:56Z</time>
      </trkpt>
      <trkpt lat="43.66048" lon="6.11121">
        <ele>543.28</ele>
        <time>2016-06-18T13:53:03Z</time>
      </trkpt>
      <trkpt lat="43.66032" lon="6.11122">
        <ele>543.76</ele>
        <time>2016-06-18T13:53:17Z</time>
      </trkpt>
      <trkpt lat="43.66017" lon="6.1111">
        <ele>543.28</ele>
        <time>2016-06-18T13:53:33Z</time>
      </trkpt>
      <trkpt lat="43.66015" lon="6.11109">
        <ele>543.28</ele>
        <time>2016-06-18T13:53:46Z</time>
      </trkpt>
      <trkpt lat="43.66001" lon="6.11102">
        <ele>543.28</ele>
        <time>2016-06-18T13:53:59Z</time>
      </trkpt>
      <trkpt lat="43.65996" lon="6.11099">
        <ele>543.28</ele>
        <time>2016-06-18T13:54:07Z</time>
      </trkpt>
      <trkpt lat="43.65985" lon="6.11095">
        <ele>543.28</ele>
        <time>2016-06-18T13:54:18Z</time>
      </trkpt>
      <trkpt lat="43.65981" lon="6.11093">
        <ele>543.28</ele>
        <time>2016-06-18T13:54:30Z</time>
      </trkpt>
      <trkpt lat="43.65978" lon="6.11091">
        <ele>543.28</ele>
        <time>2016-06-18T13:54:49Z</time>
      </trkpt>
      <trkpt lat="43.65978" lon="6.11093">
        <ele>543.28</ele>
        <time>2016-06-18T13:55:01Z</time>
      </trkpt>
      <trkpt lat="43.65964" lon="6.11085">
        <ele>543.28</ele>
        <time>2016-06-18T13:55:15Z</time>
      </trkpt>
      <trkpt lat="43.65963" lon="6.11084">
        <ele>542.8</ele>
        <time>2016-06-18T13:55:26Z</time>
      </trkpt>
      <trkpt lat="43.6596" lon="6.11085">
        <ele>542.8</ele>
        <time>2016-06-18T13:55:39Z</time>
      </trkpt>
      <trkpt lat="43.65959" lon="6.11087">
        <ele>543.28</ele>
        <time>2016-06-18T13:55:55Z</time>
      </trkpt>
      <trkpt lat="43.6596" lon="6.11087">
        <ele>543.28</ele>
        <time>2016-06-18T13:56:10Z</time>
      </trkpt>
      <trkpt lat="43.65959" lon="6.11086">
        <ele>543.28</ele>
        <time>2016-06-18T13:56:29Z</time>
      </trkpt>
      <trkpt lat="43.6596" lon="6.11088">
        <ele>543.28</ele>
        <time>2016-06-18T13:56:50Z</time>
      </trkpt>
      <trkpt lat="43.6596" lon="6.11089">
        <ele>542.8</ele>
        <time>2016-06-18T13:57:13Z</time>
      </trkpt>
      <trkpt lat="43.65959" lon="6.11089">
        <ele>542.32</ele>
        <time>2016-06-18T13:57:33Z</time>
      </trkpt>
      <trkpt lat="43.65959" lon="6.11089">
        <ele>542.8</ele>
        <time>2016-06-18T13:57:55Z</time>
      </trkpt>
      <trkpt lat="43.65959" lon="6.11087">
        <ele>542.8</ele>
        <time>2016-06-18T13:58:14Z</time>
      </trkpt>
      <trkpt lat="43.65959" lon="6.11086">
        <ele>542.8</ele>
        <time>2016-06-18T13:58:40Z</time>
      </trkpt>
      <trkpt lat="43.65962" lon="6.11091">
        <ele>543.28</ele>
        <time>2016-06-18T13:58:55Z</time>
      </trkpt>
      <trkpt lat="43.65961" lon="6.11088">
        <ele>543.28</ele>
        <time>2016-06-18T13:59:08Z</time>
      </trkpt>
      <trkpt lat="43.65961" lon="6.11089">
        <ele>543.28</ele>
        <time>2016-06-18T13:59:26Z</time>
      </trkpt>
      <trkpt lat="43.65962" lon="6.11089">
        <ele>543.28</ele>
        <time>2016-06-18T13:59:50Z</time>
      </trkpt>
      <trkpt lat="43.65962" lon="6.11089">
        <ele>543.28</ele>
        <time>2016-06-18T14:00:10Z</time>
      </trkpt>
      <trkpt lat="43.65961" lon="6.11088">
        <ele>543.28</ele>
        <time>2016-06-18T14:00:31Z</time>
      </trkpt>
      <trkpt lat="43.65962" lon="6.11091">
        <ele>543.28</ele>
        <time>2016-06-18T14:00:49Z</time>
      </trkpt>
      <trkpt lat="43.65962" lon="6.11092">
        <ele>543.28</ele>
        <time>2016-06-18T14:01:09Z</time>
      </trkpt>
      <trkpt lat="43.65963" lon="6.11092">
        <ele>543.28</ele>
        <time>2016-06-18T14:01:21Z</time>
      </trkpt>
      <trkpt lat="43.65963" lon="6.11093">
        <ele>543.28</ele>
        <time>2016-06-18T14:01:37Z</time>
      </trkpt>
      <trkpt lat="43.65964" lon="6.11093">
        <ele>543.76</ele>
        <time>2016-06-18T14:01:51Z</time>
      </trkpt>
      <trkpt lat="43.65964" lon="6.11092">
        <ele>543.28</ele>
        <time>2016-06-18T14:01:57Z</time>
      </trkpt>
      <trkpt lat="43.65963" lon="6.11089">
        <ele>543.28</ele>
        <time>2016-06-18T14:02:00Z</time>
      </trkpt>
      <trkpt lat="43.65958" lon="6.11082">
        <ele>543.28</ele>
        <time>2016-06-18T14:02:14Z</time>
      </trkpt>
      <trkpt lat="43.65958" lon="6.11084">
        <ele>543.28</ele>
        <time>2016-06-18T14:02:42Z</time>
      </trkpt>
      <trkpt lat="43.65959" lon="6.11085">
        <ele>543.28</ele>
        <time>2016-06-18T14:02:43Z</time>
      </trkpt>
      <trkpt lat="43.65961" lon="6.11089">
        <ele>543.76</ele>
        <time>2016-06-18T14:02:57Z</time>
      </trkpt>
      <trkpt lat="43.65962" lon="6.1109">
        <ele>543.28</ele>
        <time>2016-06-18T14:03:12Z</time>
      </trkpt>
      <trkpt lat="43.65962" lon="6.11089">
        <ele>543.28</ele>
        <time>2016-06-18T14:03:31Z</time>
      </trkpt>
      <trkpt lat="43.65962" lon="6.1109">
        <ele>543.76</ele>
        <time>2016-06-18T14:03:45Z</time>
      </trkpt>
      <trkpt lat="43.6596" lon="6.11088">
        <ele>543.76</ele>
        <time>2016-06-18T14:04:02Z</time>
      </trkpt>
      <trkpt lat="43.65957" lon="6.11082">
        <ele>543.76</ele>
        <time>2016-06-18T14:04:18Z</time>
      </trkpt>
      <trkpt lat="43.65957" lon="6.11082">
        <ele>543.28</ele>
        <time>2016-06-18T14:04:35Z</time>
      </trkpt>
      <trkpt lat="43.65958" lon="6.11086">
        <ele>543.76</ele>
        <time>2016-06-18T14:04:38Z</time>
      </trkpt>
      <trkpt lat="43.65964" lon="6.11091">
        <ele>543.76</ele>
        <time>2016-06-18T14:04:52Z</time>
      </trkpt>
      <trkpt lat="43.65962" lon="6.11092">
        <ele>543.76</ele>
        <time>2016-06-18T14:05:08Z</time>
      </trkpt>
      <trkpt lat="43.65962" lon="6.11093">
        <ele>543.28</ele>
        <time>2016-06-18T14:05:25Z</time>
      </trkpt>
      <trkpt lat="43.65961" lon="6.11094">
        <ele>543.76</ele>
        <time>2016-06-18T14:05:43Z</time>
      </trkpt>
      <trkpt lat="43.65961" lon="6.11091">
        <ele>543.76</ele>
        <time>2016-06-18T14:05:58Z</time>
      </trkpt>
      <trkpt lat="43.65961" lon="6.1109">
        <ele>543.76</ele>
        <time>2016-06-18T14:06:09Z</time>
      </trkpt>
      <trkpt lat="43.65961" lon="6.1109">
        <ele>543.76</ele>
        <time>2016-06-18T14:06:25Z</time>
      </trkpt>
      <trkpt lat="43.6596" lon="6.11088">
        <ele>543.28</ele>
        <time>2016-06-18T14:06:38Z</time>
      </trkpt>
      <trkpt lat="43.65958" lon="6.11084">
        <ele>543.28</ele>
        <time>2016-06-18T14:06:53Z</time>
      </trkpt>
      <trkpt lat="43.65958" lon="6.11082">
        <ele>543.28</ele>
        <time>2016-06-18T14:07:09Z</time>
      </trkpt>
      <trkpt lat="43.65958" lon="6.11082">
        <ele>543.76</ele>
        <time>2016-06-18T14:07:25Z</time>
      </trkpt>
      <trkpt lat="43.65961" lon="6.11089">
        <ele>543.76</ele>
        <time>2016-06-18T14:07:40Z</time>
      </trkpt>
      <trkpt lat="43.65962" lon="6.11089">
        <ele>543.28</ele>
        <time>2016-06-18T14:07:56Z</time>
      </trkpt>
      <trkpt lat="43.65962" lon="6.11089">
        <ele>543.76</ele>
        <time>2016-06-18T14:08:17Z</time>
      </trkpt>
      <trkpt lat="43.65962" lon="6.11089">
        <ele>543.76</ele>
        <time>2016-06-18T14:08:34Z</time>
      </trkpt>
      <trkpt lat="43.65962" lon="6.11091">
        <ele>543.76</ele>
        <time>2016-06-18T14:08:48Z</time>
      </trkpt>
      <trkpt lat="43.65962" lon="6.11091">
        <ele>542.8</ele>
        <time>2016-06-18T14:09:04Z</time>
      </trkpt>
      <trkpt lat="43.65961" lon="6.1109">
        <ele>543.28</ele>
        <time>2016-06-18T14:09:26Z</time>
      </trkpt>
      <trkpt lat="43.65961" lon="6.11091">
        <ele>543.76</ele>
        <time>2016-06-18T14:09:50Z</time>
      </trkpt>
      <trkpt lat="43.65961" lon="6.11091">
        <ele>543.28</ele>
        <time>2016-06-18T14:10:09Z</time>
      </trkpt>
      <trkpt lat="43.65961" lon="6.1109">
        <ele>543.28</ele>
        <time>2016-06-18T14:10:26Z</time>
      </trkpt>
      <trkpt lat="43.65962" lon="6.11091">
        <ele>543.28</ele>
        <time>2016-06-18T14:10:49Z</time>
      </trkpt>
      <trkpt lat="43.65962" lon="6.11091">
        <ele>542.8</ele>
        <time>2016-06-18T14:11:09Z</time>
      </trkpt>
      <trkpt lat="43.65959" lon="6.11086">
        <ele>543.28</ele>
        <time>2016-06-18T14:11:23Z</time>
      </trkpt>
      <trkpt lat="43.65961" lon="6.11091">
        <ele>543.28</ele>
        <time>2016-06-18T14:11:42Z</time>
      </trkpt>
      <trkpt lat="43.65962" lon="6.11093">
        <ele>543.28</ele>
        <time>2016-06-18T14:11:55Z</time>
      </trkpt>
      <trkpt lat="43.65963" lon="6.11093">
        <ele>543.28</ele>
        <time>2016-06-18T14:12:02Z</time>
      </trkpt>
      <trkpt lat="43.65958" lon="6.11083">
        <ele>543.28</ele>
        <time>2016-06-18T14:12:16Z</time>
      </trkpt>
      <trkpt lat="43.65958" lon="6.1109">
        <ele>543.28</ele>
        <time>2016-06-18T14:12:27Z</time>
      </trkpt>
      <trkpt lat="43.65963" lon="6.11094">
        <ele>543.28</ele>
        <time>2016-06-18T14:12:42Z</time>
      </trkpt>
      <trkpt lat="43.65963" lon="6.11094">
        <ele>543.28</ele>
        <time>2016-06-18T14:12:56Z</time>
      </trkpt>
      <trkpt lat="43.65963" lon="6.11093">
        <ele>543.28</ele>
        <time>2016-06-18T14:13:11Z</time>
      </trkpt>
      <trkpt lat="43.65963" lon="6.11093">
        <ele>543.28</ele>
        <time>2016-06-18T14:13:27Z</time>
      </trkpt>
      <trkpt lat="43.65962" lon="6.11093">
        <ele>543.28</ele>
        <time>2016-06-18T14:13:48Z</time>
      </trkpt>
      <trkpt lat="43.65962" lon="6.11093">
        <ele>543.28</ele>
        <time>2016-06-18T14:14:07Z</time>
      </trkpt>
      <trkpt lat="43.65962" lon="6.11093">
        <ele>542.8</ele>
        <time>2016-06-18T14:14:30Z</time>
      </trkpt>
      <trkpt lat="43.65963" lon="6.11092">
        <ele>542.8</ele>
        <time>2016-06-18T14:14:46Z</time>
      </trkpt>
      <trkpt lat="43.65963" lon="6.11092">
        <ele>543.28</ele>
        <time>2016-06-18T14:15:01Z</time>
      </trkpt>
      <trkpt lat="43.65964" lon="6.1109">
        <ele>542.8</ele>
        <time>2016-06-18T14:15:10Z</time>
      </trkpt>
      <trkpt lat="43.65964" lon="6.11091">
        <ele>543.28</ele>
        <time>2016-06-18T14:15:33Z</time>
      </trkpt>
      <trkpt lat="43.65965" lon="6.11089">
        <ele>543.28</ele>
        <time>2016-06-18T14:15:48Z</time>
      </trkpt>
      <trkpt lat="43.65964" lon="6.11089">
        <ele>543.28</ele>
        <time>2016-06-18T14:16:05Z</time>
      </trkpt>
      <trkpt lat="43.65964" lon="6.11087">
        <ele>543.28</ele>
        <time>2016-06-18T14:16:17Z</time>
      </trkpt>
      <trkpt lat="43.65965" lon="6.11088">
        <ele>543.76</ele>
        <time>2016-06-18T14:16:36Z</time>
      </trkpt>
      <trkpt lat="43.65965" lon="6.11087">
        <ele>543.28</ele>
        <time>2016-06-18T14:16:49Z</time>
      </trkpt>
      <trkpt lat="43.65966" lon="6.11087">
        <ele>543.28</ele>
        <time>2016-06-18T14:17:06Z</time>
      </trkpt>
      <trkpt lat="43.65965" lon="6.11087">
        <ele>543.28</ele>
        <time>2016-06-18T14:17:21Z</time>
      </trkpt>
      <trkpt lat="43.65963" lon="6.1109">
        <ele>543.28</ele>
        <time>2016-06-18T14:17:36Z</time>
      </trkpt>
      <trkpt lat="43.65962" lon="6.1109">
        <ele>543.28</ele>
        <time>2016-06-18T14:17:53Z</time>
      </trkpt>
      <trkpt lat="43.65959" lon="6.11091">
        <ele>543.76</ele>
        <time>2016-06-18T14:18:02Z</time>
      </trkpt>
      <trkpt lat="43.65956" lon="6.11092">
        <ele>543.76</ele>
        <time>2016-06-18T14:18:05Z</time>
      </trkpt>
      <trkpt lat="43.65948" lon="6.1109">
        <ele>543.28</ele>
        <time>2016-06-18T14:18:18Z</time>
      </trkpt>
      <trkpt lat="43.65948" lon="6.11089">
        <ele>543.28</ele>
        <time>2016-06-18T14:18:39Z</time>
      </trkpt>
      <trkpt lat="43.65946" lon="6.11086">
        <ele>543.28</ele>
        <time>2016-06-18T14:18:49Z</time>
      </trkpt>
      <trkpt lat="43.65943" lon="6.11083">
        <ele>543.28</ele>
        <time>2016-06-18T14:18:59Z</time>
      </trkpt>
      <trkpt lat="43.65929" lon="6.11075">
        <ele>542.32</ele>
        <time>2016-06-18T14:19:10Z</time>
      </trkpt>
      <trkpt lat="43.65919" lon="6.11065">
        <ele>542.8</ele>
        <time>2016-06-18T14:19:18Z</time>
      </trkpt>
      <trkpt lat="43.65914" lon="6.11064">
        <ele>542.8</ele>
        <time>2016-06-18T14:19:21Z</time>
      </trkpt>
      <trkpt lat="43.65908" lon="6.11069">
        <ele>542.8</ele>
        <time>2016-06-18T14:19:31Z</time>
      </trkpt>
      <trkpt lat="43.65902" lon="6.11073">
        <ele>542.8</ele>
        <time>2016-06-18T14:19:37Z</time>
      </trkpt>
      <trkpt lat="43.65897" lon="6.1107">
        <ele>542.32</ele>
        <time>2016-06-18T14:19:49Z</time>
      </trkpt>
      <trkpt lat="43.65895" lon="6.1107">
        <ele>542.32</ele>
        <time>2016-06-18T14:19:51Z</time>
      </trkpt>
      <trkpt lat="43.65878" lon="6.11059">
        <ele>541.84</ele>
        <time>2016-06-18T14:20:05Z</time>
      </trkpt>
      <trkpt lat="43.65873" lon="6.11055">
        <ele>541.84</ele>
        <time>2016-06-18T14:20:09Z</time>
      </trkpt>
      <trkpt lat="43.65866" lon="6.11052">
        <ele>541.84</ele>
        <time>2016-06-18T14:20:17Z</time>
      </trkpt>
      <trkpt lat="43.65858" lon="6.11048">
        <ele>541.84</ele>
        <time>2016-06-18T14:20:25Z</time>
      </trkpt>
      <trkpt lat="43.65855" lon="6.11046">
        <ele>541.36</ele>
        <time>2016-06-18T14:20:28Z</time>
      </trkpt>
      <trkpt lat="43.65847" lon="6.11042">
        <ele>541.36</ele>
        <time>2016-06-18T14:20:36Z</time>
      </trkpt>
      <trkpt lat="43.65845" lon="6.11042">
        <ele>541.36</ele>
        <time>2016-06-18T14:20:38Z</time>
      </trkpt>
      <trkpt lat="43.65831" lon="6.11039">
        <ele>540.88</ele>
        <time>2016-06-18T14:20:51Z</time>
      </trkpt>
      <trkpt lat="43.65814" lon="6.11029">
        <ele>540.88</ele>
        <time>2016-06-18T14:21:06Z</time>
      </trkpt>
      <trkpt lat="43.65803" lon="6.11028">
        <ele>540.88</ele>
        <time>2016-06-18T14:21:21Z</time>
      </trkpt>
      <trkpt lat="43.6579" lon="6.11026">
        <ele>540.4</ele>
        <time>2016-06-18T14:21:37Z</time>
      </trkpt>
      <trkpt lat="43.65788" lon="6.11016">
        <ele>539.92</ele>
        <time>2016-06-18T14:21:44Z</time>
      </trkpt>
      <trkpt lat="43.65791" lon="6.11007">
        <ele>539.92</ele>
        <time>2016-06-18T14:21:51Z</time>
      </trkpt>
      <trkpt lat="43.65796" lon="6.10997">
        <ele>539.92</ele>
        <time>2016-06-18T14:21:58Z</time>
      </trkpt>
      <trkpt lat="43.65798" lon="6.10992">
        <ele>539.92</ele>
        <time>2016-06-18T14:22:01Z</time>
      </trkpt>
      <trkpt lat="43.65799" lon="6.10969">
        <ele>539.92</ele>
        <time>2016-06-18T14:22:15Z</time>
      </trkpt>
      <trkpt lat="43.65799" lon="6.10963">
        <ele>539.92</ele>
        <time>2016-06-18T14:22:19Z</time>
      </trkpt>
      <trkpt lat="43.65794" lon="6.1094">
        <ele>539.92</ele>
        <time>2016-06-18T14:22:35Z</time>
      </trkpt>
      <trkpt lat="43.65791" lon="6.1093">
        <ele>539.44</ele>
        <time>2016-06-18T14:22:40Z</time>
      </trkpt>
      <trkpt lat="43.65799" lon="6.10908">
        <ele>539.44</ele>
        <time>2016-06-18T14:22:54Z</time>
      </trkpt>
      <trkpt lat="43.65802" lon="6.10899">
        <ele>538.96</ele>
        <time>2016-06-18T14:23:01Z</time>
      </trkpt>
      <trkpt lat="43.65805" lon="6.10892">
        <ele>538.96</ele>
        <time>2016-06-18T14:23:14Z</time>
      </trkpt>
      <trkpt lat="43.65806" lon="6.10892">
        <ele>539.44</ele>
        <time>2016-06-18T14:23:29Z</time>
      </trkpt>
      <trkpt lat="43.65806" lon="6.10892">
        <ele>538.96</ele>
        <time>2016-06-18T14:23:48Z</time>
      </trkpt>
      <trkpt lat="43.65805" lon="6.10892">
        <ele>538.96</ele>
        <time>2016-06-18T14:24:07Z</time>
      </trkpt>
      <trkpt lat="43.65806" lon="6.10892">
        <ele>538.96</ele>
        <time>2016-06-18T14:24:28Z</time>
      </trkpt>
      <trkpt lat="43.65807" lon="6.10893">
        <ele>539.44</ele>
        <time>2016-06-18T14:24:41Z</time>
      </trkpt>
      <trkpt lat="43.65809" lon="6.10893">
        <ele>539.44</ele>
        <time>2016-06-18T14:24:59Z</time>
      </trkpt>
      <trkpt lat="43.65809" lon="6.10893">
        <ele>539.44</ele>
        <time>2016-06-18T14:25:18Z</time>
      </trkpt>
      <trkpt lat="43.6581" lon="6.10894">
        <ele>539.44</ele>
        <time>2016-06-18T14:25:38Z</time>
      </trkpt>
      <trkpt lat="43.6581" lon="6.10895">
        <ele>539.44</ele>
        <time>2016-06-18T14:26:00Z</time>
      </trkpt>
      <trkpt lat="43.65814" lon="6.10882">
        <ele>539.44</ele>
        <time>2016-06-18T14:26:15Z</time>
      </trkpt>
      <trkpt lat="43.65814" lon="6.10879">
        <ele>539.44</ele>
        <time>2016-06-18T14:26:17Z</time>
      </trkpt>
      <trkpt lat="43.65821" lon="6.10866">
        <ele>539.44</ele>
        <time>2016-06-18T14:26:27Z</time>
      </trkpt>
      <trkpt lat="43.65834" lon="6.10854">
        <ele>538.96</ele>
        <time>2016-06-18T14:26:39Z</time>
      </trkpt>
      <trkpt lat="43.65854" lon="6.10837">
        <ele>538.96</ele>
        <time>2016-06-18T14:26:56Z</time>
      </trkpt>
      <trkpt lat="43.65857" lon="6.10834">
        <ele>538.96</ele>
        <time>2016-06-18T14:27:00Z</time>
      </trkpt>
      <trkpt lat="43.65861" lon="6.10832">
        <ele>538.96</ele>
        <time>2016-06-18T14:27:03Z</time>
      </trkpt>
      <trkpt lat="43.65873" lon="6.1082">
        <ele>538.96</ele>
        <time>2016-06-18T14:27:12Z</time>
      </trkpt>
      <trkpt lat="43.65882" lon="6.10812">
        <ele>538.48</ele>
        <time>2016-06-18T14:27:19Z</time>
      </trkpt>
      <trkpt lat="43.65896" lon="6.10796">
        <ele>538.96</ele>
        <time>2016-06-18T14:27:31Z</time>
      </trkpt>
      <trkpt lat="43.65914" lon="6.10775">
        <ele>538.96</ele>
        <time>2016-06-18T14:27:45Z</time>
      </trkpt>
      <trkpt lat="43.65927" lon="6.10761">
        <ele>538.96</ele>
        <time>2016-06-18T14:27:57Z</time>
      </trkpt>
      <trkpt lat="43.65939" lon="6.10746">
        <ele>538.96</ele>
        <time>2016-06-18T14:28:08Z</time>
      </trkpt>
      <trkpt lat="43.65952" lon="6.10732">
        <ele>538.96</ele>
        <time>2016-06-18T14:28:19Z</time>
      </trkpt>
      <trkpt lat="43.65975" lon="6.10708">
        <ele>538.48</ele>
        <time>2016-06-18T14:28:35Z</time>
      </trkpt>
      <trkpt lat="43.65994" lon="6.10692">
        <ele>538.48</ele>
        <time>2016-06-18T14:28:51Z</time>
      </trkpt>
      <trkpt lat="43.65994" lon="6.10689">
        <ele>538.48</ele>
        <time>2016-06-18T14:28:52Z</time>
      </trkpt>
      <trkpt lat="43.66006" lon="6.1066">
        <ele>537.99</ele>
        <time>2016-06-18T14:29:08Z</time>
      </trkpt>
      <trkpt lat="43.66017" lon="6.10636">
        <ele>537.99</ele>
        <time>2016-06-18T14:29:20Z</time>
      </trkpt>
      <trkpt lat="43.66026" lon="6.10608">
        <ele>537.51</ele>
        <time>2016-06-18T14:29:36Z</time>
      </trkpt>
      <trkpt lat="43.66027" lon="6.10602">
        <ele>537.51</ele>
        <time>2016-06-18T14:29:39Z</time>
      </trkpt>
      <trkpt lat="43.66037" lon="6.10568">
        <ele>537.03</ele>
        <time>2016-06-18T14:29:56Z</time>
      </trkpt>
      <trkpt lat="43.66047" lon="6.10548">
        <ele>536.55</ele>
        <time>2016-06-18T14:30:07Z</time>
      </trkpt>
      <trkpt lat="43.66049" lon="6.10519">
        <ele>536.07</ele>
        <time>2016-06-18T14:30:22Z</time>
      </trkpt>
      <trkpt lat="43.66057" lon="6.10488">
        <ele>535.11</ele>
        <time>2016-06-18T14:30:39Z</time>
      </trkpt>
      <trkpt lat="43.66068" lon="6.10473">
        <ele>535.59</ele>
        <time>2016-06-18T14:30:53Z</time>
      </trkpt>
      <trkpt lat="43.66076" lon="6.10479">
        <ele>535.59</ele>
        <time>2016-06-18T14:30:59Z</time>
      </trkpt>
      <trkpt lat="43.66098" lon="6.10499">
        <ele>537.03</ele>
        <time>2016-06-18T14:31:15Z</time>
      </trkpt>
      <trkpt lat="43.66113" lon="6.10514">
        <ele>537.99</ele>
        <time>2016-06-18T14:31:29Z</time>
      </trkpt>
      <trkpt lat="43.66134" lon="6.1054">
        <ele>539.44</ele>
        <time>2016-06-18T14:31:47Z</time>
      </trkpt>
      <trkpt lat="43.66153" lon="6.10563">
        <ele>540.4</ele>
        <time>2016-06-18T14:32:05Z</time>
      </trkpt>
      <trkpt lat="43.66177" lon="6.10583">
        <ele>540.88</ele>
        <time>2016-06-18T14:32:22Z</time>
      </trkpt>
      <trkpt lat="43.66189" lon="6.10566">
        <ele>540.88</ele>
        <time>2016-06-18T14:32:37Z</time>
      </trkpt>
      <trkpt lat="43.66197" lon="6.1054">
        <ele>539.92</ele>
        <time>2016-06-18T14:32:52Z</time>
      </trkpt>
      <trkpt lat="43.66205" lon="6.10531">
        <ele>539.92</ele>
        <time>2016-06-18T14:33:01Z</time>
      </trkpt>
      <trkpt lat="43.66219" lon="6.10543">
        <ele>539.92</ele>
        <time>2016-06-18T14:33:10Z</time>
      </trkpt>
      <trkpt lat="43.66231" lon="6.10547">
        <ele>539.92</ele>
        <time>2016-06-18T14:33:20Z</time>
      </trkpt>
      <trkpt lat="43.66238" lon="6.10552">
        <ele>540.4</ele>
        <time>2016-06-18T14:33:24Z</time>
      </trkpt>
      <trkpt lat="43.66245" lon="6.10555">
        <ele>540.4</ele>
        <time>2016-06-18T14:33:30Z</time>
      </trkpt>
      <trkpt lat="43.66258" lon="6.1055">
        <ele>540.4</ele>
        <time>2016-06-18T14:33:36Z</time>
      </trkpt>
      <trkpt lat="43.66288" lon="6.10531">
        <ele>540.88</ele>
        <time>2016-06-18T14:33:47Z</time>
      </trkpt>
      <trkpt lat="43.6631" lon="6.10518">
        <ele>541.84</ele>
        <time>2016-06-18T14:33:58Z</time>
      </trkpt>
      <trkpt lat="43.6632" lon="6.10506">
        <ele>541.84</ele>
        <time>2016-06-18T14:34:10Z</time>
      </trkpt>
      <trkpt lat="43.66321" lon="6.10496">
        <ele>542.32</ele>
        <time>2016-06-18T14:34:15Z</time>
      </trkpt>
      <trkpt lat="43.66323" lon="6.10485">
        <ele>541.84</ele>
        <time>2016-06-18T14:34:20Z</time>
      </trkpt>
      <trkpt lat="43.66325" lon="6.10477">
        <ele>541.84</ele>
        <time>2016-06-18T14:34:23Z</time>
      </trkpt>
      <trkpt lat="43.66332" lon="6.10437">
        <ele>541.36</ele>
        <time>2016-06-18T14:34:36Z</time>
      </trkpt>
      <trkpt lat="43.66346" lon="6.10413">
        <ele>541.36</ele>
        <time>2016-06-18T14:34:50Z</time>
      </trkpt>
      <trkpt lat="43.66358" lon="6.10374">
        <ele>540.88</ele>
        <time>2016-06-18T14:35:06Z</time>
      </trkpt>
      <trkpt lat="43.66371" lon="6.10347">
        <ele>540.88</ele>
        <time>2016-06-18T14:35:19Z</time>
      </trkpt>
      <trkpt lat="43.66384" lon="6.10313">
        <ele>540.88</ele>
        <time>2016-06-18T14:35:34Z</time>
      </trkpt>
      <trkpt lat="43.66394" lon="6.10293">
        <ele>540.88</ele>
        <time>2016-06-18T14:35:46Z</time>
      </trkpt>
      <trkpt lat="43.66397" lon="6.10282">
        <ele>540.88</ele>
        <time>2016-06-18T14:35:52Z</time>
      </trkpt>
      <trkpt lat="43.66398" lon="6.1025">
        <ele>540.4</ele>
        <time>2016-06-18T14:36:07Z</time>
      </trkpt>
      <trkpt lat="43.66387" lon="6.10223">
        <ele>539.44</ele>
        <time>2016-06-18T14:36:20Z</time>
      </trkpt>
      <trkpt lat="43.6639" lon="6.10195">
        <ele>538.96</ele>
        <time>2016-06-18T14:36:32Z</time>
      </trkpt>
      <trkpt lat="43.66392" lon="6.10191">
        <ele>538.96</ele>
        <time>2016-06-18T14:36:34Z</time>
      </trkpt>
      <trkpt lat="43.66394" lon="6.10182">
        <ele>537.99</ele>
        <time>2016-06-18T14:36:38Z</time>
      </trkpt>
      <trkpt lat="43.66394" lon="6.10177">
        <ele>538.48</ele>
        <time>2016-06-18T14:36:40Z</time>
      </trkpt>
      <trkpt lat="43.66401" lon="6.10159">
        <ele>538.48</ele>
        <time>2016-06-18T14:36:47Z</time>
      </trkpt>
      <trkpt lat="43.66415" lon="6.10123">
        <ele>537.99</ele>
        <time>2016-06-18T14:36:59Z</time>
      </trkpt>
      <trkpt lat="43.66427" lon="6.10088">
        <ele>537.99</ele>
        <time>2016-06-18T14:37:12Z</time>
      </trkpt>
      <trkpt lat="43.66435" lon="6.10057">
        <ele>537.51</ele>
        <time>2016-06-18T14:37:25Z</time>
      </trkpt>
      <trkpt lat="43.66448" lon="6.10028">
        <ele>537.51</ele>
        <time>2016-06-18T14:37:40Z</time>
      </trkpt>
      <trkpt lat="43.66461" lon="6.10001">
        <ele>537.51</ele>
        <time>2016-06-18T14:37:55Z</time>
      </trkpt>
      <trkpt lat="43.66472" lon="6.09968">
        <ele>537.99</ele>
        <time>2016-06-18T14:38:09Z</time>
      </trkpt>
      <trkpt lat="43.66473" lon="6.09962">
        <ele>537.51</ele>
        <time>2016-06-18T14:38:12Z</time>
      </trkpt>
      <trkpt lat="43.66467" lon="6.09941">
        <ele>537.03</ele>
        <time>2016-06-18T14:38:29Z</time>
      </trkpt>
      <trkpt lat="43.66468" lon="6.09939">
        <ele>537.03</ele>
        <time>2016-06-18T14:38:31Z</time>
      </trkpt>
      <trkpt lat="43.66484" lon="6.09902">
        <ele>536.07</ele>
        <time>2016-06-18T14:38:43Z</time>
      </trkpt>
      <trkpt lat="43.66493" lon="6.09867">
        <ele>535.59</ele>
        <time>2016-06-18T14:38:57Z</time>
      </trkpt>
      <trkpt lat="43.66497" lon="6.09826">
        <ele>535.11</ele>
        <time>2016-06-18T14:39:10Z</time>
      </trkpt>
      <trkpt lat="43.66506" lon="6.098">
        <ele>535.11</ele>
        <time>2016-06-18T14:39:23Z</time>
      </trkpt>
      <trkpt lat="43.66516" lon="6.09769">
        <ele>534.63</ele>
        <time>2016-06-18T14:39:31Z</time>
      </trkpt>
      <trkpt lat="43.66517" lon="6.09761">
        <ele>534.63</ele>
        <time>2016-06-18T14:39:32Z</time>
      </trkpt>
      <trkpt lat="43.6652" lon="6.09738">
        <ele>534.63</ele>
        <time>2016-06-18T14:39:35Z</time>
      </trkpt>
      <trkpt lat="43.66522" lon="6.09731">
        <ele>534.15</ele>
        <time>2016-06-18T14:39:36Z</time>
      </trkpt>
      <trkpt lat="43.6654" lon="6.09683">
        <ele>534.15</ele>
        <time>2016-06-18T14:39:46Z</time>
      </trkpt>
      <trkpt lat="43.66566" lon="6.0964">
        <ele>533.19</ele>
        <time>2016-06-18T14:40:00Z</time>
      </trkpt>
      <trkpt lat="43.66572" lon="6.09621">
        <ele>533.19</ele>
        <time>2016-06-18T14:40:10Z</time>
      </trkpt>
      <trkpt lat="43.66573" lon="6.09619">
        <ele>533.19</ele>
        <time>2016-06-18T14:40:11Z</time>
      </trkpt>
      <trkpt lat="43.66575" lon="6.09616">
        <ele>533.19</ele>
        <time>2016-06-18T14:40:12Z</time>
      </trkpt>
      <trkpt lat="43.66576" lon="6.09613">
        <ele>533.67</ele>
        <time>2016-06-18T14:40:13Z</time>
      </trkpt>
      <trkpt lat="43.66578" lon="6.09609">
        <ele>533.67</ele>
        <time>2016-06-18T14:40:14Z</time>
      </trkpt>
      <trkpt lat="43.66586" lon="6.09589">
        <ele>533.67</ele>
        <time>2016-06-18T14:40:18Z</time>
      </trkpt>
      <trkpt lat="43.66589" lon="6.09583">
        <ele>533.19</ele>
        <time>2016-06-18T14:40:19Z</time>
      </trkpt>
      <trkpt lat="43.66592" lon="6.09577">
        <ele>533.19</ele>
        <time>2016-06-18T14:40:20Z</time>
      </trkpt>
      <trkpt lat="43.66595" lon="6.09571">
        <ele>533.67</ele>
        <time>2016-06-18T14:40:21Z</time>
      </trkpt>
      <trkpt lat="43.66598" lon="6.09564">
        <ele>533.19</ele>
        <time>2016-06-18T14:40:22Z</time>
      </trkpt>
      <trkpt lat="43.666" lon="6.09557">
        <ele>533.19</ele>
        <time>2016-06-18T14:40:23Z</time>
      </trkpt>
      <trkpt lat="43.6662" lon="6.09516">
        <ele>532.71</ele>
        <time>2016-06-18T14:40:29Z</time>
      </trkpt>
      <trkpt lat="43.66632" lon="6.09495">
        <ele>532.23</ele>
        <time>2016-06-18T14:40:33Z</time>
      </trkpt>
      <trkpt lat="43.66662" lon="6.09438">
        <ele>531.75</ele>
        <time>2016-06-18T14:40:46Z</time>
      </trkpt>
      <trkpt lat="43.6669" lon="6.09362">
        <ele>530.3</ele>
        <time>2016-06-18T14:40:59Z</time>
      </trkpt>
      <trkpt lat="43.66698" lon="6.09336">
        <ele>529.82</ele>
        <time>2016-06-18T14:41:05Z</time>
      </trkpt>
      <trkpt lat="43.66699" lon="6.09335">
        <ele>529.82</ele>
        <time>2016-06-18T14:41:06Z</time>
      </trkpt>
      <trkpt lat="43.667" lon="6.09333">
        <ele>529.82</ele>
        <time>2016-06-18T14:41:07Z</time>
      </trkpt>
      <trkpt lat="43.66703" lon="6.09328">
        <ele>529.82</ele>
        <time>2016-06-18T14:41:11Z</time>
      </trkpt>
      <trkpt lat="43.66706" lon="6.09318">
        <ele>529.34</ele>
        <time>2016-06-18T14:41:18Z</time>
      </trkpt>
      <trkpt lat="43.66706" lon="6.09316">
        <ele>529.34</ele>
        <time>2016-06-18T14:41:19Z</time>
      </trkpt>
      <trkpt lat="43.66717" lon="6.09293">
        <ele>528.86</ele>
        <time>2016-06-18T14:41:32Z</time>
      </trkpt>
      <trkpt lat="43.66728" lon="6.09263">
        <ele>528.38</ele>
        <time>2016-06-18T14:41:45Z</time>
      </trkpt>
      <trkpt lat="43.66732" lon="6.09255">
        <ele>527.9</ele>
        <time>2016-06-18T14:41:49Z</time>
      </trkpt>
      <trkpt lat="43.66734" lon="6.09246">
        <ele>527.9</ele>
        <time>2016-06-18T14:41:54Z</time>
      </trkpt>
      <trkpt lat="43.66735" lon="6.09243">
        <ele>527.9</ele>
        <time>2016-06-18T14:41:55Z</time>
      </trkpt>
      <trkpt lat="43.66736" lon="6.09241">
        <ele>527.42</ele>
        <time>2016-06-18T14:41:56Z</time>
      </trkpt>
      <trkpt lat="43.66737" lon="6.09239">
        <ele>527.9</ele>
        <time>2016-06-18T14:41:57Z</time>
      </trkpt>
      <trkpt lat="43.66738" lon="6.09236">
        <ele>527.9</ele>
        <time>2016-06-18T14:41:58Z</time>
      </trkpt>
      <trkpt lat="43.66739" lon="6.09233">
        <ele>527.9</ele>
        <time>2016-06-18T14:41:59Z</time>
      </trkpt>
      <trkpt lat="43.66739" lon="6.09229">
        <ele>527.9</ele>
        <time>2016-06-18T14:42:00Z</time>
      </trkpt>
      <trkpt lat="43.66741" lon="6.09226">
        <ele>527.42</ele>
        <time>2016-06-18T14:42:01Z</time>
      </trkpt>
      <trkpt lat="43.66741" lon="6.09224">
        <ele>527.42</ele>
        <time>2016-06-18T14:42:02Z</time>
      </trkpt>
      <trkpt lat="43.66751" lon="6.09196">
        <ele>526.46</ele>
        <time>2016-06-18T14:42:15Z</time>
      </trkpt>
      <trkpt lat="43.66761" lon="6.09166">
        <ele>525.98</ele>
        <time>2016-06-18T14:42:28Z</time>
      </trkpt>
      <trkpt lat="43.66769" lon="6.09144">
        <ele>525.5</ele>
        <time>2016-06-18T14:42:41Z</time>
      </trkpt>
      <trkpt lat="43.6677" lon="6.09142">
        <ele>525.5</ele>
        <time>2016-06-18T14:42:43Z</time>
      </trkpt>
      <trkpt lat="43.66771" lon="6.09139">
        <ele>525.5</ele>
        <time>2016-06-18T14:42:45Z</time>
      </trkpt>
      <trkpt lat="43.66774" lon="6.0913">
        <ele>525.02</ele>
        <time>2016-06-18T14:42:51Z</time>
      </trkpt>
      <trkpt lat="43.66775" lon="6.09128">
        <ele>525.02</ele>
        <time>2016-06-18T14:42:52Z</time>
      </trkpt>
      <trkpt lat="43.66786" lon="6.09098">
        <ele>524.06</ele>
        <time>2016-06-18T14:43:07Z</time>
      </trkpt>
      <trkpt lat="43.66794" lon="6.09068">
        <ele>523.58</ele>
        <time>2016-06-18T14:43:22Z</time>
      </trkpt>
      <trkpt lat="43.66798" lon="6.09037">
        <ele>522.61</ele>
        <time>2016-06-18T14:43:36Z</time>
      </trkpt>
      <trkpt lat="43.66822" lon="6.09021">
        <ele>522.61</ele>
        <time>2016-06-18T14:43:52Z</time>
      </trkpt>
      <trkpt lat="43.66846" lon="6.0901">
        <ele>522.61</ele>
        <time>2016-06-18T14:44:09Z</time>
      </trkpt>
      <trkpt lat="43.66871" lon="6.08998">
        <ele>522.13</ele>
        <time>2016-06-18T14:44:24Z</time>
      </trkpt>
      <trkpt lat="43.6689" lon="6.08979">
        <ele>522.13</ele>
        <time>2016-06-18T14:44:38Z</time>
      </trkpt>
      <trkpt lat="43.66892" lon="6.08977">
        <ele>521.65</ele>
        <time>2016-06-18T14:44:39Z</time>
      </trkpt>
      <trkpt lat="43.66893" lon="6.08975">
        <ele>521.65</ele>
        <time>2016-06-18T14:44:40Z</time>
      </trkpt>
      <trkpt lat="43.66897" lon="6.0897">
        <ele>521.65</ele>
        <time>2016-06-18T14:44:43Z</time>
      </trkpt>
      <trkpt lat="43.66898" lon="6.08968">
        <ele>521.65</ele>
        <time>2016-06-18T14:44:44Z</time>
      </trkpt>
      <trkpt lat="43.66915" lon="6.08945">
        <ele>520.69</ele>
        <time>2016-06-18T14:44:57Z</time>
      </trkpt>
      <trkpt lat="43.66935" lon="6.08947">
        <ele>520.69</ele>
        <time>2016-06-18T14:45:12Z</time>
      </trkpt>
      <trkpt lat="43.66941" lon="6.0895">
        <ele>520.69</ele>
        <time>2016-06-18T14:45:15Z</time>
      </trkpt>
      <trkpt lat="43.66942" lon="6.08951">
        <ele>521.65</ele>
        <time>2016-06-18T14:45:16Z</time>
      </trkpt>
      <trkpt lat="43.66961" lon="6.08966">
        <ele>521.65</ele>
        <time>2016-06-18T14:45:30Z</time>
      </trkpt>
      <trkpt lat="43.66978" lon="6.08989">
        <ele>522.61</ele>
        <time>2016-06-18T14:45:39Z</time>
      </trkpt>
      <trkpt lat="43.67005" lon="6.09028">
        <ele>525.98</ele>
        <time>2016-06-18T14:45:49Z</time>
      </trkpt>
      <trkpt lat="43.67012" lon="6.09043">
        <ele>527.42</ele>
        <time>2016-06-18T14:45:52Z</time>
      </trkpt>
      <trkpt lat="43.67012" lon="6.09049">
        <ele>527.9</ele>
        <time>2016-06-18T14:45:53Z</time>
      </trkpt>
      <trkpt lat="43.67013" lon="6.09055">
        <ele>528.38</ele>
        <time>2016-06-18T14:45:54Z</time>
      </trkpt>
      <trkpt lat="43.67013" lon="6.09079">
        <ele>529.34</ele>
        <time>2016-06-18T14:45:58Z</time>
      </trkpt>
      <trkpt lat="43.67011" lon="6.09086">
        <ele>529.82</ele>
        <time>2016-06-18T14:45:59Z</time>
      </trkpt>
      <trkpt lat="43.67009" lon="6.09102">
        <ele>529.82</ele>
        <time>2016-06-18T14:46:01Z</time>
      </trkpt>
      <trkpt lat="43.67009" lon="6.0911">
        <ele>530.3</ele>
        <time>2016-06-18T14:46:02Z</time>
      </trkpt>
      <trkpt lat="43.6701" lon="6.09118">
        <ele>530.3</ele>
        <time>2016-06-18T14:46:03Z</time>
      </trkpt>
      <trkpt lat="43.67012" lon="6.09126">
        <ele>530.3</ele>
        <time>2016-06-18T14:46:04Z</time>
      </trkpt>
      <trkpt lat="43.67014" lon="6.09134">
        <ele>530.79</ele>
        <time>2016-06-18T14:46:05Z</time>
      </trkpt>
      <trkpt lat="43.67017" lon="6.0914">
        <ele>531.27</ele>
        <time>2016-06-18T14:46:06Z</time>
      </trkpt>
      <trkpt lat="43.6702" lon="6.09145">
        <ele>531.27</ele>
        <time>2016-06-18T14:46:07Z</time>
      </trkpt>
      <trkpt lat="43.67024" lon="6.09148">
        <ele>531.75</ele>
        <time>2016-06-18T14:46:08Z</time>
      </trkpt>
      <trkpt lat="43.67027" lon="6.09149">
        <ele>532.23</ele>
        <time>2016-06-18T14:46:09Z</time>
      </trkpt>
      <trkpt lat="43.67031" lon="6.09152">
        <ele>533.19</ele>
        <time>2016-06-18T14:46:10Z</time>
      </trkpt>
      <trkpt lat="43.67034" lon="6.09153">
        <ele>533.19</ele>
        <time>2016-06-18T14:46:11Z</time>
      </trkpt>
      <trkpt lat="43.6704" lon="6.09153">
        <ele>534.15</ele>
        <time>2016-06-18T14:46:13Z</time>
      </trkpt>
      <trkpt lat="43.67041" lon="6.09152">
        <ele>534.15</ele>
        <time>2016-06-18T14:46:14Z</time>
      </trkpt>
      <trkpt lat="43.67043" lon="6.09151">
        <ele>534.63</ele>
        <time>2016-06-18T14:46:15Z</time>
      </trkpt>
      <trkpt lat="43.67045" lon="6.09148">
        <ele>535.11</ele>
        <time>2016-06-18T14:46:17Z</time>
      </trkpt>
      <trkpt lat="43.67046" lon="6.09146">
        <ele>535.11</ele>
        <time>2016-06-18T14:46:18Z</time>
      </trkpt>
      <trkpt lat="43.67047" lon="6.09145">
        <ele>535.11</ele>
        <time>2016-06-18T14:46:19Z</time>
      </trkpt>
      <trkpt lat="43.67058" lon="6.09127">
        <ele>535.59</ele>
        <time>2016-06-18T14:46:32Z</time>
      </trkpt>
      <trkpt lat="43.6709" lon="6.09097">
        <ele>537.03</ele>
        <time>2016-06-18T14:46:48Z</time>
      </trkpt>
      <trkpt lat="43.67117" lon="6.0909">
        <ele>537.51</ele>
        <time>2016-06-18T14:47:00Z</time>
      </trkpt>
      <trkpt lat="43.67158" lon="6.09089">
        <ele>540.4</ele>
        <time>2016-06-18T14:47:12Z</time>
      </trkpt>
      <trkpt lat="43.67168" lon="6.09089">
        <ele>541.84</ele>
        <time>2016-06-18T14:47:14Z</time>
      </trkpt>
      <trkpt lat="43.67186" lon="6.09089">
        <ele>542.8</ele>
        <time>2016-06-18T14:47:17Z</time>
      </trkpt>
      <trkpt lat="43.67198" lon="6.09087">
        <ele>542.8</ele>
        <time>2016-06-18T14:47:19Z</time>
      </trkpt>
      <trkpt lat="43.67205" lon="6.09086">
        <ele>542.8</ele>
        <time>2016-06-18T14:47:20Z</time>
      </trkpt>
      <trkpt lat="43.67216" lon="6.09084">
        <ele>543.28</ele>
        <time>2016-06-18T14:47:22Z</time>
      </trkpt>
      <trkpt lat="43.67221" lon="6.09084">
        <ele>542.8</ele>
        <time>2016-06-18T14:47:23Z</time>
      </trkpt>
      <trkpt lat="43.67226" lon="6.09084">
        <ele>542.8</ele>
        <time>2016-06-18T14:47:24Z</time>
      </trkpt>
      <trkpt lat="43.67231" lon="6.09084">
        <ele>543.28</ele>
        <time>2016-06-18T14:47:25Z</time>
      </trkpt>
      <trkpt lat="43.67236" lon="6.09083">
        <ele>543.28</ele>
        <time>2016-06-18T14:47:26Z</time>
      </trkpt>
      <trkpt lat="43.6724" lon="6.09082">
        <ele>543.28</ele>
        <time>2016-06-18T14:47:27Z</time>
      </trkpt>
      <trkpt lat="43.67245" lon="6.0908">
        <ele>542.8</ele>
        <time>2016-06-18T14:47:28Z</time>
      </trkpt>
      <trkpt lat="43.67249" lon="6.09077">
        <ele>542.8</ele>
        <time>2016-06-18T14:47:29Z</time>
      </trkpt>
      <trkpt lat="43.6726" lon="6.09072">
        <ele>542.8</ele>
        <time>2016-06-18T14:47:31Z</time>
      </trkpt>
      <trkpt lat="43.67265" lon="6.0907">
        <ele>542.8</ele>
        <time>2016-06-18T14:47:32Z</time>
      </trkpt>
      <trkpt lat="43.67291" lon="6.09053">
        <ele>541.84</ele>
        <time>2016-06-18T14:47:37Z</time>
      </trkpt>
      <trkpt lat="43.67295" lon="6.09049">
        <ele>541.84</ele>
        <time>2016-06-18T14:47:38Z</time>
      </trkpt>
      <trkpt lat="43.673" lon="6.09044">
        <ele>541.84</ele>
        <time>2016-06-18T14:47:39Z</time>
      </trkpt>
      <trkpt lat="43.67304" lon="6.09039">
        <ele>541.84</ele>
        <time>2016-06-18T14:47:40Z</time>
      </trkpt>
      <trkpt lat="43.67308" lon="6.09035">
        <ele>541.36</ele>
        <time>2016-06-18T14:47:41Z</time>
      </trkpt>
      <trkpt lat="43.67327" lon="6.09018">
        <ele>541.36</ele>
        <time>2016-06-18T14:47:50Z</time>
      </trkpt>
      <trkpt lat="43.67337" lon="6.08985">
        <ele>541.36</ele>
        <time>2016-06-18T14:48:06Z</time>
      </trkpt>
      <trkpt lat="43.67338" lon="6.08982">
        <ele>541.36</ele>
        <time>2016-06-18T14:48:08Z</time>
      </trkpt>
      <trkpt lat="43.67339" lon="6.0898">
        <ele>541.36</ele>
        <time>2016-06-18T14:48:09Z</time>
      </trkpt>
      <trkpt lat="43.67347" lon="6.08965">
        <ele>542.32</ele>
        <time>2016-06-18T14:48:24Z</time>
      </trkpt>
      <trkpt lat="43.6735" lon="6.0896">
        <ele>541.84</ele>
        <time>2016-06-18T14:48:40Z</time>
      </trkpt>
      <trkpt lat="43.67351" lon="6.08965">
        <ele>542.32</ele>
        <time>2016-06-18T14:48:53Z</time>
      </trkpt>
      <trkpt lat="43.67352" lon="6.08964">
        <ele>542.32</ele>
        <time>2016-06-18T14:48:54Z</time>
      </trkpt>
      <trkpt lat="43.67352" lon="6.08962">
        <ele>541.84</ele>
        <time>2016-06-18T14:49:08Z</time>
      </trkpt>
      <trkpt lat="43.67352" lon="6.08962">
        <ele>541.84</ele>
        <time>2016-06-18T14:49:33Z</time>
      </trkpt>
      <trkpt lat="43.67352" lon="6.08961">
        <ele>541.84</ele>
        <time>2016-06-18T14:50:02Z</time>
      </trkpt>
      <trkpt lat="43.67353" lon="6.0896">
        <ele>541.84</ele>
        <time>2016-06-18T14:50:24Z</time>
      </trkpt>
      <trkpt lat="43.67353" lon="6.08963">
        <ele>542.32</ele>
        <time>2016-06-18T14:50:41Z</time>
      </trkpt>
      <trkpt lat="43.67347" lon="6.08966">
        <ele>542.32</ele>
        <time>2016-06-18T14:50:52Z</time>
      </trkpt>
      <trkpt lat="43.67344" lon="6.08968">
        <ele>541.84</ele>
        <time>2016-06-18T14:51:04Z</time>
      </trkpt>
      <trkpt lat="43.67343" lon="6.08968">
        <ele>542.8</ele>
        <time>2016-06-18T14:51:17Z</time>
      </trkpt>
      <trkpt lat="43.67343" lon="6.08968">
        <ele>541.84</ele>
        <time>2016-06-18T14:51:38Z</time>
      </trkpt>
      <trkpt lat="43.67342" lon="6.08968">
        <ele>542.32</ele>
        <time>2016-06-18T14:52:04Z</time>
      </trkpt>
      <trkpt lat="43.67342" lon="6.08968">
        <ele>542.32</ele>
        <time>2016-06-18T14:52:24Z</time>
      </trkpt>
      <trkpt lat="43.67339" lon="6.08977">
        <ele>541.84</ele>
        <time>2016-06-18T14:52:39Z</time>
      </trkpt>
      <trkpt lat="43.67338" lon="6.08977">
        <ele>541.84</ele>
        <time>2016-06-18T14:53:02Z</time>
      </trkpt>
      <trkpt lat="43.67338" lon="6.08977">
        <ele>541.84</ele>
        <time>2016-06-18T14:53:22Z</time>
      </trkpt>
      <trkpt lat="43.67338" lon="6.08977">
        <ele>541.84</ele>
        <time>2016-06-18T14:53:30Z</time>
      </trkpt>
      <trkpt lat="43.67339" lon="6.08976">
        <ele>541.84</ele>
        <time>2016-06-18T14:53:31Z</time>
      </trkpt>
      <trkpt lat="43.6734" lon="6.08974">
        <ele>541.84</ele>
        <time>2016-06-18T14:53:32Z</time>
      </trkpt>
      <trkpt lat="43.67341" lon="6.08973">
        <ele>541.84</ele>
        <time>2016-06-18T14:53:33Z</time>
      </trkpt>
      <trkpt lat="43.67342" lon="6.08972">
        <ele>542.32</ele>
        <time>2016-06-18T14:53:34Z</time>
      </trkpt>
      <trkpt lat="43.67368" lon="6.08974">
        <ele>543.28</ele>
        <time>2016-06-18T14:53:50Z</time>
      </trkpt>
      <trkpt lat="43.67377" lon="6.08984">
        <ele>543.28</ele>
        <time>2016-06-18T14:54:00Z</time>
      </trkpt>
      <trkpt lat="43.67377" lon="6.08986">
        <ele>543.28</ele>
        <time>2016-06-18T14:54:01Z</time>
      </trkpt>
      <trkpt lat="43.67378" lon="6.08987">
        <ele>543.76</ele>
        <time>2016-06-18T14:54:02Z</time>
      </trkpt>
      <trkpt lat="43.67395" lon="6.09002">
        <ele>542.8</ele>
        <time>2016-06-18T14:54:18Z</time>
      </trkpt>
      <trkpt lat="43.67396" lon="6.09002">
        <ele>542.8</ele>
        <time>2016-06-18T14:54:19Z</time>
      </trkpt>
      <trkpt lat="43.67398" lon="6.09002">
        <ele>542.8</ele>
        <time>2016-06-18T14:54:20Z</time>
      </trkpt>
      <trkpt lat="43.67399" lon="6.09001">
        <ele>542.8</ele>
        <time>2016-06-18T14:54:21Z</time>
      </trkpt>
      <trkpt lat="43.67421" lon="6.08991">
        <ele>542.32</ele>
        <time>2016-06-18T14:54:39Z</time>
      </trkpt>
      <trkpt lat="43.67422" lon="6.08995">
        <ele>542.32</ele>
        <time>2016-06-18T14:54:45Z</time>
      </trkpt>
      <trkpt lat="43.67431" lon="6.09014">
        <ele>541.84</ele>
        <time>2016-06-18T14:55:00Z</time>
      </trkpt>
      <trkpt lat="43.67449" lon="6.09025">
        <ele>541.36</ele>
        <time>2016-06-18T14:55:12Z</time>
      </trkpt>
      <trkpt lat="43.67451" lon="6.09024">
        <ele>541.36</ele>
        <time>2016-06-18T14:55:13Z</time>
      </trkpt>
      <trkpt lat="43.67475" lon="6.09031">
        <ele>540.88</ele>
        <time>2016-06-18T14:55:29Z</time>
      </trkpt>
      <trkpt lat="43.67498" lon="6.09038">
        <ele>540.88</ele>
        <time>2016-06-18T14:55:45Z</time>
      </trkpt>
      <trkpt lat="43.675" lon="6.09038">
        <ele>540.88</ele>
        <time>2016-06-18T14:55:46Z</time>
      </trkpt>
      <trkpt lat="43.67508" lon="6.09043">
        <ele>540.4</ele>
        <time>2016-06-18T14:55:53Z</time>
      </trkpt>
      <trkpt lat="43.67521" lon="6.09054">
        <ele>541.36</ele>
        <time>2016-06-18T14:56:01Z</time>
      </trkpt>
      <trkpt lat="43.67533" lon="6.09085">
        <ele>540.88</ele>
        <time>2016-06-18T14:56:16Z</time>
      </trkpt>
      <trkpt lat="43.67539" lon="6.09106">
        <ele>539.92</ele>
        <time>2016-06-18T14:56:25Z</time>
      </trkpt>
      <trkpt lat="43.67557" lon="6.09132">
        <ele>537.51</ele>
        <time>2016-06-18T14:56:40Z</time>
      </trkpt>
      <trkpt lat="43.67577" lon="6.09147">
        <ele>535.11</ele>
        <time>2016-06-18T14:56:55Z</time>
      </trkpt>
      <trkpt lat="43.67595" lon="6.09156">
        <ele>532.23</ele>
        <time>2016-06-18T14:57:09Z</time>
      </trkpt>
      <trkpt lat="43.67604" lon="6.09159">
        <ele>531.27</ele>
        <time>2016-06-18T14:57:13Z</time>
      </trkpt>
      <trkpt lat="43.67629" lon="6.09167">
        <ele>529.34</ele>
        <time>2016-06-18T14:57:30Z</time>
      </trkpt>
      <trkpt lat="43.67631" lon="6.09167">
        <ele>529.34</ele>
        <time>2016-06-18T14:57:31Z</time>
      </trkpt>
      <trkpt lat="43.67661" lon="6.09179">
        <ele>527.9</ele>
        <time>2016-06-18T14:57:47Z</time>
      </trkpt>
      <trkpt lat="43.67667" lon="6.09182">
        <ele>527.9</ele>
        <time>2016-06-18T14:57:52Z</time>
      </trkpt>
      <trkpt lat="43.67677" lon="6.09186">
        <ele>527.42</ele>
        <time>2016-06-18T14:58:00Z</time>
      </trkpt>
      <trkpt lat="43.67706" lon="6.09197">
        <ele>527.42</ele>
        <time>2016-06-18T14:58:16Z</time>
      </trkpt>
      <trkpt lat="43.67727" lon="6.09214">
        <ele>527.9</ele>
        <time>2016-06-18T14:58:31Z</time>
      </trkpt>
      <trkpt lat="43.67749" lon="6.09226">
        <ele>528.86</ele>
        <time>2016-06-18T14:58:49Z</time>
      </trkpt>
      <trkpt lat="43.67755" lon="6.09226">
        <ele>528.86</ele>
        <time>2016-06-18T14:58:54Z</time>
      </trkpt>
      <trkpt lat="43.67787" lon="6.09218">
        <ele>529.82</ele>
        <time>2016-06-18T14:59:10Z</time>
      </trkpt>
      <trkpt lat="43.67814" lon="6.09212">
        <ele>529.82</ele>
        <time>2016-06-18T14:59:27Z</time>
      </trkpt>
      <trkpt lat="43.67842" lon="6.09205">
        <ele>530.79</ele>
        <time>2016-06-18T14:59:44Z</time>
      </trkpt>
      <trkpt lat="43.6787" lon="6.09196">
        <ele>532.23</ele>
        <time>2016-06-18T15:00:02Z</time>
      </trkpt>
      <trkpt lat="43.67885" lon="6.09196">
        <ele>533.19</ele>
        <time>2016-06-18T15:00:13Z</time>
      </trkpt>
      <trkpt lat="43.6789" lon="6.09195">
        <ele>533.67</ele>
        <time>2016-06-18T15:00:16Z</time>
      </trkpt>
      <trkpt lat="43.67907" lon="6.09189">
        <ele>534.15</ele>
        <time>2016-06-18T15:00:28Z</time>
      </trkpt>
      <trkpt lat="43.67912" lon="6.09188">
        <ele>534.15</ele>
        <time>2016-06-18T15:00:31Z</time>
      </trkpt>
      <trkpt lat="43.67926" lon="6.09186">
        <ele>535.59</ele>
        <time>2016-06-18T15:00:40Z</time>
      </trkpt>
      <trkpt lat="43.67946" lon="6.09196">
        <ele>538.96</ele>
        <time>2016-06-18T15:00:52Z</time>
      </trkpt>
      <trkpt lat="43.67957" lon="6.09205">
        <ele>539.92</ele>
        <time>2016-06-18T15:01:00Z</time>
      </trkpt>
      <trkpt lat="43.67964" lon="6.09215">
        <ele>541.36</ele>
        <time>2016-06-18T15:01:07Z</time>
      </trkpt>
      <trkpt lat="43.67986" lon="6.09227">
        <ele>543.76</ele>
        <time>2016-06-18T15:01:22Z</time>
      </trkpt>
      <trkpt lat="43.67996" lon="6.09221">
        <ele>544.72</ele>
        <time>2016-06-18T15:01:29Z</time>
      </trkpt>
      <trkpt lat="43.68002" lon="6.0922">
        <ele>545.2</ele>
        <time>2016-06-18T15:01:33Z</time>
      </trkpt>
      <trkpt lat="43.68032" lon="6.09199">
        <ele>546.65</ele>
        <time>2016-06-18T15:01:48Z</time>
      </trkpt>
      <trkpt lat="43.68071" lon="6.09197">
        <ele>549.53</ele>
        <time>2016-06-18T15:02:01Z</time>
      </trkpt>
      <trkpt lat="43.68093" lon="6.09203">
        <ele>552.9</ele>
        <time>2016-06-18T15:02:10Z</time>
      </trkpt>
      <trkpt lat="43.68131" lon="6.09201">
        <ele>555.78</ele>
        <time>2016-06-18T15:02:24Z</time>
      </trkpt>
      <trkpt lat="43.6818" lon="6.09198">
        <ele>553.86</ele>
        <time>2016-06-18T15:02:39Z</time>
      </trkpt>
      <trkpt lat="43.68205" lon="6.09207">
        <ele>551.93</ele>
        <time>2016-06-18T15:02:52Z</time>
      </trkpt>
      <trkpt lat="43.6822" lon="6.09206">
        <ele>551.45</ele>
        <time>2016-06-18T15:03:03Z</time>
      </trkpt>
      <trkpt lat="43.68252" lon="6.09209">
        <ele>550.01</ele>
        <time>2016-06-18T15:03:21Z</time>
      </trkpt>
      <trkpt lat="43.68273" lon="6.0921">
        <ele>549.53</ele>
        <time>2016-06-18T15:03:36Z</time>
      </trkpt>
      <trkpt lat="43.68292" lon="6.09201">
        <ele>549.05</ele>
        <time>2016-06-18T15:03:49Z</time>
      </trkpt>
      <trkpt lat="43.68318" lon="6.0919">
        <ele>548.57</ele>
        <time>2016-06-18T15:04:03Z</time>
      </trkpt>
      <trkpt lat="43.68325" lon="6.09193">
        <ele>548.57</ele>
        <time>2016-06-18T15:04:17Z</time>
      </trkpt>
      <trkpt lat="43.68326" lon="6.09192">
        <ele>548.57</ele>
        <time>2016-06-18T15:04:18Z</time>
      </trkpt>
      <trkpt lat="43.68331" lon="6.09191">
        <ele>548.57</ele>
        <time>2016-06-18T15:04:33Z</time>
      </trkpt>
      <trkpt lat="43.68333" lon="6.09191">
        <ele>548.57</ele>
        <time>2016-06-18T15:04:50Z</time>
      </trkpt>
      <trkpt lat="43.68332" lon="6.09191">
        <ele>548.09</ele>
        <time>2016-06-18T15:05:09Z</time>
      </trkpt>
      <trkpt lat="43.68332" lon="6.0919">
        <ele>548.57</ele>
        <time>2016-06-18T15:05:28Z</time>
      </trkpt>
      <trkpt lat="43.68335" lon="6.09196">
        <ele>548.09</ele>
        <time>2016-06-18T15:05:40Z</time>
      </trkpt>
      <trkpt lat="43.68342" lon="6.0921">
        <ele>548.09</ele>
        <time>2016-06-18T15:05:49Z</time>
      </trkpt>
      <trkpt lat="43.68346" lon="6.09215">
        <ele>548.57</ele>
        <time>2016-06-18T15:05:53Z</time>
      </trkpt>
      <trkpt lat="43.68364" lon="6.09232">
        <ele>548.09</ele>
        <time>2016-06-18T15:06:09Z</time>
      </trkpt>
      <trkpt lat="43.68379" lon="6.09244">
        <ele>548.57</ele>
        <time>2016-06-18T15:06:24Z</time>
      </trkpt>
      <trkpt lat="43.68403" lon="6.0925">
        <ele>549.53</ele>
        <time>2016-06-18T15:06:40Z</time>
      </trkpt>
      <trkpt lat="43.68405" lon="6.09249">
        <ele>549.05</ele>
        <time>2016-06-18T15:06:41Z</time>
      </trkpt>
      <trkpt lat="43.68427" lon="6.09244">
        <ele>549.53</ele>
        <time>2016-06-18T15:06:55Z</time>
      </trkpt>
      <trkpt lat="43.68457" lon="6.09237">
        <ele>549.53</ele>
        <time>2016-06-18T15:07:05Z</time>
      </trkpt>
      <trkpt lat="43.68489" lon="6.09225">
        <ele>550.97</ele>
        <time>2016-06-18T15:07:18Z</time>
      </trkpt>
      <trkpt lat="43.68526" lon="6.09221">
        <ele>550.97</ele>
        <time>2016-06-18T15:07:30Z</time>
      </trkpt>
      <trkpt lat="43.68564" lon="6.09217">
        <ele>550.97</ele>
        <time>2016-06-18T15:07:41Z</time>
      </trkpt>
      <trkpt lat="43.68612" lon="6.09224">
        <ele>551.45</ele>
        <time>2016-06-18T15:07:52Z</time>
      </trkpt>
      <trkpt lat="43.68686" lon="6.09234">
        <ele>553.38</ele>
        <time>2016-06-18T15:08:06Z</time>
      </trkpt>
      <trkpt lat="43.68702" lon="6.09237">
        <ele>554.34</ele>
        <time>2016-06-18T15:08:09Z</time>
      </trkpt>
      <trkpt lat="43.68718" lon="6.09236">
        <ele>554.34</ele>
        <time>2016-06-18T15:08:12Z</time>
      </trkpt>
      <trkpt lat="43.68725" lon="6.09234">
        <ele>554.82</ele>
        <time>2016-06-18T15:08:13Z</time>
      </trkpt>
      <trkpt lat="43.68777" lon="6.09225">
        <ele>555.3</ele>
        <time>2016-06-18T15:08:21Z</time>
      </trkpt>
      <trkpt lat="43.68782" lon="6.09226">
        <ele>554.82</ele>
        <time>2016-06-18T15:08:22Z</time>
      </trkpt>
      <trkpt lat="43.68788" lon="6.09227">
        <ele>555.3</ele>
        <time>2016-06-18T15:08:23Z</time>
      </trkpt>
      <trkpt lat="43.6883" lon="6.09242">
        <ele>554.82</ele>
        <time>2016-06-18T15:08:31Z</time>
      </trkpt>
      <trkpt lat="43.68836" lon="6.09244">
        <ele>554.82</ele>
        <time>2016-06-18T15:08:32Z</time>
      </trkpt>
      <trkpt lat="43.68841" lon="6.09246">
        <ele>554.34</ele>
        <time>2016-06-18T15:08:33Z</time>
      </trkpt>
      <trkpt lat="43.68847" lon="6.09248">
        <ele>554.34</ele>
        <time>2016-06-18T15:08:34Z</time>
      </trkpt>
      <trkpt lat="43.68852" lon="6.09249">
        <ele>554.34</ele>
        <time>2016-06-18T15:08:35Z</time>
      </trkpt>
      <trkpt lat="43.68857" lon="6.09251">
        <ele>554.82</ele>
        <time>2016-06-18T15:08:36Z</time>
      </trkpt>
      <trkpt lat="43.68873" lon="6.09256">
        <ele>554.34</ele>
        <time>2016-06-18T15:08:39Z</time>
      </trkpt>
      <trkpt lat="43.68923" lon="6.09265">
        <ele>554.34</ele>
        <time>2016-06-18T15:08:48Z</time>
      </trkpt>
      <trkpt lat="43.68927" lon="6.09266">
        <ele>553.86</ele>
        <time>2016-06-18T15:08:49Z</time>
      </trkpt>
      <trkpt lat="43.6894" lon="6.09272">
        <ele>553.38</ele>
        <time>2016-06-18T15:08:52Z</time>
      </trkpt>
      <trkpt lat="43.68944" lon="6.09274">
        <ele>553.38</ele>
        <time>2016-06-18T15:08:53Z</time>
      </trkpt>
      <trkpt lat="43.68948" lon="6.09278">
        <ele>553.38</ele>
        <time>2016-06-18T15:08:54Z</time>
      </trkpt>
      <trkpt lat="43.68952" lon="6.09281">
        <ele>552.9</ele>
        <time>2016-06-18T15:08:55Z</time>
      </trkpt>
      <trkpt lat="43.68956" lon="6.09285">
        <ele>552.9</ele>
        <time>2016-06-18T15:08:56Z</time>
      </trkpt>
      <trkpt lat="43.69011" lon="6.09344">
        <ele>550.97</ele>
        <time>2016-06-18T15:09:07Z</time>
      </trkpt>
      <trkpt lat="43.69042" lon="6.09382">
        <ele>549.53</ele>
        <time>2016-06-18T15:09:17Z</time>
      </trkpt>
      <trkpt lat="43.69054" lon="6.09406">
        <ele>549.53</ele>
        <time>2016-06-18T15:09:28Z</time>
      </trkpt>
      <trkpt lat="43.69061" lon="6.09416">
        <ele>549.53</ele>
        <time>2016-06-18T15:09:35Z</time>
      </trkpt>
      <trkpt lat="43.69064" lon="6.09419">
        <ele>549.53</ele>
        <time>2016-06-18T15:09:38Z</time>
      </trkpt>
      <trkpt lat="43.69078" lon="6.09432">
        <ele>549.53</ele>
        <time>2016-06-18T15:09:53Z</time>
      </trkpt>
      <trkpt lat="43.69099" lon="6.09449">
        <ele>550.01</ele>
        <time>2016-06-18T15:10:07Z</time>
      </trkpt>
      <trkpt lat="43.69115" lon="6.09467">
        <ele>550.97</ele>
        <time>2016-06-18T15:10:23Z</time>
      </trkpt>
      <trkpt lat="43.6914" lon="6.09493">
        <ele>550.49</ele>
        <time>2016-06-18T15:10:37Z</time>
      </trkpt>
      <trkpt lat="43.69158" lon="6.09514">
        <ele>550.01</ele>
        <time>2016-06-18T15:10:52Z</time>
      </trkpt>
      <trkpt lat="43.69178" lon="6.09533">
        <ele>547.61</ele>
        <time>2016-06-18T15:11:08Z</time>
      </trkpt>
      <trkpt lat="43.6918" lon="6.09535">
        <ele>547.13</ele>
        <time>2016-06-18T15:11:10Z</time>
      </trkpt>
      <trkpt lat="43.69181" lon="6.09537">
        <ele>546.65</ele>
        <time>2016-06-18T15:11:11Z</time>
      </trkpt>
      <trkpt lat="43.69187" lon="6.09547">
        <ele>545.69</ele>
        <time>2016-06-18T15:11:25Z</time>
      </trkpt>
      <trkpt lat="43.69188" lon="6.09547">
        <ele>545.69</ele>
        <time>2016-06-18T15:11:48Z</time>
      </trkpt>
      <trkpt lat="43.69188" lon="6.09547">
        <ele>545.2</ele>
        <time>2016-06-18T15:12:18Z</time>
      </trkpt>
      <trkpt lat="43.69188" lon="6.09546">
        <ele>545.69</ele>
        <time>2016-06-18T15:12:39Z</time>
      </trkpt>
      <trkpt lat="43.69188" lon="6.09546">
        <ele>545.69</ele>
        <time>2016-06-18T15:13:06Z</time>
      </trkpt>
      <trkpt lat="43.69187" lon="6.09545">
        <ele>546.65</ele>
        <time>2016-06-18T15:13:23Z</time>
      </trkpt>
      <trkpt lat="43.69189" lon="6.09542">
        <ele>547.13</ele>
        <time>2016-06-18T15:13:45Z</time>
      </trkpt>
      <trkpt lat="43.69187" lon="6.09536">
        <ele>547.61</ele>
        <time>2016-06-18T15:13:59Z</time>
      </trkpt>
      <trkpt lat="43.69184" lon="6.09535">
        <ele>548.09</ele>
        <time>2016-06-18T15:14:26Z</time>
      </trkpt>
      <trkpt lat="43.69182" lon="6.09535">
        <ele>548.57</ele>
        <time>2016-06-18T15:14:37Z</time>
      </trkpt>
      <trkpt lat="43.69186" lon="6.09541">
        <ele>547.61</ele>
        <time>2016-06-18T15:14:44Z</time>
      </trkpt>
      <trkpt lat="43.69193" lon="6.09553">
        <ele>545.2</ele>
        <time>2016-06-18T15:14:53Z</time>
      </trkpt>
      <trkpt lat="43.69211" lon="6.09552">
        <ele>542.8</ele>
        <time>2016-06-18T15:15:05Z</time>
      </trkpt>
      <trkpt lat="43.69234" lon="6.09538">
        <ele>539.92</ele>
        <time>2016-06-18T15:15:24Z</time>
      </trkpt>
      <trkpt lat="43.69252" lon="6.09531">
        <ele>537.03</ele>
        <time>2016-06-18T15:15:39Z</time>
      </trkpt>
      <trkpt lat="43.69276" lon="6.09523">
        <ele>534.15</ele>
        <time>2016-06-18T15:15:54Z</time>
      </trkpt>
      <trkpt lat="43.69306" lon="6.09518">
        <ele>533.19</ele>
        <time>2016-06-18T15:16:13Z</time>
      </trkpt>
      <trkpt lat="43.69317" lon="6.09534">
        <ele>530.3</ele>
        <time>2016-06-18T15:16:26Z</time>
      </trkpt>
      <trkpt lat="43.69318" lon="6.09536">
        <ele>529.34</ele>
        <time>2016-06-18T15:16:28Z</time>
      </trkpt>
      <trkpt lat="43.69328" lon="6.09557">
        <ele>526.46</ele>
        <time>2016-06-18T15:16:43Z</time>
      </trkpt>
      <trkpt lat="43.6934" lon="6.09584">
        <ele>524.06</ele>
        <time>2016-06-18T15:16:57Z</time>
      </trkpt>
      <trkpt lat="43.69357" lon="6.09613">
        <ele>521.17</ele>
        <time>2016-06-18T15:17:14Z</time>
      </trkpt>
      <trkpt lat="43.69374" lon="6.09627">
        <ele>518.29</ele>
        <time>2016-06-18T15:17:32Z</time>
      </trkpt>
      <trkpt lat="43.69397" lon="6.09625">
        <ele>514.92</ele>
        <time>2016-06-18T15:17:47Z</time>
      </trkpt>
      <trkpt lat="43.69417" lon="6.09623">
        <ele>512.04</ele>
        <time>2016-06-18T15:18:00Z</time>
      </trkpt>
      <trkpt lat="43.69432" lon="6.09617">
        <ele>509.16</ele>
        <time>2016-06-18T15:18:10Z</time>
      </trkpt>
      <trkpt lat="43.69446" lon="6.09609">
        <ele>505.79</ele>
        <time>2016-06-18T15:18:23Z</time>
      </trkpt>
      <trkpt lat="43.69452" lon="6.09608">
        <ele>505.31</ele>
        <time>2016-06-18T15:18:27Z</time>
      </trkpt>
      <trkpt lat="43.69469" lon="6.09603">
        <ele>501.95</ele>
        <time>2016-06-18T15:18:41Z</time>
      </trkpt>
      <trkpt lat="43.6948" lon="6.09604">
        <ele>498.58</ele>
        <time>2016-06-18T15:18:53Z</time>
      </trkpt>
      <trkpt lat="43.6949" lon="6.09605">
        <ele>497.14</ele>
        <time>2016-06-18T15:18:58Z</time>
      </trkpt>
      <trkpt lat="43.69495" lon="6.09604">
        <ele>496.18</ele>
        <time>2016-06-18T15:19:01Z</time>
      </trkpt>
      <trkpt lat="43.69519" lon="6.09609">
        <ele>493.29</ele>
        <time>2016-06-18T15:19:16Z</time>
      </trkpt>
      <trkpt lat="43.69526" lon="6.09613">
        <ele>492.81</ele>
        <time>2016-06-18T15:19:21Z</time>
      </trkpt>
      <trkpt lat="43.69546" lon="6.09617">
        <ele>489.93</ele>
        <time>2016-06-18T15:19:36Z</time>
      </trkpt>
      <trkpt lat="43.69567" lon="6.09622">
        <ele>487.05</ele>
        <time>2016-06-18T15:19:52Z</time>
      </trkpt>
      <trkpt lat="43.6957" lon="6.0962">
        <ele>487.05</ele>
        <time>2016-06-18T15:19:55Z</time>
      </trkpt>
      <trkpt lat="43.69589" lon="6.09611">
        <ele>486.08</ele>
        <time>2016-06-18T15:20:09Z</time>
      </trkpt>
      <trkpt lat="43.69591" lon="6.09609">
        <ele>486.08</ele>
        <time>2016-06-18T15:20:11Z</time>
      </trkpt>
      <trkpt lat="43.69607" lon="6.096">
        <ele>485.6</ele>
        <time>2016-06-18T15:20:20Z</time>
      </trkpt>
      <trkpt lat="43.69628" lon="6.09587">
        <ele>484.16</ele>
        <time>2016-06-18T15:20:34Z</time>
      </trkpt>
      <trkpt lat="43.69646" lon="6.09595">
        <ele>483.2</ele>
        <time>2016-06-18T15:20:48Z</time>
      </trkpt>
      <trkpt lat="43.69659" lon="6.09592">
        <ele>481.76</ele>
        <time>2016-06-18T15:20:58Z</time>
      </trkpt>
      <trkpt lat="43.69664" lon="6.09589">
        <ele>480.32</ele>
        <time>2016-06-18T15:21:03Z</time>
      </trkpt>
      <trkpt lat="43.6969" lon="6.09578">
        <ele>478.39</ele>
        <time>2016-06-18T15:21:20Z</time>
      </trkpt>
      <trkpt lat="43.69705" lon="6.09563">
        <ele>475.03</ele>
        <time>2016-06-18T15:21:32Z</time>
      </trkpt>
      <trkpt lat="43.69724" lon="6.09542">
        <ele>474.07</ele>
        <time>2016-06-18T15:21:45Z</time>
      </trkpt>
      <trkpt lat="43.6973" lon="6.09535">
        <ele>473.59</ele>
        <time>2016-06-18T15:21:51Z</time>
      </trkpt>
      <trkpt lat="43.69757" lon="6.09505">
        <ele>471.66</ele>
        <time>2016-06-18T15:22:10Z</time>
      </trkpt>
      <trkpt lat="43.69771" lon="6.09481">
        <ele>471.18</ele>
        <time>2016-06-18T15:22:24Z</time>
      </trkpt>
      <trkpt lat="43.69792" lon="6.09462">
        <ele>468.78</ele>
        <time>2016-06-18T15:22:40Z</time>
      </trkpt>
      <trkpt lat="43.6981" lon="6.09443">
        <ele>466.86</ele>
        <time>2016-06-18T15:22:54Z</time>
      </trkpt>
      <trkpt lat="43.69829" lon="6.09421">
        <ele>464.93</ele>
        <time>2016-06-18T15:23:10Z</time>
      </trkpt>
      <trkpt lat="43.69849" lon="6.094">
        <ele>463.01</ele>
        <time>2016-06-18T15:23:25Z</time>
      </trkpt>
      <trkpt lat="43.69859" lon="6.09383">
        <ele>462.05</ele>
        <time>2016-06-18T15:23:36Z</time>
      </trkpt>
      <trkpt lat="43.69883" lon="6.09355">
        <ele>460.61</ele>
        <time>2016-06-18T15:23:55Z</time>
      </trkpt>
      <trkpt lat="43.69901" lon="6.09339">
        <ele>458.69</ele>
        <time>2016-06-18T15:24:11Z</time>
      </trkpt>
      <trkpt lat="43.69911" lon="6.0933">
        <ele>457.24</ele>
        <time>2016-06-18T15:24:25Z</time>
      </trkpt>
      <trkpt lat="43.6991" lon="6.09331">
        <ele>457.72</ele>
        <time>2016-06-18T15:24:46Z</time>
      </trkpt>
      <trkpt lat="43.6991" lon="6.09331">
        <ele>457.72</ele>
        <time>2016-06-18T15:25:07Z</time>
      </trkpt>
      <trkpt lat="43.69912" lon="6.09329">
        <ele>457.24</ele>
        <time>2016-06-18T15:25:23Z</time>
      </trkpt>
      <trkpt lat="43.69913" lon="6.09329">
        <ele>457.72</ele>
        <time>2016-06-18T15:25:44Z</time>
      </trkpt>
      <trkpt lat="43.69912" lon="6.09329">
        <ele>457.72</ele>
        <time>2016-06-18T15:25:59Z</time>
      </trkpt>
      <trkpt lat="43.69915" lon="6.09323">
        <ele>457.24</ele>
        <time>2016-06-18T15:26:11Z</time>
      </trkpt>
      <trkpt lat="43.69919" lon="6.09323">
        <ele>457.24</ele>
        <time>2016-06-18T15:26:27Z</time>
      </trkpt>
      <trkpt lat="43.69918" lon="6.09325">
        <ele>457.24</ele>
        <time>2016-06-18T15:26:44Z</time>
      </trkpt>
      <trkpt lat="43.69919" lon="6.09326">
        <ele>457.24</ele>
        <time>2016-06-18T15:27:06Z</time>
      </trkpt>
      <trkpt lat="43.69918" lon="6.09326">
        <ele>457.24</ele>
        <time>2016-06-18T15:27:21Z</time>
      </trkpt>
      <trkpt lat="43.69917" lon="6.09327">
        <ele>457.72</ele>
        <time>2016-06-18T15:27:43Z</time>
      </trkpt>
      <trkpt lat="43.69916" lon="6.09328">
        <ele>457.72</ele>
        <time>2016-06-18T15:27:58Z</time>
      </trkpt>
      <trkpt lat="43.69916" lon="6.09327">
        <ele>457.72</ele>
        <time>2016-06-18T15:28:33Z</time>
      </trkpt>
      <trkpt lat="43.69915" lon="6.09326">
        <ele>457.72</ele>
        <time>2016-06-18T15:29:02Z</time>
      </trkpt>
      <trkpt lat="43.69914" lon="6.09326">
        <ele>457.72</ele>
        <time>2016-06-18T15:29:25Z</time>
      </trkpt>
      <trkpt lat="43.69923" lon="6.09325">
        <ele>455.8</ele>
        <time>2016-06-18T15:29:31Z</time>
      </trkpt>
      <trkpt lat="43.69955" lon="6.09319">
        <ele>453.88</ele>
        <time>2016-06-18T15:29:49Z</time>
      </trkpt>
      <trkpt lat="43.69976" lon="6.09302">
        <ele>451.96</ele>
        <time>2016-06-18T15:30:05Z</time>
      </trkpt>
      <trkpt lat="43.69994" lon="6.09283">
        <ele>449.55</ele>
        <time>2016-06-18T15:30:20Z</time>
      </trkpt>
      <trkpt lat="43.70001" lon="6.0931">
        <ele>448.59</ele>
        <time>2016-06-18T15:30:34Z</time>
      </trkpt>
      <trkpt lat="43.69997" lon="6.09317">
        <ele>447.15</ele>
        <time>2016-06-18T15:30:38Z</time>
      </trkpt>
      <trkpt lat="43.69997" lon="6.09343">
        <ele>444.75</ele>
        <time>2016-06-18T15:30:53Z</time>
      </trkpt>
      <trkpt lat="43.70003" lon="6.09344">
        <ele>444.75</ele>
        <time>2016-06-18T15:30:57Z</time>
      </trkpt>
      <trkpt lat="43.70024" lon="6.09338">
        <ele>448.11</ele>
        <time>2016-06-18T15:31:12Z</time>
      </trkpt>
      <trkpt lat="43.70027" lon="6.09342">
        <ele>449.07</ele>
        <time>2016-06-18T15:31:28Z</time>
      </trkpt>
      <trkpt lat="43.70029" lon="6.09337">
        <ele>448.59</ele>
        <time>2016-06-18T15:31:46Z</time>
      </trkpt>
      <trkpt lat="43.70033" lon="6.09332">
        <ele>449.07</ele>
        <time>2016-06-18T15:31:53Z</time>
      </trkpt>
      <trkpt lat="43.70061" lon="6.09319">
        <ele>450.03</ele>
        <time>2016-06-18T15:32:12Z</time>
      </trkpt>
      <trkpt lat="43.7008" lon="6.09305">
        <ele>451</ele>
        <time>2016-06-18T15:32:22Z</time>
      </trkpt>
      <trkpt lat="43.70103" lon="6.09283">
        <ele>451.96</ele>
        <time>2016-06-18T15:32:40Z</time>
      </trkpt>
      <trkpt lat="43.70127" lon="6.09265">
        <ele>452.92</ele>
        <time>2016-06-18T15:32:56Z</time>
      </trkpt>
      <trkpt lat="43.70153" lon="6.09242">
        <ele>454.36</ele>
        <time>2016-06-18T15:33:14Z</time>
      </trkpt>
      <trkpt lat="43.7018" lon="6.0921">
        <ele>457.24</ele>
        <time>2016-06-18T15:33:29Z</time>
      </trkpt>
      <trkpt lat="43.70194" lon="6.09187">
        <ele>460.13</ele>
        <time>2016-06-18T15:33:41Z</time>
      </trkpt>
      <trkpt lat="43.70205" lon="6.09161">
        <ele>463.49</ele>
        <time>2016-06-18T15:33:53Z</time>
      </trkpt>
      <trkpt lat="43.70213" lon="6.0914">
        <ele>466.38</ele>
        <time>2016-06-18T15:34:03Z</time>
      </trkpt>
      <trkpt lat="43.70216" lon="6.09123">
        <ele>468.78</ele>
        <time>2016-06-18T15:34:11Z</time>
      </trkpt>
      <trkpt lat="43.70216" lon="6.0911">
        <ele>470.7</ele>
        <time>2016-06-18T15:34:19Z</time>
      </trkpt>
      <trkpt lat="43.70217" lon="6.091">
        <ele>472.14</ele>
        <time>2016-06-18T15:34:24Z</time>
      </trkpt>
      <trkpt lat="43.7022" lon="6.09081">
        <ele>475.51</ele>
        <time>2016-06-18T15:34:33Z</time>
      </trkpt>
      <trkpt lat="43.70226" lon="6.09058">
        <ele>478.39</ele>
        <time>2016-06-18T15:34:43Z</time>
      </trkpt>
      <trkpt lat="43.70227" lon="6.09021">
        <ele>480.8</ele>
        <time>2016-06-18T15:34:58Z</time>
      </trkpt>
      <trkpt lat="43.70229" lon="6.08988">
        <ele>483.2</ele>
        <time>2016-06-18T15:35:11Z</time>
      </trkpt>
      <trkpt lat="43.70234" lon="6.08954">
        <ele>485.6</ele>
        <time>2016-06-18T15:35:26Z</time>
      </trkpt>
      <trkpt lat="43.7025" lon="6.08935">
        <ele>488.49</ele>
        <time>2016-06-18T15:35:40Z</time>
      </trkpt>
      <trkpt lat="43.70253" lon="6.08932">
        <ele>488.97</ele>
        <time>2016-06-18T15:35:43Z</time>
      </trkpt>
      <trkpt lat="43.70253" lon="6.08921">
        <ele>488.97</ele>
        <time>2016-06-18T15:35:48Z</time>
      </trkpt>
      <trkpt lat="43.70252" lon="6.08886">
        <ele>487.53</ele>
        <time>2016-06-18T15:36:04Z</time>
      </trkpt>
      <trkpt lat="43.70265" lon="6.08861">
        <ele>486.08</ele>
        <time>2016-06-18T15:36:18Z</time>
      </trkpt>
      <trkpt lat="43.70271" lon="6.08853">
        <ele>485.12</ele>
        <time>2016-06-18T15:36:23Z</time>
      </trkpt>
      <trkpt lat="43.70273" lon="6.08844">
        <ele>485.12</ele>
        <time>2016-06-18T15:36:37Z</time>
      </trkpt>
      <trkpt lat="43.70272" lon="6.08845">
        <ele>484.64</ele>
        <time>2016-06-18T15:36:55Z</time>
      </trkpt>
      <trkpt lat="43.70271" lon="6.08847">
        <ele>484.64</ele>
        <time>2016-06-18T15:37:07Z</time>
      </trkpt>
      <trkpt lat="43.70269" lon="6.08847">
        <ele>485.12</ele>
        <time>2016-06-18T15:37:16Z</time>
      </trkpt>
      <trkpt lat="43.7027" lon="6.08846">
        <ele>485.12</ele>
        <time>2016-06-18T15:37:29Z</time>
      </trkpt>
      <trkpt lat="43.70265" lon="6.08844">
        <ele>485.12</ele>
        <time>2016-06-18T15:37:47Z</time>
      </trkpt>
      <trkpt lat="43.70263" lon="6.08842">
        <ele>485.12</ele>
        <time>2016-06-18T15:38:02Z</time>
      </trkpt>
      <trkpt lat="43.70264" lon="6.08844">
        <ele>485.12</ele>
        <time>2016-06-18T15:38:27Z</time>
      </trkpt>
      <trkpt lat="43.70267" lon="6.08844">
        <ele>484.64</ele>
        <time>2016-06-18T15:38:43Z</time>
      </trkpt>
      <trkpt lat="43.70268" lon="6.08846">
        <ele>484.64</ele>
        <time>2016-06-18T15:38:54Z</time>
      </trkpt>
      <trkpt lat="43.70266" lon="6.08845">
        <ele>485.12</ele>
        <time>2016-06-18T15:39:06Z</time>
      </trkpt>
      <trkpt lat="43.70266" lon="6.08845">
        <ele>485.12</ele>
        <time>2016-06-18T15:39:31Z</time>
      </trkpt>
      <trkpt lat="43.70266" lon="6.08841">
        <ele>484.16</ele>
        <time>2016-06-18T15:39:37Z</time>
      </trkpt>
      <trkpt lat="43.70268" lon="6.08814">
        <ele>484.64</ele>
        <time>2016-06-18T15:39:51Z</time>
      </trkpt>
      <trkpt lat="43.70273" lon="6.08809">
        <ele>484.16</ele>
        <time>2016-06-18T15:39:56Z</time>
      </trkpt>
      <trkpt lat="43.70284" lon="6.08789">
        <ele>482.72</ele>
        <time>2016-06-18T15:40:10Z</time>
      </trkpt>
      <trkpt lat="43.70299" lon="6.08765">
        <ele>480.8</ele>
        <time>2016-06-18T15:40:25Z</time>
      </trkpt>
      <trkpt lat="43.70307" lon="6.0874">
        <ele>477.43</ele>
        <time>2016-06-18T15:40:41Z</time>
      </trkpt>
      <trkpt lat="43.7031" lon="6.08731">
        <ele>472.63</ele>
        <time>2016-06-18T15:40:46Z</time>
      </trkpt>
      <trkpt lat="43.70311" lon="6.08729">
        <ele>477.91</ele>
        <time>2016-06-18T15:40:47Z</time>
      </trkpt>
      <trkpt lat="43.70314" lon="6.08722">
        <ele>475.03</ele>
        <time>2016-06-18T15:40:54Z</time>
      </trkpt>
      <trkpt lat="43.70322" lon="6.08707">
        <ele>471.18</ele>
        <time>2016-06-18T15:41:03Z</time>
      </trkpt>
      <trkpt lat="43.70322" lon="6.08706">
        <ele>478.87</ele>
        <time>2016-06-18T15:41:04Z</time>
      </trkpt>
      <trkpt lat="43.70323" lon="6.08704">
        <ele>473.59</ele>
        <time>2016-06-18T15:41:05Z</time>
      </trkpt>
      <trkpt lat="43.70334" lon="6.08688">
        <ele>470.22</ele>
        <time>2016-06-18T15:41:16Z</time>
      </trkpt>
      <trkpt lat="43.70337" lon="6.08685">
        <ele>470.22</ele>
        <time>2016-06-18T15:41:19Z</time>
      </trkpt>
      <trkpt lat="43.70346" lon="6.08689">
        <ele>469.26</ele>
        <time>2016-06-18T15:41:25Z</time>
      </trkpt>
      <trkpt lat="43.7036" lon="6.08705">
        <ele>469.74</ele>
        <time>2016-06-18T15:41:38Z</time>
      </trkpt>
      <trkpt lat="43.70371" lon="6.08708">
        <ele>469.74</ele>
        <time>2016-06-18T15:41:47Z</time>
      </trkpt>
      <trkpt lat="43.70378" lon="6.08698">
        <ele>469.74</ele>
        <time>2016-06-18T15:41:53Z</time>
      </trkpt>
      <trkpt lat="43.70381" lon="6.08695">
        <ele>469.74</ele>
        <time>2016-06-18T15:41:55Z</time>
      </trkpt>
      <trkpt lat="43.70388" lon="6.08688">
        <ele>469.74</ele>
        <time>2016-06-18T15:42:00Z</time>
      </trkpt>
      <trkpt lat="43.70399" lon="6.08685">
        <ele>469.26</ele>
        <time>2016-06-18T15:42:07Z</time>
      </trkpt>
      <trkpt lat="43.70414" lon="6.0867">
        <ele>468.78</ele>
        <time>2016-06-18T15:42:19Z</time>
      </trkpt>
      <trkpt lat="43.70421" lon="6.08659">
        <ele>468.78</ele>
        <time>2016-06-18T15:42:30Z</time>
      </trkpt>
      <trkpt lat="43.70422" lon="6.0866">
        <ele>468.3</ele>
        <time>2016-06-18T15:42:49Z</time>
      </trkpt>
      <trkpt lat="43.7042" lon="6.08665">
        <ele>468.78</ele>
        <time>2016-06-18T15:43:01Z</time>
      </trkpt>
      <trkpt lat="43.70425" lon="6.0866">
        <ele>468.78</ele>
        <time>2016-06-18T15:43:16Z</time>
      </trkpt>
      <trkpt lat="43.70429" lon="6.08655">
        <ele>469.26</ele>
        <time>2016-06-18T15:43:31Z</time>
      </trkpt>
      <trkpt lat="43.70431" lon="6.08654">
        <ele>468.78</ele>
        <time>2016-06-18T15:43:44Z</time>
      </trkpt>
      <trkpt lat="43.70435" lon="6.08651">
        <ele>468.78</ele>
        <time>2016-06-18T15:43:53Z</time>
      </trkpt>
      <trkpt lat="43.70441" lon="6.08651">
        <ele>469.74</ele>
        <time>2016-06-18T15:44:00Z</time>
      </trkpt>
      <trkpt lat="43.70443" lon="6.08655">
        <ele>470.7</ele>
        <time>2016-06-18T15:44:03Z</time>
      </trkpt>
      <trkpt lat="43.70451" lon="6.08664">
        <ele>472.63</ele>
        <time>2016-06-18T15:44:10Z</time>
      </trkpt>
      <trkpt lat="43.70461" lon="6.08667">
        <ele>474.07</ele>
        <time>2016-06-18T15:44:22Z</time>
      </trkpt>
      <trkpt lat="43.70463" lon="6.08667">
        <ele>474.55</ele>
        <time>2016-06-18T15:44:42Z</time>
      </trkpt>
      <trkpt lat="43.70463" lon="6.08666">
        <ele>474.07</ele>
        <time>2016-06-18T15:44:55Z</time>
      </trkpt>
      <trkpt lat="43.70463" lon="6.08666">
        <ele>474.55</ele>
        <time>2016-06-18T15:45:10Z</time>
      </trkpt>
      <trkpt lat="43.70462" lon="6.08665">
        <ele>474.55</ele>
        <time>2016-06-18T15:45:29Z</time>
      </trkpt>
      <trkpt lat="43.70462" lon="6.08666">
        <ele>474.55</ele>
        <time>2016-06-18T15:45:48Z</time>
      </trkpt>
      <trkpt lat="43.70463" lon="6.08666">
        <ele>475.03</ele>
        <time>2016-06-18T15:46:02Z</time>
      </trkpt>
      <trkpt lat="43.70464" lon="6.08665">
        <ele>475.03</ele>
        <time>2016-06-18T15:46:20Z</time>
      </trkpt>
      <trkpt lat="43.70464" lon="6.08664">
        <ele>474.55</ele>
        <time>2016-06-18T15:46:35Z</time>
      </trkpt>
      <trkpt lat="43.70462" lon="6.08665">
        <ele>474.55</ele>
        <time>2016-06-18T15:46:50Z</time>
      </trkpt>
      <trkpt lat="43.70456" lon="6.08673">
        <ele>474.55</ele>
        <time>2016-06-18T15:47:07Z</time>
      </trkpt>
      <trkpt lat="43.70454" lon="6.08673">
        <ele>474.07</ele>
        <time>2016-06-18T15:47:19Z</time>
      </trkpt>
      <trkpt lat="43.70454" lon="6.08667">
        <ele>474.07</ele>
        <time>2016-06-18T15:47:29Z</time>
      </trkpt>
      <trkpt lat="43.70458" lon="6.08656">
        <ele>472.63</ele>
        <time>2016-06-18T15:47:42Z</time>
      </trkpt>
      <trkpt lat="43.70464" lon="6.08652">
        <ele>472.63</ele>
        <time>2016-06-18T15:47:56Z</time>
      </trkpt>
      <trkpt lat="43.70463" lon="6.08656">
        <ele>473.59</ele>
        <time>2016-06-18T15:48:08Z</time>
      </trkpt>
      <trkpt lat="43.70462" lon="6.08656">
        <ele>472.63</ele>
        <time>2016-06-18T15:48:33Z</time>
      </trkpt>
      <trkpt lat="43.70462" lon="6.08656">
        <ele>473.11</ele>
        <time>2016-06-18T15:49:03Z</time>
      </trkpt>
      <trkpt lat="43.70462" lon="6.08657">
        <ele>469.26</ele>
        <time>2016-06-18T15:49:15Z</time>
      </trkpt>
      <trkpt lat="43.70462" lon="6.08657">
        <ele>476.47</ele>
        <time>2016-06-18T15:49:16Z</time>
      </trkpt>
      <trkpt lat="43.70462" lon="6.08657">
        <ele>472.63</ele>
        <time>2016-06-18T15:49:17Z</time>
      </trkpt>
      <trkpt lat="43.70462" lon="6.08657">
        <ele>475.99</ele>
        <time>2016-06-18T15:49:20Z</time>
      </trkpt>
      <trkpt lat="43.70462" lon="6.08657">
        <ele>472.14</ele>
        <time>2016-06-18T15:49:22Z</time>
      </trkpt>
    </trkseg>
  </trk>
</gpx>